[[{"header":{"parameterUnit":"m.s-1","parameterCategory":1,"la1":30.6,"la2":29.2853,"lo1":-89.7004,"lo2":-87.6739,"dy":0.0162,"dx":0.0183,"nx":112,"ny":82,"refTime":"2026-04-10T00:00:00:Z","depth":0,"parameterNumber":2,"parameterNumberName":"U-component_of_WINDS"},"data":[0.0,0.0,0.0,0.0,0.0,0.0,0.0,0.0,0.0,0.0,0.0,0.0,0.0,0.0,0.0,0.0,0.0,0.0,0.0,0.0,0.0,0.0,0.0,0.0,0.0,0.0,0.0,0.0,0.0,0.0,0.0,0.0,0.0,0.0,0.0,0.0,0.0,0.0,0.0,0.0,0.0,0.0,0.0,0.0,0.0,0.0,0.0,0.0,0.0,0.0,0.0,0.0,0.0,0.0,0.0,0.0,0.0,0.0,0.0,0.0,0.0,0.0,0.0,0.0,0.0,0.0,0.0,0.0,0.0,0.0,0.0,0.0,0.0,0.0,0.0,0.0,0.0,0.0,0.0,0.0,0.0,0.0,0.0,0.0,0.0,0.0,0.0,0.0,0.0,0.0,-5.5874,-5.95,-6.3531,-6.5352,-6.3806,-6.2965,-6.083,-5.6814,0.0,0.0,0.0,0.0,0.0,0.0,0.0,0.0,0.0,0.0,0.0,0.0,0.0,0.0,0.0,0.0,0.0,0.0,0.0,0.0,0.0,0.0,0.0,0.0,0.0,0.0,0.0,0.0,0.0,0.0,0.0,0.0,0.0,0.0,0.0,0.0,0.0,0.0,0.0,0.0,0.0,0.0,0.0,0.0,0.0,0.0,0.0,0.0,0.0,0.0,0.0,0.0,0.0,0.0,0.0,0.0,0.0,0.0,0.0,0.0,0.0,0.0,0.0,0.0,0.0,0.0,0.0,0.0,0.0,0.0,0.0,0.0,0.0,0.0,0.0,0.0,0.0,0.0,0.0,0.0,0.0,0.0,0.0,0.0,0.0,0.0,0.0,0.0,0.0,0.0,0.0,0.0,0.0,0.0,0.0,0.0,0.0,0.0,0.0,0.0,0.0,0.0,0.0,0.0,-5.6184,-6.112,-6.4192,-6.5291,-6.3681,-6.282,-6.0898,-5.7535,0.0,0.0,0.0,0.0,0.0,0.0,0.0,0.0,0.0,0.0,0.0,0.0,0.0,0.0,0.0,0.0,0.0,0.0,0.0,0.0,0.0,0.0,0.0,0.0,0.0,0.0,0.0,0.0,0.0,0.0,0.0,0.0,0.0,0.0,0.0,0.0,0.0,0.0,0.0,0.0,0.0,0.0,0.0,0.0,0.0,0.0,0.0,0.0,0.0,0.0,0.0,0.0,0.0,0.0,0.0,0.0,0.0,0.0,0.0,0.0,0.0,0.0,0.0,0.0,0.0,0.0,0.0,0.0,0.0,0.0,0.0,0.0,0.0,0.0,0.0,0.0,0.0,0.0,0.0,0.0,0.0,0.0,0.0,0.0,0.0,0.0,0.0,0.0,0.0,0.0,0.0,0.0,0.0,0.0,0.0,0.0,0.0,0.0,0.0,0.0,0.0,0.0,0.0,-5.6506,-5.9535,-6.2337,-6.4167,-6.4703,-6.3565,-6.2281,-6.0162,-5.6877,-5.4035,0.0,0.0,0.0,0.0,0.0,0.0,0.0,0.0,0.0,0.0,0.0,0.0,0.0,0.0,0.0,0.0,0.0,0.0,0.0,0.0,0.0,0.0,0.0,0.0,0.0,0.0,0.0,0.0,0.0,0.0,0.0,0.0,0.0,0.0,0.0,0.0,0.0,0.0,0.0,0.0,0.0,0.0,0.0,0.0,0.0,0.0,0.0,0.0,0.0,0.0,0.0,0.0,0.0,0.0,0.0,0.0,0.0,0.0,0.0,0.0,0.0,0.0,0.0,0.0,0.0,0.0,0.0,0.0,0.0,0.0,0.0,0.0,0.0,0.0,0.0,0.0,0.0,0.0,0.0,0.0,0.0,0.0,0.0,0.0,0.0,0.0,0.0,0.0,0.0,0.0,0.0,0.0,0.0,0.0,0.0,0.0,0.0,0.0,0.0,0.0,0.0,0.0,-5.9562,-6.2401,-6.2836,-6.3886,-6.4064,-6.2844,-6.1208,-5.8953,-5.584,-5.3172,0.0,0.0,0.0,0.0,0.0,0.0,0.0,0.0,0.0,0.0,0.0,0.0,0.0,0.0,0.0,0.0,0.0,0.0,0.0,0.0,0.0,0.0,0.0,0.0,0.0,0.0,0.0,0.0,0.0,0.0,0.0,0.0,0.0,0.0,0.0,0.0,0.0,0.0,0.0,0.0,0.0,0.0,0.0,0.0,0.0,0.0,0.0,0.0,0.0,0.0,0.0,0.0,0.0,0.0,0.0,0.0,0.0,0.0,0.0,0.0,0.0,0.0,0.0,0.0,0.0,0.0,0.0,0.0,0.0,0.0,0.0,0.0,0.0,0.0,0.0,0.0,0.0,0.0,0.0,0.0,0.0,0.0,0.0,0.0,0.0,0.0,0.0,0.0,0.0,0.0,0.0,0.0,0.0,0.0,0.0,0.0,0.0,0.0,0.0,0.0,0.0,0.0,-6.0261,-6.2651,-6.1962,-6.3409,-6.3449,-6.1007,-5.9329,-5.7297,-5.4766,-5.1567,0.0,0.0,0.0,0.0,0.0,0.0,0.0,0.0,0.0,0.0,0.0,0.0,0.0,0.0,0.0,0.0,0.0,0.0,0.0,0.0,0.0,0.0,0.0,0.0,0.0,0.0,0.0,0.0,0.0,0.0,0.0,0.0,0.0,0.0,0.0,0.0,0.0,0.0,0.0,0.0,0.0,0.0,0.0,0.0,0.0,0.0,0.0,0.0,0.0,0.0,0.0,0.0,0.0,0.0,0.0,0.0,0.0,0.0,0.0,0.0,0.0,0.0,0.0,0.0,0.0,0.0,0.0,0.0,0.0,0.0,0.0,0.0,0.0,0.0,0.0,0.0,0.0,0.0,0.0,0.0,0.0,0.0,0.0,0.0,0.0,0.0,0.0,0.0,0.0,0.0,0.0,0.0,0.0,0.0,0.0,0.0,0.0,0.0,0.0,0.0,0.0,0.0,-5.9253,-6.1774,0.0,-6.1597,-6.1349,-6.0436,-5.7863,-5.577,-5.4386,0.0,0.0,0.0,0.0,0.0,0.0,0.0,0.0,0.0,0.0,0.0,0.0,0.0,0.0,0.0,0.0,0.0,0.0,0.0,0.0,0.0,0.0,0.0,0.0,0.0,0.0,0.0,0.0,0.0,0.0,0.0,0.0,0.0,0.0,0.0,0.0,0.0,0.0,0.0,0.0,0.0,0.0,0.0,0.0,0.0,0.0,0.0,0.0,0.0,0.0,0.0,0.0,0.0,0.0,0.0,0.0,0.0,0.0,0.0,0.0,0.0,0.0,0.0,0.0,0.0,0.0,0.0,0.0,0.0,0.0,0.0,0.0,0.0,0.0,0.0,0.0,0.0,0.0,0.0,0.0,0.0,0.0,0.0,0.0,0.0,0.0,0.0,0.0,0.0,0.0,0.0,0.0,0.0,0.0,0.0,0.0,0.0,0.0,0.0,0.0,0.0,0.0,-5.4843,-5.8538,-6.0783,0.0,-6.0205,-5.9798,-5.8798,-5.6382,-5.4414,-5.3213,0.0,0.0,0.0,0.0,0.0,0.0,0.0,0.0,0.0,0.0,0.0,0.0,0.0,0.0,0.0,0.0,0.0,0.0,0.0,0.0,0.0,0.0,0.0,0.0,0.0,0.0,0.0,0.0,0.0,0.0,0.0,0.0,0.0,0.0,0.0,0.0,0.0,0.0,0.0,0.0,0.0,0.0,0.0,0.0,0.0,0.0,0.0,0.0,0.0,0.0,0.0,0.0,0.0,0.0,0.0,0.0,0.0,0.0,0.0,0.0,0.0,0.0,0.0,0.0,0.0,0.0,0.0,0.0,0.0,0.0,0.0,0.0,0.0,0.0,0.0,0.0,0.0,0.0,0.0,0.0,0.0,0.0,0.0,0.0,0.0,0.0,0.0,0.0,0.0,0.0,0.0,0.0,0.0,0.0,0.0,0.0,0.0,0.0,0.0,0.0,0.0,0.0,-5.5139,-5.8388,-5.9816,-5.8182,-5.9477,-5.9102,-5.5778,-5.476,-5.3354,0.0,0.0,0.0,0.0,0.0,0.0,0.0,0.0,0.0,0.0,0.0,0.0,0.0,0.0,0.0,0.0,0.0,0.0,0.0,0.0,0.0,0.0,0.0,0.0,0.0,0.0,0.0,0.0,0.0,0.0,0.0,0.0,0.0,0.0,0.0,0.0,0.0,0.0,0.0,0.0,0.0,0.0,0.0,0.0,0.0,0.0,0.0,0.0,0.0,0.0,0.0,0.0,0.0,0.0,0.0,0.0,0.0,0.0,0.0,0.0,0.0,0.0,0.0,0.0,0.0,0.0,0.0,0.0,0.0,0.0,0.0,0.0,0.0,0.0,0.0,0.0,0.0,0.0,0.0,0.0,0.0,0.0,0.0,0.0,0.0,0.0,0.0,0.0,0.0,0.0,0.0,0.0,0.0,0.0,0.0,0.0,0.0,0.0,0.0,0.0,0.0,0.0,0.0,-5.3981,-5.62,-5.7766,-5.8418,-5.7896,-5.7095,-5.6201,-5.482,-5.332,-5.1635,0.0,0.0,0.0,0.0,0.0,0.0,0.0,0.0,0.0,0.0,0.0,0.0,0.0,0.0,0.0,0.0,0.0,0.0,0.0,0.0,0.0,0.0,0.0,0.0,0.0,0.0,0.0,0.0,0.0,0.0,0.0,0.0,0.0,0.0,0.0,0.0,0.0,0.0,0.0,0.0,0.0,0.0,0.0,0.0,0.0,0.0,0.0,0.0,0.0,0.0,0.0,0.0,0.0,0.0,0.0,0.0,0.0,0.0,0.0,0.0,0.0,0.0,0.0,0.0,0.0,0.0,0.0,0.0,0.0,0.0,0.0,0.0,0.0,0.0,0.0,0.0,0.0,0.0,0.0,0.0,0.0,0.0,0.0,0.0,0.0,0.0,0.0,0.0,0.0,0.0,0.0,0.0,0.0,0.0,0.0,0.0,0.0,0.0,0.0,0.0,0.0,0.0,-5.2609,-5.4896,-5.6614,-5.722,-5.6999,-5.6393,-5.5533,-5.4576,-5.314,-5.1076,0.0,0.0,0.0,0.0,0.0,0.0,0.0,0.0,0.0,0.0,0.0,0.0,0.0,0.0,0.0,0.0,0.0,0.0,0.0,0.0,0.0,0.0,0.0,0.0,0.0,0.0,0.0,0.0,0.0,0.0,0.0,0.0,0.0,0.0,0.0,0.0,0.0,0.0,0.0,0.0,0.0,0.0,0.0,0.0,0.0,0.0,0.0,0.0,0.0,0.0,0.0,0.0,0.0,0.0,0.0,0.0,0.0,0.0,0.0,0.0,0.0,0.0,0.0,0.0,0.0,0.0,0.0,0.0,0.0,0.0,0.0,0.0,0.0,0.0,0.0,0.0,0.0,0.0,0.0,0.0,0.0,0.0,0.0,0.0,0.0,0.0,0.0,0.0,0.0,0.0,0.0,0.0,0.0,0.0,0.0,0.0,0.0,0.0,0.0,0.0,0.0,0.0,-5.1209,-5.4146,-5.5785,-5.5179,-5.6381,-5.6308,-5.4123,-5.4054,-5.2856,-4.9926,0.0,0.0,0.0,0.0,0.0,0.0,0.0,0.0,0.0,0.0,0.0,0.0,0.0,0.0,0.0,0.0,0.0,0.0,0.0,0.0,0.0,0.0,0.0,0.0,0.0,0.0,0.0,0.0,0.0,0.0,0.0,0.0,0.0,0.0,0.0,0.0,0.0,0.0,0.0,0.0,0.0,0.0,0.0,0.0,0.0,0.0,0.0,0.0,0.0,0.0,0.0,0.0,0.0,0.0,0.0,0.0,0.0,0.0,0.0,0.0,-4.8041,0.0,0.0,0.0,0.0,0.0,0.0,0.0,0.0,0.0,0.0,0.0,0.0,0.0,0.0,0.0,0.0,0.0,0.0,0.0,0.0,0.0,0.0,0.0,0.0,0.0,0.0,0.0,0.0,0.0,0.0,0.0,0.0,0.0,0.0,0.0,0.0,0.0,0.0,0.0,0.0,0.0,-5.0741,-5.2161,-5.3351,-5.4458,-5.4314,-5.3966,-5.3568,-5.3555,-5.2585,-5.0247,-4.851,0.0,0.0,0.0,0.0,0.0,0.0,0.0,0.0,0.0,0.0,0.0,0.0,0.0,0.0,0.0,0.0,0.0,0.0,0.0,0.0,0.0,0.0,0.0,0.0,0.0,0.0,0.0,0.0,0.0,0.0,0.0,0.0,0.0,0.0,0.0,0.0,0.0,0.0,0.0,0.0,0.0,0.0,0.0,0.0,0.0,0.0,0.0,0.0,0.0,0.0,0.0,0.0,0.0,0.0,0.0,0.0,0.0,0.0,0.0,0.0,-4.8272,0.0,0.0,0.0,0.0,0.0,0.0,0.0,0.0,0.0,0.0,0.0,0.0,0.0,0.0,0.0,0.0,0.0,0.0,0.0,0.0,0.0,0.0,0.0,0.0,0.0,0.0,0.0,0.0,0.0,0.0,0.0,0.0,0.0,0.0,0.0,0.0,0.0,0.0,0.0,0.0,-4.9386,-5.1022,-5.2268,-5.3112,-5.3184,-5.3006,-5.2727,-5.2386,-5.1247,-4.9005,-4.7411,0.0,0.0,0.0,0.0,0.0,0.0,0.0,0.0,0.0,0.0,0.0,0.0,0.0,0.0,0.0,0.0,0.0,0.0,0.0,0.0,0.0,0.0,0.0,0.0,0.0,0.0,0.0,0.0,0.0,0.0,0.0,0.0,0.0,0.0,0.0,0.0,0.0,0.0,0.0,0.0,0.0,0.0,0.0,0.0,0.0,0.0,0.0,0.0,0.0,0.0,0.0,0.0,0.0,-5.3585,-5.3517,-5.2741,-5.3416,-5.2944,-5.1494,-5.0351,-4.9878,-4.9978,-5.0179,0.0,0.0,0.0,0.0,0.0,0.0,0.0,0.0,0.0,0.0,0.0,0.0,0.0,0.0,0.0,0.0,0.0,0.0,0.0,0.0,0.0,0.0,0.0,0.0,-4.8489,-4.8432,0.0,0.0,0.0,0.0,0.0,0.0,0.0,0.0,0.0,0.0,0.0,0.0,-4.7796,-5.0029,-5.136,-5.136,-5.2089,-5.2299,-5.1633,-5.1084,-4.9838,-4.7668,-4.6196,-4.4505,0.0,0.0,0.0,0.0,0.0,0.0,0.0,0.0,0.0,0.0,0.0,0.0,0.0,0.0,0.0,0.0,0.0,0.0,0.0,0.0,0.0,0.0,0.0,0.0,0.0,0.0,0.0,0.0,0.0,0.0,0.0,0.0,-5.3788,-5.2169,0.0,0.0,0.0,0.0,0.0,0.0,0.0,0.0,0.0,0.0,0.0,0.0,0.0,-5.3107,-5.3608,-5.4345,-5.4714,-5.4747,-5.5484,-5.5345,-5.4498,-5.4528,-5.402,-5.3009,-5.2817,0.0,-5.147,-5.1641,0.0,0.0,0.0,0.0,0.0,0.0,0.0,0.0,0.0,0.0,0.0,0.0,0.0,0.0,0.0,0.0,0.0,0.0,0.0,0.0,0.0,0.0,-4.881,-4.9985,-4.9884,-4.9213,0.0,-4.767,-4.6857,-4.5606,-4.526,0.0,0.0,0.0,0.0,0.0,0.0,0.0,-4.6627,-4.8218,-4.9221,-4.9221,-4.985,-5.0322,-5.0361,-5.0285,-4.9576,-4.8111,-4.7143,-4.5745,-4.3676,-4.2282,0.0,0.0,0.0,0.0,0.0,0.0,0.0,0.0,0.0,0.0,0.0,0.0,0.0,0.0,0.0,0.0,0.0,0.0,0.0,0.0,0.0,0.0,0.0,0.0,0.0,0.0,0.0,0.0,0.0,-5.4548,-5.4431,-5.3029,-5.2794,-5.2227,0.0,0.0,0.0,0.0,0.0,0.0,0.0,0.0,0.0,-5.2417,-5.3536,-5.4486,-5.5247,-5.5968,-5.6132,-5.5778,-5.6507,-5.6238,-5.5077,-5.5352,-5.5038,-5.4163,-5.4085,-5.3536,-5.2785,-5.2941,-5.2089,-5.0503,0.0,0.0,0.0,0.0,-4.8083,-4.8869,-4.8252,-4.7432,0.0,-4.6039,0.0,0.0,0.0,0.0,0.0,0.0,0.0,0.0,0.0,0.0,-4.9126,-4.9324,-4.9489,-4.9159,-4.7734,-4.7218,-4.6844,0.0,-4.566,-4.4946,-4.3518,0.0,0.0,0.0,0.0,-4.3498,-4.4992,-4.683,-4.8018,-4.8018,-4.8663,-4.9135,-4.9226,-4.9286,-4.8728,-4.7284,-4.6993,-4.5932,-4.3862,-4.2933,-4.2044,0.0,0.0,0.0,0.0,0.0,0.0,0.0,0.0,0.0,0.0,0.0,0.0,0.0,0.0,0.0,0.0,0.0,0.0,0.0,0.0,0.0,0.0,0.0,0.0,0.0,0.0,0.0,0.0,-5.4854,-5.5078,-5.4208,-5.3766,-5.3103,0.0,0.0,0.0,0.0,0.0,0.0,-5.1777,-5.278,-5.3423,-5.3616,-5.4654,-5.5596,-5.6314,-5.6862,-5.6905,-5.6389,-5.7141,-5.6679,-5.5233,-5.5856,-5.5495,-5.4495,-5.4327,-5.3871,-5.3264,-5.3389,-5.2407,-5.069,-4.9793,-4.946,-4.9359,-4.7994,-4.8296,-4.926,-4.8762,-4.7969,-4.7111,-4.698,-4.5667,-4.4225,-4.4358,0.0,0.0,0.0,0.0,-4.5473,-4.7461,-4.8497,-4.8943,-4.8586,-4.8781,-4.8527,-4.6549,-4.6126,-4.6224,0.0,-4.5838,-4.5072,-4.3997,0.0,0.0,0.0,0.0,-4.2127,-4.3398,-4.533,-4.6562,-4.6562,-4.726,-4.7725,-4.7756,-4.7916,-4.741,-4.6133,-4.6186,-4.552,-4.3885,-4.3284,-4.2457,-4.1364,0.0,0.0,0.0,0.0,0.0,0.0,0.0,0.0,0.0,0.0,0.0,0.0,0.0,0.0,0.0,0.0,0.0,0.0,0.0,0.0,0.0,0.0,0.0,0.0,0.0,0.0,0.0,0.0,0.0,-5.5247,-5.4912,0.0,0.0,0.0,0.0,-5.2692,-5.3157,-5.3706,-5.4377,-5.4505,-5.4825,-5.5464,-5.5559,-5.5943,-5.6689,-5.6721,-5.6721,-5.6721,-5.7425,-5.6834,-5.5031,-5.5771,-5.5096,-5.3403,-5.3359,-5.2984,-5.2383,-5.2522,-5.1738,-5.0288,-4.877,-4.8189,-4.8093,-4.7321,-4.7513,-4.8285,-4.9032,-4.8322,-4.7201,-4.7165,-4.5243,-4.3001,-4.3671,-4.2904,0.0,0.0,-4.4875,-4.4579,-4.8052,-4.8352,-4.7953,-4.8624,-4.8384,-4.7405,-4.5239,-4.4938,-4.523,0.0,-4.5654,-4.4867,-4.2756,0.0,-4.1468,-4.0184,-4.0549,-4.1209,-4.2022,-4.3434,-4.4353,-4.4353,-4.501,-4.5533,-4.5724,-4.5788,-4.5456,-4.4818,-4.4815,-4.4511,-4.3827,-4.3237,-4.2607,-4.1964,-4.1381,0.0,0.0,0.0,0.0,0.0,0.0,0.0,0.0,0.0,0.0,0.0,0.0,0.0,0.0,0.0,0.0,0.0,0.0,0.0,0.0,0.0,0.0,0.0,0.0,0.0,0.0,0.0,0.0,-5.5727,-5.6181,0.0,-5.5921,-5.4984,-5.4568,-5.4945,-5.544,-5.5811,-5.6089,-5.6522,-5.6645,-5.6477,-5.6446,-5.6384,-5.6246,-5.6246,-5.6029,-5.5519,-5.5813,-5.5132,-5.3729,-5.3837,-5.3254,-5.2185,-5.2002,-5.1592,-5.0954,-5.1036,-5.0483,-4.9599,-4.9496,-4.893,-4.8082,-4.7321,-4.7509,-4.8144,-4.7925,-4.7271,-4.6328,-4.5478,-4.4818,-4.4212,-4.4055,-4.4275,-4.4647,-4.5217,-4.5232,-4.546,-4.7184,-4.7318,-4.6944,-4.6765,-4.6586,-4.5752,-4.3336,-4.2535,-4.2525,-4.3255,-4.3939,-4.4137,-4.3396,-4.2302,-4.1406,-4.0927,-4.0671,-4.0607,-4.0926,-4.227,-4.3168,-4.3168,-4.3425,-4.3811,-4.4328,-4.4106,-4.3784,-4.3525,-4.3621,-4.3361,-4.2678,-4.2449,-4.1794,-4.0678,-4.0446,-3.9149,0.0,0.0,0.0,0.0,0.0,0.0,0.0,0.0,0.0,0.0,0.0,0.0,0.0,0.0,0.0,0.0,0.0,0.0,0.0,0.0,0.0,0.0,0.0,0.0,0.0,-5.4621,-5.5643,-5.648,-5.723,-5.7605,-5.7464,-5.6605,-5.6202,-5.6508,-5.6781,-5.69,-5.69,-5.7112,-5.698,-5.6282,-5.6252,-5.607,-5.5694,-5.5857,-5.5614,-5.4947,-5.4947,-5.42,-5.288,-5.2691,-5.2188,-5.1463,-5.1276,-5.0794,-5.0196,-5.0196,-4.9656,-4.8963,-4.9639,-4.9209,-4.8194,-4.7691,-4.7661,-4.7794,-4.7077,-4.6524,-4.5979,-4.4626,-4.4472,-4.4749,-4.4318,-4.4626,-4.5149,-4.5149,-4.5072,-4.517,-4.6119,-4.61,-4.5645,-4.4974,-4.4678,-4.3861,-4.1495,-4.0462,-4.0098,-4.0451,-4.1931,-4.3037,-4.2816,-4.1977,-4.1151,-4.0499,-4.0185,-4.0028,-4.0092,-4.1129,-4.1917,-4.1917,-4.1731,-4.1828,-4.2336,-4.2092,-4.1906,-4.1874,-4.2197,-4.2199,-4.1657,-4.1657,-4.0991,-3.9595,-3.8987,-3.7793,-3.598,0.0,0.0,0.0,0.0,0.0,0.0,0.0,0.0,0.0,0.0,0.0,0.0,0.0,0.0,0.0,0.0,0.0,0.0,0.0,0.0,0.0,0.0,0.0,-5.368,-5.493,-5.6142,-5.7543,-5.8089,-5.8138,-5.7728,-5.7501,-5.736,-5.7362,-5.7092,-5.696,-5.69,-5.6343,-5.5705,-5.5007,-5.4977,-5.4977,-5.4947,-5.5614,-5.5614,-5.4947,-5.4947,-5.4104,-5.2567,-5.2567,-5.2064,-5.1229,-5.1229,-5.0794,-5.0196,-5.0196,-4.9494,-4.8386,-4.903,-4.888,-4.8267,-4.8267,-4.7848,-4.7219,-4.6531,-4.6249,-4.6082,-4.4706,-4.4287,-4.4287,-4.4257,-4.3798,-4.3559,-4.4825,-4.4257,-4.3559,-4.4855,-4.4736,-4.4077,-4.3379,-4.2791,-4.1841,-3.9828,-3.8871,-3.8182,-3.7554,-3.9734,-4.1496,-4.0845,-4.1198,-4.0839,-3.878,-3.9057,0.0,-3.9487,-4.004,-4.047,-4.047,-3.9828,-3.9529,-3.9758,-3.9727,-3.9796,-3.9961,-4.0553,-4.0925,-4.0925,-4.0925,-4.0304,-3.8963,-3.718,-3.6083,-3.5692,0.0,0.0,0.0,0.0,0.0,0.0,0.0,0.0,0.0,0.0,0.0,0.0,0.0,0.0,0.0,0.0,0.0,0.0,0.0,0.0,0.0,-5.1226,-5.245,-5.358,-5.5054,-5.6405,-5.7486,-5.855,-5.921,-5.9344,-5.9058,-5.8893,-5.8896,-5.8663,-5.8083,-5.7092,-5.6483,-5.5611,-5.4449,-5.4419,-5.4198,-5.3717,-5.4379,-5.4379,-5.3687,-5.3687,-5.3218,-5.2282,-5.2282,-5.1875,-5.1229,-5.1229,-5.0794,-5.0196,-5.0196,-4.9763,-4.903,-4.87,-4.8147,-4.7578,-4.7578,-4.7459,-4.713,-4.5992,-4.5574,-4.5364,-4.3977,-4.3559,-4.3469,-4.303,-4.309,-4.317,-4.2611,-4.259,-4.2701,-4.3099,-4.3069,-4.277,-4.2073,-4.1773,-4.1235,-3.9738,-3.8512,-3.7764,-3.8063,-3.8787,-3.9446,-3.9743,-4.1096,-4.1633,-4.0088,-4.0028,0.0,-3.9485,-3.9576,-3.9696,-3.9696,-3.8676,-3.8197,-3.8715,-3.8322,-3.8296,-3.8819,-3.9031,-3.9329,-3.9814,-3.936,-3.8693,-3.7846,-3.6163,-3.5337,0.0,0.0,0.0,0.0,0.0,0.0,0.0,0.0,0.0,0.0,0.0,0.0,0.0,0.0,0.0,0.0,0.0,0.0,0.0,0.0,0.0,0.0,-5.2858,-5.4299,-5.501,-5.5939,-5.6847,-5.7745,-5.879,-5.9529,-5.9613,-5.9529,-5.9476,-5.9315,-5.9207,-5.8501,-5.7154,-5.6256,-5.5149,-5.3832,-5.3503,-5.3174,-5.2785,-5.3443,-5.3443,-5.2755,-5.2755,-5.2426,-5.1798,-5.1798,-5.1588,-5.1229,-5.1229,-5.069,-4.9823,-4.9823,-4.9284,0.0,0.0,0.0,0.0,0.0,-4.7309,-4.716,-4.6082,-4.5723,-4.5514,-4.4127,-4.3708,-4.3569,-4.268,-4.2611,-4.2701,-4.1683,-4.1692,-4.1991,-4.1991,-4.1991,-4.1811,-4.1115,-4.0965,-4.0606,-3.926,-3.8292,-3.7714,-3.7834,-3.8037,0.0,-3.8323,-4.0136,-4.1175,-4.0157,-3.9978,-3.9858,-3.9433,-3.9373,-3.932,-3.902,-3.8033,-3.7464,-3.7584,-3.7494,0.0,0.0,0.0,-3.899,-3.9373,-3.8482,0.0,0.0,0.0,0.0,0.0,0.0,0.0,0.0,-3.6218,-3.659,0.0,0.0,0.0,0.0,0.0,0.0,0.0,0.0,0.0,0.0,0.0,0.0,0.0,0.0,0.0,0.0,-5.4421,-5.6324,-5.69,-5.7109,-5.749,-5.8118,-5.8954,-5.9369,-5.9099,-5.9315,-5.9369,-5.9099,-5.9099,-5.8501,-5.7064,0.0,0.0,0.0,0.0,-5.2187,-5.2187,-5.2785,-5.2725,-5.2097,-5.2097,-5.1798,-5.1229,-5.1229,-5.1229,-5.1229,-5.1229,-5.0481,-4.9299,-4.9299,-4.8506,-4.7429,-4.8596,-4.8686,-4.8117,-4.7519,-4.7309,-4.7189,-4.6471,0.0,0.0,-4.4646,-4.4197,-4.3958,-4.268,-4.2291,-4.2141,-4.1354,-4.1145,-4.1145,-4.1175,-4.1107,-4.0958,-4.0315,-4.0166,-3.9838,-3.8609,-3.8169,-3.7783,-3.7192,-3.7411,-3.7451,-3.6858,-3.8638,-3.9875,-3.9218,-3.9128,-3.9128,-3.9128,-3.9128,-3.8889,-3.8297,0.0,0.0,-3.6503,-3.6977,-3.7336,-3.7336,-3.859,-3.9307,-3.9218,-3.8083,-3.7455,-3.7455,-3.6397,-3.5595,-3.5149,-3.6522,-3.6987,-3.6594,-3.6847,-3.7125,0.0,0.0,0.0,0.0,0.0,0.0,0.0,0.0,0.0,0.0,0.0,0.0,0.0,0.0,0.0,-5.295,-5.4458,-5.5699,-5.635,-5.7326,-5.8199,-5.8836,-5.9093,-5.9153,-5.9099,-5.9153,-5.9153,-5.9099,-5.9099,-5.8291,-5.6436,-5.5628,-5.4581,-5.3234,-5.2546,-5.2187,-5.2187,-5.2336,-5.2067,-5.1409,0.0,0.0,-5.1229,-5.1229,-5.1229,-5.1229,-5.1229,-5.0481,-4.9299,-4.9299,-4.8506,-4.7339,-4.7578,-4.7608,-4.7489,-4.7369,-4.7309,-4.713,-4.5903,-4.5484,-4.5274,-4.3917,-4.3469,-4.323,-4.1953,-4.1602,0.0,-4.0127,-3.9798,-3.9762,-3.9586,-3.9439,-3.9225,-3.8958,-3.8743,-3.8543,-3.8281,-3.7629,-3.7105,-3.6961,-3.6497,-3.6071,-3.5956,-3.7295,-3.8174,-3.7493,-3.7375,-3.7375,-3.7375,-3.7375,-3.7345,-3.7198,-3.6606,-3.6128,-3.601,-3.663,-3.7015,-3.7015,-3.8197,-3.867,-3.8138,-3.7872,-3.7689,-3.7689,-3.6985,-3.6615,-3.6697,-3.6969,-3.7331,-3.7754,-3.7858,-3.7875,0.0,0.0,0.0,0.0,0.0,0.0,0.0,0.0,0.0,0.0,0.0,-4.9423,-5.0736,0.0,-5.1874,-5.2876,-5.3881,-5.4717,-5.5322,-5.6188,-5.7274,-5.847,-5.8664,-5.8664,-5.8664,-5.8664,-5.8515,-5.8218,-5.8189,-5.7476,-5.5842,-5.51,-5.4298,-5.3317,-5.2307,-5.1803,-5.1803,-5.1619,-5.1292,-5.0852,-5.0917,-5.0947,-5.0852,-5.0917,-5.0738,-5.0347,-5.0488,-4.9773,-4.8432,-4.8194,-4.779,-4.7309,-4.7149,-4.7149,-4.7309,-4.7309,-4.7309,-4.713,-4.5753,-4.5304,-4.5065,-4.3738,-4.325,-4.2962,-4.2008,-4.1632,-4.1288,-3.9981,-3.9624,-3.9461,-3.8811,-3.8397,-3.8069,-3.7767,-3.7434,-3.7204,-3.7204,-3.6785,-3.6406,-3.6406,-3.5525,-3.4799,-3.4799,-3.4916,-3.5311,-3.6193,-3.6357,-3.6357,-3.6357,-3.6357,-3.6241,-3.5886,-3.5566,-3.5212,-3.4864,-3.5735,-3.6577,-3.7215,-3.7571,-3.76,-3.7281,-3.6642,-3.6286,-3.6286,-3.6038,-3.5968,-3.6038,-3.6781,-3.7279,-3.7499,-3.7571,-3.7853,0.0,0.0,0.0,0.0,0.0,0.0,0.0,-4.7898,-4.8208,-4.8347,-4.9206,-5.015,-5.0872,-5.14,-5.1903,-5.2575,-5.3136,-5.3668,-5.4257,-5.4816,-5.5762,-5.7156,-5.7523,-5.7666,-5.7666,-5.7666,-5.7433,-5.679,-5.676,-5.6176,-5.489,-5.4276,-5.3721,-5.3107,-5.1792,-5.1119,-5.1247,-5.0795,-5.0537,-5.0405,-5.0537,-5.0537,-5.0453,-5.0537,-5.0183,-4.9422,-4.9373,-4.8617,-4.7403,-4.7022,-4.6975,-4.7222,-4.6931,-4.6887,-4.6901,-4.6943,-4.6883,-4.6705,-4.5322,-4.4846,-4.4638,-4.3437,-4.29,-4.2621,-4.1932,-4.1596,-4.1174,-3.9885,-3.9572,-3.9311,-3.8225,-3.7615,-3.7165,-3.6777,-3.6318,-3.5974,-3.5974,-3.5802,-3.5669,-3.5669,-3.4561,-3.3661,-3.3661,-3.2664,-3.2609,-3.4772,-3.5058,-3.5058,-3.5058,-3.5058,-3.4888,-3.4342,-3.4285,-3.4136,-3.3853,-3.4787,-3.5891,-3.7137,-3.6665,-3.6325,-3.6325,-3.5249,-3.4654,-3.4654,-3.4733,-3.4897,-3.5011,-3.6184,-3.6756,-3.6684,-3.6645,-3.7284,-4.5407,-4.587,-4.6924,-4.7595,-4.914,-5.0437,0.0,-5.0326,-5.0547,-5.1015,-5.1292,-5.1568,-5.2259,-5.204,-5.1902,-5.248,-5.2704,-5.301,-5.3533,-5.42,-5.4453,-5.419,-5.5074,-5.5703,-5.5703,-5.5703,-5.5478,-5.4827,-5.4799,-5.429,-5.3073,-5.2931,-5.262,-5.1943,-5.0646,-5.0256,-5.0749,-5.0072,-4.9883,-5.0135,-4.9883,-4.9883,-5.0135,-4.9834,-4.9533,-4.908,-4.7984,-4.7261,-4.6874,-4.6711,-4.6756,-4.6931,-4.6712,-4.624,-4.5631,-4.5552,-4.5507,-4.5331,-4.3799,-4.3277,-4.3131,-4.2403,-4.2005,-4.1724,-4.1047,-4.0682,-4.0192,-3.9,-3.8656,-3.8396,-3.7325,-3.6727,-3.6334,-3.5936,-3.5454,-3.5128,-3.5128,-3.4991,-3.4827,-3.4827,-3.3739,-3.283,-3.283,-3.1885,-3.1447,-3.2373,-3.2509,-3.2509,-3.2509,-3.2509,-3.2482,-3.24,-3.24,-3.2809,-3.3782,-3.4001,-3.4574,-3.5747,-3.5295,-3.5006,-3.5006,-3.4416,-3.4098,-3.4098,-3.4098,-3.442,-3.5085,-3.5234,-3.5554,-3.5971,-3.5526,-3.5909,-4.5066,-4.5665,-4.6891,-4.7424,-4.94,-5.1136,-5.0815,-5.1269,-5.1803,-5.207,-5.2391,-5.2604,-5.2585,-5.2051,-5.1703,-5.1971,-5.2024,-5.2165,-5.2379,-5.2968,-5.2994,-5.2058,-5.2143,-5.2657,-5.3768,-5.419,-5.3937,-5.302,-5.3241,-5.2907,-5.1738,-5.1627,-5.1321,-5.0709,-4.9818,-4.9364,-4.9474,-4.9281,-4.9071,-4.893,-4.9071,-4.8899,-4.8436,-4.8554,-4.8153,-4.7315,-4.6096,-4.5602,-4.5591,-4.5681,-4.5866,-4.5987,-4.5325,-4.4748,-4.43,-4.4566,-4.4407,-4.3849,-4.242,-4.1836,-4.1636,-4.0971,-4.0646,-4.0376,-4.0081,-3.9827,-3.9406,-3.8214,-3.7882,-3.751,-3.6142,-3.5521,-3.5073,-3.4662,-3.4204,-3.3894,-3.3894,-3.381,-3.3768,-3.3768,-3.2762,-3.1954,-3.1954,-3.1033,-3.0432,-3.0722,-3.1172,-3.1468,-3.1468,-3.1468,-3.1468,-3.1468,-3.1468,-3.1814,-3.2638,-3.2756,-3.3063,-3.3834,-3.3395,-3.3102,-3.3102,-3.2581,-3.2262,-3.2262,-3.2695,-3.3254,-3.3856,-3.4012,-3.4308,-3.4714,-3.3841,-3.3603,-4.4708,-4.5524,-4.6891,-4.7623,-4.9845,-5.1753,-5.1361,-5.204,-5.2694,-5.2537,-5.272,-5.2772,-5.2328,-5.1622,-5.1282,-5.1779,-5.1701,-5.1727,-5.204,-5.2328,-5.2119,-5.1126,-5.0342,-5.0419,-5.1673,-5.228,-5.2171,-5.1105,-5.1595,-5.1431,-5.0234,-5.0179,-4.988,-4.9253,-4.8627,-4.819,-4.7986,-4.8126,-4.8021,-4.7773,-4.7853,-4.7544,-4.6851,-4.6884,-4.6353,-4.5382,-4.4461,-4.4087,-4.4078,-4.4434,-4.4666,-4.4748,-4.3758,-4.3092,-4.274,-4.2701,-4.2562,-4.2094,-4.0862,-4.0326,-4.0083,-3.9628,-3.9316,-3.9112,-3.8993,-3.8762,-3.837,-3.7144,-3.6822,-3.6496,-3.5092,-3.4481,-3.4105,-3.3725,-3.3368,-3.3111,-3.3111,-3.3111,-3.3111,-3.3111,-3.2164,-3.1386,-3.1386,-3.0507,-2.9804,-2.9804,-3.0279,-3.0698,-3.0698,-3.0698,-3.0698,-3.0698,-3.0698,-3.0931,-3.1474,-3.1526,-3.1759,-3.2303,-3.1837,-3.1526,-3.1526,-3.0983,-3.0698,-3.0698,-3.1239,-3.1863,-3.2553,-3.2594,-3.2882,-3.3401,-3.228,-3.1681,-4.4785,-4.6173,-4.7597,-4.8747,-5.076,-5.2459,-5.2459,-5.2929,-5.3217,-5.2616,-5.204,-5.1648,-5.1622,-5.0707,-5.0498,-5.2197,-5.1962,-5.2014,-5.3191,-5.2851,-5.2276,-5.1648,-5.0577,-4.9748,0.0,-4.973,-4.9808,-4.9232,-4.9704,-4.952,-4.8367,-4.8289,-4.8027,-4.7393,-4.69,-4.6576,-4.657,-4.6488,-4.661,-4.6846,-4.601,-4.5738,-4.6017,-4.476,-4.4086,-4.3835,-4.343,-4.2964,-4.2501,-4.3033,-4.3197,-4.3115,-4.2276,-4.1516,-4.0738,-3.9438,-3.9527,-4.0151,-3.8961,-3.8567,-3.8567,-3.8567,-3.8387,-3.8126,-3.7616,-3.7253,-3.6839,-3.5686,-3.5345,-3.5172,-3.4344,-3.3937,-3.3683,-3.3471,-3.324,-3.3111,-3.3111,-3.3111,-3.3111,-3.3111,-3.2164,-3.1386,-3.1386,-3.0507,-2.9804,-2.9804,-2.9818,-2.9843,-2.9843,-2.9843,-2.9843,-2.9843,-2.9843,-3.0044,-3.0597,-3.0647,-3.0874,-3.1402,-3.0949,-3.0647,-3.0647,-3.0119,-2.9843,-2.9843,-2.9843,-3.0371,-3.1427,-3.0924,-3.1226,-3.2231,-3.115,-3.0647,-4.512,-4.6922,-4.8773,-4.9923,-5.1675,-5.3191,-5.3556,-5.4105,-5.4262,-5.3295,-5.2616,-5.2067,-5.1675,-5.1282,-5.1335,-5.2328,-5.2955,-5.3347,-5.34,-5.353,-5.3112,-5.1753,-5.0943,0.0,0.0,0.0,0.0,-4.7963,-4.8433,-4.8433,-4.7649,-4.7989,-4.7754,-4.6787,-4.6578,-4.6225,-4.5632,-4.5955,-4.5897,-4.5388,-4.4318,-4.3963,-4.4161,-4.3202,-4.2851,-4.2922,-4.2391,-4.2115,-4.194,-4.171,-4.1598,-4.1491,-4.0292,-3.9591,-3.9038,-3.7835,-3.7598,-3.7826,-3.7459,-3.7222,-3.7129,-3.7129,-3.678,-3.6381,-3.6177,-3.5825,-3.5321,-3.4583,-3.4354,-3.4226,-3.3606,-3.3368,-3.3283,-3.324,-3.3154,-3.3111,-3.3111,-3.3111,-3.3111,-3.3111,-3.2164,-3.1386,-3.1386,-3.0507,-2.9804,-2.9804,-2.9804,-2.9804,-2.9804,-2.9804,-2.9804,-2.9804,-2.9804,-2.9854,-3.0055,-3.008,-3.0156,-3.0331,-3.0156,-3.008,-3.008,-2.9905,-2.9804,-2.9804,-2.9804,-3.0156,-3.0884,-3.0331,-3.0457,-3.1135,-3.0407,-3.008,-4.6608,-4.84,-4.9969,-5.0795,-5.2062,-5.3164,-5.3504,-5.4053,-5.4158,-5.2981,-5.1962,-5.123,-5.1021,-5.0655,-5.076,-5.1962,-5.3138,-5.387,-5.3713,-5.3818,-5.3504,-5.238,-5.1387,-5.0263,0.0,0.0,0.0,-4.7074,-4.7545,-4.7728,-4.7304,-4.7885,-4.7675,-4.6525,-4.6473,-4.6035,-4.5018,-4.5368,-4.5076,-4.4071,-4.3196,-4.2664,-4.2575,-4.2054,-4.1895,-4.1918,-4.1571,-4.1193,-4.0835,-4.0418,-4.0109,-3.9699,-3.8622,-3.8144,-3.783,-3.6937,-3.6593,-3.6593,-3.6593,-3.6499,-3.6405,-3.6405,-3.5981,-3.5458,-3.5257,-3.4726,-3.4022,-3.3445,-3.3294,-3.3219,-3.2867,-3.2918,-3.3111,-3.3111,-3.3111,-3.3111,-3.3111,-3.3111,-3.3111,-3.3111,-3.2164,-3.1386,-3.1386,-3.0507,-2.9804,-2.9804,-2.9804,-2.9804,-2.9804,-2.9804,-2.9804,-2.9804,-2.9804,-2.9804,-2.9804,-2.9804,-2.9804,-2.9804,-2.9804,-2.9804,-2.9804,-2.9804,-2.9804,-2.9804,-2.9804,-3.0055,-3.0608,-3.0055,-3.008,-3.0608,-3.0055,-2.9804,-4.9189,-5.0381,-5.1096,-5.138,-5.1987,-5.2511,-5.2537,-5.2981,-5.3034,-5.1805,-5.0211,-4.9191,-4.9662,-4.8878,-4.8878,-5.11,-5.2563,-5.3556,-5.4053,-5.3739,-5.3426,-5.3347,-5.1884,-5.0603,-4.9923,-4.8355,0.0,-4.6525,0.0,-4.7226,-4.7174,-4.7806,-4.7623,-4.6473,-4.6421,-4.5872,-4.4696,-4.4617,-4.4042,-4.2971,-4.2396,-4.1847,-4.1324,-4.1324,-4.1147,-4.0896,-4.087,-4.0259,-3.9297,-3.922,-3.8716,-3.7914,-3.7362,-3.7136,-3.7086,-3.6606,-3.6405,-3.6405,-3.6405,-3.6405,-3.6405,-3.6405,-3.5981,-3.5357,-3.4831,-3.3922,-3.2918,-3.2365,-3.219,-3.219,-3.2215,-3.2616,-3.3043,-3.3111,-3.3111,-3.3111,-3.3111,-3.3111,-3.3111,-3.3111,-3.2164,-3.1361,-3.1311,-3.0457,-2.9804,-2.9804,-2.9804,-2.9804,-2.9804,-2.9804,-2.9804,-2.9804,-2.9804,-2.9804,-2.9804,-2.9804,-2.9804,-2.9804,-2.9804,-2.9804,-2.9804,-2.9804,-2.9804,-2.9804,-2.9804,-3.0055,-3.0583,-3.0055,-3.0055,-3.0557,-3.003,-2.9804,-5.1239,-5.2151,-5.291,-5.3163,-5.2879,-5.2616,-5.306,-5.3295,-5.2929,-5.1335,-4.961,-4.8329,-4.8041,-4.7754,-4.8015,-4.9479,-5.1779,-5.3295,-5.2981,-5.3556,-5.3687,-5.2825,-5.2328,-5.1335,-4.9479,-4.8486,0.0,0.0,-4.6604,-4.6525,-4.6081,-4.6996,-4.7022,-4.5872,-4.5846,-4.5271,-4.4095,-4.3232,-4.2683,-4.2369,-4.1821,-4.1455,-4.1324,-4.1324,-4.1147,-4.087,-4.0256,-3.9749,-3.922,-3.8162,-3.7635,-3.7337,-3.6784,-3.6606,-3.6606,-3.6455,-3.6405,-3.6405,-3.6405,-3.6405,-3.6405,-3.6405,-3.5705,-3.4856,-3.4731,-3.3646,-3.2416,-3.2265,-3.1913,-3.1687,-3.2114,-3.2315,-3.2541,-3.2968,-3.3111,-3.3111,-3.3111,-3.3111,-3.3111,-3.3111,-3.2164,-3.1135,-3.0331,-2.998,-2.9804,-2.9804,-2.9804,-2.9804,-2.9804,-2.9804,-2.9804,-2.9804,-2.9804,-2.9804,-2.9804,-2.9804,-2.9804,-2.9804,-2.9804,-2.9804,-2.9804,-2.9804,-2.9804,-2.9804,-2.9804,-2.9854,-3.0005,-2.9854,-2.9854,-3.0005,-2.9854,-2.9804,-5.3385,-5.3766,-5.3839,-5.3464,-5.2571,-5.1779,-5.1831,-5.1675,-5.1152,-4.9897,-4.8068,-4.6734,-4.6917,-4.6761,-4.7127,-4.8799,-5.1073,-5.2589,-5.2511,-5.2825,-5.2825,-5.2171,-5.1884,-5.1047,-4.9244,-4.8773,-4.7989,0.0,-4.6473,-4.6342,-4.6003,-4.6839,-4.6756,-4.5663,-4.5581,-4.5062,-4.3939,-4.2787,-4.2211,-4.2211,-4.1585,-4.1324,-4.1298,-4.1036,-4.0733,-4.0332,0.0,-3.8936,-3.8337,-3.7535,-3.7036,-3.6832,-3.6531,-3.6405,-3.6405,-3.6405,-3.6405,-3.6405,-3.6405,-3.6207,-3.6006,-3.6006,-3.5429,-3.4675,-3.4424,-3.3194,-3.1863,-3.1863,-3.1461,-3.116,-3.1712,-3.2039,-3.2365,-3.2943,-3.3111,-3.3111,-3.3111,-3.3111,-3.2943,-3.2441,-3.1813,-3.106,-2.998,-2.9804,-2.9804,-2.9804,-2.9804,-2.9804,-2.9804,-2.9804,-2.9804,-2.9804,-2.9804,-2.9804,-2.9804,-2.9804,-2.9804,-2.9804,-2.9804,-2.9804,-2.9804,-2.9804,-2.9804,-2.9804,-2.9804,-2.9804,-2.9804,-2.9804,-2.9804,-2.9804,-2.9804,-2.9804,-5.5468,-5.5221,-5.4359,-5.3102,-5.177,-5.0603,-4.9949,-4.9348,-4.8773,-4.8094,-4.6159,-4.4957,-4.6055,-4.5898,-4.6342,-4.8512,-5.0394,-5.1727,-5.2093,-5.1779,-5.1465,-5.1387,-5.0969,-5.0263,-4.9191,-4.9139,-4.846,-4.6734,-4.6604,-4.6499,-4.6264,-4.6787,-4.6547,-4.5477,-4.5294,-4.48,-4.3781,-4.2631,-4.2107,-4.2107,-4.1559,-4.1272,-4.1167,-4.0644,-4.0089,-3.9567,-3.8928,-3.81,-3.7186,-3.7111,-3.6832,-3.6405,-3.6405,-3.6405,-3.6405,-3.6405,-3.6405,-3.6405,-3.6405,-3.6056,-3.5608,-3.5533,-3.5082,-3.4525,-3.4048,-3.2717,-3.1386,-3.1386,-3.0959,-3.0633,-3.1235,-3.1738,-3.2265,-3.2918,-3.3111,-3.3111,-3.3111,-3.3111,-3.2742,-3.1612,-3.1386,-3.106,-2.998,-2.9804,-2.9804,-2.9804,-2.9804,-2.9804,-2.9804,-2.9804,-2.9804,-2.9804,-2.9804,-2.9804,-2.9804,-2.9804,-2.9804,-2.9804,-2.9804,-2.9804,-2.9804,-2.9804,-2.9804,-2.9804,-2.9804,-2.9804,-2.9804,-2.9804,-2.9804,-2.9804,-2.9804,-2.9804,-5.6971,-5.6107,-5.4951,-5.3782,-5.2131,-5.0524,-4.9453,-4.8773,-4.8041,-4.6996,-4.5297,-4.4225,-4.4905,-4.5294,-4.6025,-4.7357,-4.9871,-5.1309,-5.0446,-5.0681,-5.0734,-5.0237,-5.0106,-4.9793,-4.9139,-4.9479,0.0,0.0,-4.7179,-4.6552,-4.5114,-4.5555,-4.5611,-4.485,-4.3964,-4.3389,-4.318,-4.203,-4.1455,-4.1455,-4.135,-4.1063,-4.0566,-4.0461,-3.9855,-3.8902,-3.8364,0.0,-3.7161,-3.6732,-3.648,-3.6405,-3.6405,-3.6405,-3.6405,-3.6405,-3.6405,-3.6405,-3.6405,-3.6355,-3.6132,-3.5633,-3.4831,-3.4022,-3.3922,-3.2717,-3.1386,-3.1386,-3.0683,-3.0156,-3.1135,-3.1461,-3.1788,-3.2842,-3.3111,-3.3111,-3.3111,-3.3111,-3.2742,-3.1612,-3.1386,-3.106,-2.998,-2.9804,-2.9804,-2.9804,-2.9804,-2.9804,-2.9804,-2.9804,-2.9804,-2.9804,-2.9804,-2.9804,-2.9804,-2.9804,-2.9804,-2.9804,-2.9804,-2.9804,-2.9804,-2.9804,-2.9804,-2.9804,-2.9804,-2.9804,-2.9804,-2.9804,-2.9804,-2.9804,-2.9804,-2.9804,-5.7828,-5.6788,-5.5448,-5.38,-5.1905,-4.9957,-4.8332,-4.7136,-4.6133,-4.5297,-4.4043,-4.3154,-4.3729,-4.433,-4.5088,-4.6208,-4.8355,-4.9636,-4.9087,-4.9244,-4.9322,-4.9035,-4.9008,-4.8904,-4.8643,-4.9139,-4.8747,-4.7022,-4.6891,-4.6395,-4.5216,-4.5166,-4.4879,-4.4304,-4.3467,-4.2866,-4.2579,-4.1742,-4.1324,-4.1324,-4.101,-4.0697,-4.0409,-3.9808,-3.9103,-3.8338,-3.7775,-3.7235,-3.6782,-3.6505,-3.6405,-3.6405,-3.6405,-3.6405,-3.6405,-3.6405,-3.6405,-3.6405,-3.6405,-3.6182,-3.5881,-3.5583,-3.4956,-3.4223,-3.3646,-3.2491,-3.1386,-3.1386,-3.0608,-3.003,-3.111,-3.1386,-3.1687,-3.286,-3.3111,-3.3111,-3.3111,-3.3111,-3.2842,-3.1989,-3.1813,-3.1486,-3.0407,-3.0231,-3.0131,-2.9829,-2.9804,-2.9804,-2.9804,-2.9804,-2.9804,-2.9804,-2.9804,-2.9804,-2.9804,-2.9804,-2.9804,-2.9804,-2.9804,-2.9804,-2.9804,-2.9804,-2.9804,-2.9804,-2.9804,-2.9804,-2.9804,-2.9804,-2.9804,-2.9804,-2.9804,-2.9955,-5.8297,-5.7414,-5.5966,-5.3839,-5.164,-4.9431,-4.7227,-4.5465,-4.4199,-4.3624,-4.2735,-4.216,-4.2735,-4.331,-4.4068,-4.5245,-4.6865,-4.7963,-4.7832,-4.7937,-4.7963,-4.7832,-4.7937,-4.8015,-4.8015,-4.8669,0.0,-4.6604,-4.6238,-4.5898,-4.5454,-4.4879,-4.433,-4.3885,-4.3206,-4.2631,-4.2211,-4.1611,-4.1324,-4.1298,-4.0697,-4.0357,-4.02,-3.9133,-3.8329,-3.7775,-3.7266,-3.6781,0.0,-3.6405,-3.6405,-3.6405,-3.6405,-3.6405,-3.6405,-3.6405,-3.6405,-3.6405,-3.6405,-3.6081,-3.5633,-3.5408,-3.4956,-3.4374,-3.352,-3.239,-3.1386,-3.1386,-3.0608,-3.003,-3.111,-3.1386,-3.1687,-3.286,-3.3111,-3.3111,-3.3111,-3.3111,-3.2893,-3.2315,-3.2215,-3.1863,-3.0809,-3.0608,-3.0432,-2.988,-2.9804,-2.9804,-2.9804,-2.9804,-2.9804,-2.9804,-2.9804,-2.9804,-2.9804,-2.9804,-2.9804,-2.9804,-2.9804,-2.9804,-2.9804,-2.9804,-2.9804,-2.9804,-2.9804,-2.9804,-2.9804,-2.9804,-2.9804,-2.9804,-2.9905,-3.0206,-5.8719,-5.7889,-5.6528,-5.4135,-5.1822,-4.9384,-4.6706,-4.4573,-4.3023,-4.2499,-4.1821,-4.1559,-4.2134,-4.2709,-4.3467,-4.4617,-4.6264,-4.7231,-4.6708,-4.7074,-4.7231,-4.6708,-4.71,-4.7357,-4.7357,-4.8433,-4.8355,-4.6604,-4.548,-4.4853,-4.48,-4.4278,-4.3912,-4.3912,-4.2866,-4.2264,-4.2211,-4.1611,-4.1324,-4.1298,-4.0697,-4.0148,-3.9651,-3.8834,-3.7955,-3.7185,-3.6875,-3.664,0.0,-3.6405,-3.6405,-3.6405,-3.6405,-3.6405,-3.6405,-3.6405,-3.6405,-3.6405,-3.6405,-3.638,-3.6179,-3.5127,-3.4424,-3.3947,-3.3847,-3.2692,-3.1386,-3.1386,-3.0608,-3.003,-3.111,-3.1386,-3.1687,-3.286,-3.3111,-3.3111,-3.3111,-3.3111,-3.2893,-3.2315,-3.2215,-3.1863,-3.0809,-3.0608,-3.0432,-2.988,-2.9804,-2.9804,-2.9804,-2.9804,-2.9804,-2.9804,-2.9804,-2.9804,-2.9804,-2.9804,-2.9804,-2.9804,-2.9804,-2.9804,-2.9804,-2.9804,-2.9804,-2.9804,-2.9804,-2.9804,-2.9804,-2.9804,-2.9804,-2.9804,-3.0306,-3.0557,-5.8035,-5.7955,-5.7143,-5.4486,-5.2008,-4.9391,-4.6428,-4.4092,-4.2343,-4.1768,-4.1481,-4.1376,-4.1611,-4.2108,-4.2657,-4.3101,-4.4643,-4.5558,-4.4983,-4.5715,-4.6212,-4.6003,-4.6159,-4.6447,0.0,0.0,-4.7074,-4.6055,-4.5192,-4.4668,-4.4668,-4.4173,-4.3702,-4.3363,-4.2579,-4.1953,-4.1435,-4.1151,-4.0997,-4.0795,-3.9866,-3.9346,-3.9065,-3.8114,-3.7313,-3.6875,-3.6756,-3.6593,0.0,-3.6405,-3.6405,-3.6405,-3.6405,-3.6405,-3.6405,-3.6405,-3.6405,-3.6405,-3.6405,-3.6132,-3.5805,-3.5307,-3.4399,-3.3395,-3.3395,-3.2466,-3.1386,-3.1386,-3.0608,-2.9955,-3.0733,-3.1411,-3.2089,-3.2893,-3.3111,-3.3111,-3.3111,-3.3111,-3.3061,-3.2767,-3.2742,-3.239,-3.126,-3.1085,-3.0783,-2.993,-2.9804,-2.9804,-2.9804,-2.9804,-2.9804,-2.9804,-2.9804,-2.9804,-2.9804,-2.9804,-2.9804,-2.9804,-2.9804,-2.9804,-2.9804,-2.9804,-2.9804,-2.9804,-2.9804,-2.9804,-2.9804,-2.9804,-2.9955,-3.0306,-3.0507,-3.0959,-5.7368,-5.7956,-5.7778,-5.5109,-5.2263,-4.9456,-4.6538,-4.3817,-4.1794,-4.1402,-4.1324,-4.1324,-4.1324,-4.1638,-4.1977,-4.2185,-4.3337,-4.4147,-4.3912,-4.4748,-4.5297,-4.514,-4.5114,-4.5271,-4.5663,-4.5816,-4.5705,-4.536,-4.4843,-4.4559,-4.4559,-4.3963,-4.3441,-4.3023,-4.2317,-4.1615,-4.0896,-4.0896,-4.0718,-4.0336,-3.931,-3.8746,-3.8663,-3.7497,-3.6875,-3.6709,-3.6615,-3.6546,0.0,-3.6405,-3.6405,-3.6405,-3.6405,-3.6405,-3.6405,-3.6405,-3.6405,-3.6405,-3.6405,-3.6006,-3.5483,-3.5307,-3.4299,-3.3086,-3.2867,-3.2039,-3.116,-3.116,-3.0608,-3.0131,-3.0507,-3.1411,-3.2315,-3.2717,-3.2943,-3.3111,-3.3111,-3.3111,-3.3061,-3.2842,-3.2817,-3.2466,-3.1361,-3.116,-3.0859,-2.993,-2.9804,-2.9804,-2.9804,-2.9804,-2.9804,-2.9804,-2.9804,-2.9804,-2.9804,-2.9804,-2.9804,-2.9804,-2.9804,-2.9804,-2.9804,-2.9804,-2.9804,-2.9804,-2.9804,-2.9804,-2.9804,-2.9955,-3.0231,-3.0633,-3.0934,-3.1587,-5.6944,-5.8082,-5.8513,-5.6018,-5.2793,-4.955,-4.7068,-4.3798,-4.1324,-4.1324,-4.1324,-4.1324,-4.1324,-4.1324,-4.1507,-4.2133,-4.2657,-4.3232,-4.3807,-4.4382,-4.4619,-4.4017,-4.3939,-4.3939,-4.3965,-4.4165,-4.4436,-4.4699,-4.4458,0.0,-4.4313,-4.3491,-4.3023,-4.3023,-4.1925,-4.1174,-4.0896,-4.0896,-4.0611,-3.9992,-3.9203,-3.8637,-3.8381,-3.7224,-3.6709,-3.6662,-3.6499,-3.6405,0.0,-3.6405,-3.6405,-3.6405,-3.6405,-3.6405,-3.6405,-3.6405,-3.6405,-3.6405,-3.6405,-3.6006,-3.5408,-3.4856,-3.3972,-3.2968,-3.239,-3.1461,-3.0633,-3.0633,-3.0608,-3.0608,-3.0608,-3.1411,-3.2215,-3.2215,-3.2667,-3.3111,-3.3111,-3.3111,-3.2893,-3.234,-3.2215,-3.1888,-3.0809,-3.0633,-3.0432,-2.988,-2.9804,-2.9804,-2.9804,-2.9804,-2.9804,-2.9804,-2.9804,-2.9804,-2.9804,-2.9804,-2.9804,-2.9804,-2.9804,-2.9804,-2.9804,-2.9804,-2.9804,-2.9804,-2.9804,-2.9804,-2.9804,-3.0331,-3.0608,-3.0633,-3.1712,-3.2516,-5.4251,-5.5718,-5.6512,-5.4006,-5.1439,-4.8878,-4.6401,-4.3502,-4.1193,-4.0775,-4.0697,-4.0592,-4.0226,-4.0148,-4.02,-4.0383,-4.088,-4.1455,-4.2056,-4.2971,-4.365,-4.3859,-4.4064,-4.4136,0.0,0.0,-4.4061,-4.413,-4.3672,-4.3501,-4.3663,-4.2761,-4.2424,-4.2945,-4.1899,-4.1047,-4.0643,-4.0408,-4.0024,-3.9446,-3.8574,-3.8085,-3.7811,-3.7035,-3.664,-3.6499,-3.6452,-3.6405,0.0,-3.6405,-3.6405,-3.6405,-3.6405,-3.6405,-3.6405,-3.6405,-3.6132,-3.5805,-3.5805,-3.4951,-3.3822,-3.3646,-3.2591,-3.1361,-3.1185,-3.0884,-3.0532,-3.0156,-3.0055,-3.0131,-3.0507,-3.1135,-3.1738,-3.2114,-3.2641,-3.3111,-3.3111,-3.3111,-3.3018,-3.2842,-3.2792,-3.2441,-3.1336,-3.1461,-3.1411,-3.0482,-3.0658,-3.0884,-3.0884,-3.0884,-3.0884,-3.0884,-3.0884,-3.0583,-2.9854,-2.9804,-2.9804,-2.9804,-2.9804,-2.9955,-3.0331,-3.0357,-3.0532,-3.0884,-3.0884,-3.0884,-3.0884,-3.106,-3.1336,-3.1712,-3.2466,-3.2893,-5.2067,-5.3713,-5.457,-5.2536,-5.0262,-4.7954,-4.5962,-4.3291,-4.1141,-4.054,-4.0409,-4.0252,-3.9703,-3.9503,-3.9455,-3.9455,-3.9618,-4.0089,-4.0893,-4.1801,-4.2683,-4.3462,-4.3715,-4.3759,0.0,-4.3512,-4.3449,-4.3543,-4.3143,-4.292,-4.3056,-4.2162,-4.188,-4.2372,-4.1591,-4.0946,-4.0517,-4.0003,-3.9493,-3.9041,-3.81,-3.7566,-3.7384,-3.6839,-3.6546,-3.6405,-3.6405,-3.6405,0.0,-3.6405,-3.6405,-3.6405,-3.6405,-3.6405,-3.6405,-3.6405,-3.6006,-3.5508,-3.5508,-3.4449,-3.3111,-3.3111,-3.1964,-3.0583,-3.0357,-3.0306,-3.0231,-2.988,-2.9804,-2.9905,-3.0482,-3.1009,-3.1537,-3.2089,-3.2641,-3.3111,-3.3111,-3.3111,-3.3018,-3.2792,-3.2742,-3.239,-3.1286,-3.1537,-3.1612,-3.0733,-3.106,-3.1386,-3.1386,-3.1386,-3.1386,-3.1386,-3.1386,-3.111,-3.0457,-3.0167,-2.9888,-2.9663,-2.9785,-3.0034,-3.0463,-3.0608,-3.0817,-3.1263,-3.1182,-3.1182,-3.1263,-3.1571,-3.1989,-3.2541,-3.2918,-3.3111,0.0,-5.1858,-5.2659,-5.156,-4.9173,-4.6862,-4.5656,-4.3183,0.0,-4.0409,-4.0305,-4.0122,-3.9525,-3.9228,-3.9084,-3.9088,-3.8868,-3.9133,-4.0286,-4.1055,-4.1876,-4.2951,-4.3025,-4.2917,-4.2565,-4.2565,-4.2659,-4.2942,-4.2659,-4.2439,-4.2493,-4.1717,-4.1337,-4.1337,-4.1002,-4.0744,-4.044,-3.9676,-3.9116,-3.8777,-3.7703,-3.7146,-3.7062,-3.664,-3.6405,0.0,-3.6405,-3.6405,0.0,-3.6405,-3.6405,-3.6405,-3.6405,-3.638,-3.6355,-3.6355,-3.5931,-3.5382,-3.5382,-3.4349,-3.2986,-3.291,-3.1813,-3.0457,-2.9955,-2.9804,-2.9804,-2.9804,-2.9804,-2.9905,-3.0432,-3.0959,-3.1512,-3.2039,-3.2616,-3.3111,-3.3111,-3.3111,-3.2918,-3.2365,-3.2265,-3.1938,-3.0909,-3.116,-3.1336,-3.0809,-3.116,-3.1512,-3.1512,-3.1512,-3.1512,-3.1512,-3.1471,-3.1446,-3.142,-3.0757,-3.0114,-2.9489,-2.9736,-3.0056,-3.0347,-3.0573,-3.0868,-3.1125,-3.0893,-3.0893,-3.1208,-3.1914,-3.2541,-3.3111,-3.3111,-3.3111,-4.7266,0.0,-5.006,-4.9402,-4.7528,-4.5569,0.0,-4.1947,-3.9834,-3.9233,-3.9102,-3.8898,-3.8163,-3.794,-3.7955,-3.8178,-3.8159,-3.8495,-3.9671,-4.108,-4.2413,-4.3566,-4.3449,-4.3259,-4.3203,-4.2659,-4.2318,-4.2389,-4.1509,-4.1062,-4.1301,-4.0745,-4.0491,-4.0696,-4.0466,-4.0287,-4.0185,-3.9343,-3.8781,-3.8458,-3.7562,-3.7002,-3.6803,-3.6662,-3.6546,-3.6405,-3.6405,-3.6405,-3.6405,-3.6405,-3.6405,-3.6405,-3.6405,-3.6107,-3.5683,-3.5683,-3.5127,-3.4299,-3.4299,-3.3194,-3.1637,-3.0834,-3.0306,-2.9955,-2.9829,-2.9804,-2.9804,-2.9804,-2.9804,-2.9829,-2.9955,-3.0683,-3.1411,-3.1562,-3.234,-3.3111,-3.3111,-3.3111,-3.3086,-3.2893,-3.2867,-3.2641,-3.1964,-3.2315,-3.2491,-3.1913,-3.2315,-3.2692,-3.2692,-3.2496,-3.2411,-3.2411,-3.2265,-3.2006,-3.1519,-3.1125,-3.063,-2.9883,-3.0112,-3.042,-3.0683,-3.0955,-3.1223,-3.1482,-3.1438,-3.1612,-3.2093,-3.2646,-3.2943,-3.3111,-3.3111,-3.3111,-4.5783,-4.686,-4.7865,-4.7672,-4.6039,-4.4284,-4.3416,-4.1355,-3.9442,-3.8841,-3.8616,-3.8366,-3.7609,-3.732,-3.7241,-3.7687,-3.7871,-3.851,-4.0159,-4.1455,-4.2598,-4.3741,-4.37,-4.3563,0.0,-4.272,-4.2213,-4.2213,-4.1128,-4.0553,-4.0711,-4.0181,-3.9981,-4.016,-3.9981,-3.9981,-4.0083,-3.9017,-3.8409,-3.8409,-3.7315,-3.6781,-3.6709,-3.6593,-3.6499,-3.6405,-3.6405,-3.6405,-3.6405,-3.6405,-3.6405,-3.6405,-3.6405,-3.6031,-3.5508,-3.5508,-3.4806,-3.3897,-3.3897,-3.2792,-3.121,-3.0131,-2.9804,-2.9804,-2.9804,-2.9804,-2.9804,-2.9804,-2.9804,-2.9854,-3.0105,-3.0783,-3.1461,-3.1712,-3.2441,-3.3111,-3.3111,-3.3111,-3.3111,-3.3111,-3.3111,-3.2893,-3.2315,-3.2692,-3.2893,-3.229,-3.2692,-3.3111,-3.3111,-3.2853,-3.2568,-3.222,-3.2001,-3.1616,-3.0954,-3.0668,-3.0267,-2.9682,-2.9834,-3.0095,-3.0462,-3.066,-3.0876,-3.1137,-3.1359,-3.1713,-3.2245,-3.281,-3.3111,-3.3111,-3.3111,-3.3111,-4.5125,-4.5723,-4.6224,-4.6534,-4.5001,-4.3266,-4.2833,-4.1113,-3.9442,-3.8794,-3.8522,-3.8204,-3.7619,-3.7143,-3.7089,-3.7802,-3.8264,-3.917,-4.1025,-4.1806,-4.259,-4.3564,-4.3689,0.0,-4.3689,-4.2685,-4.2087,-4.2087,-4.1003,-4.04,-4.04,-3.9948,-3.9697,-3.9697,-3.9697,-3.975,-3.9905,-3.8617,-3.8063,-3.8184,-3.7003,-3.6499,-3.6662,-3.6499,-3.6405,-3.6405,0.0,0.0,-3.6405,-3.6405,-3.6405,-3.6405,-3.6405,-3.5981,-3.5382,-3.5382,-3.463,-3.3621,-3.3445,-3.2466,-3.111,-3.0105,-2.9804,-2.9804,-2.9804,-2.9804,-2.9804,-2.9804,-2.9804,-2.9905,-3.0482,-3.1009,-3.1537,-3.2089,-3.2641,-3.3111,-3.3111,-3.3111,-3.3111,-3.3111,-3.3068,-3.2875,-3.2331,-3.2657,-3.2832,-3.2289,-3.2682,-3.2982,-3.2982,-3.2723,-3.222,-3.1581,-3.1247,-3.08,-3.0125,-2.9806,-2.9488,-2.917,-2.9276,-2.9528,-2.9948,-2.9963,-3.0125,-3.0487,-3.0913,-3.1403,-3.1957,-3.2723,-3.3111,-3.3111,-3.3111,-3.3111,-4.5125,-4.5364,-4.5627,-4.6416,-4.5001,-4.3266,-4.2833,-4.1113,-3.9394,-3.8605,-3.8454,-3.8213,-3.7661,-3.7492,-3.7904,-3.9171,-4.0174,-4.0899,-4.1225,-4.1806,-4.2439,-4.3037,0.0,-4.3112,-4.3112,-4.2108,-4.1455,-4.1455,-4.045,-3.9823,-3.9823,-3.9747,-3.9697,-3.9697,-3.9697,-3.9522,-3.9095,-3.8341,-3.7764,-3.7409,-3.6707,-3.6405,-3.6452,-3.6405,-3.6405,-3.6405,0.0,-3.6405,-3.6405,-3.6405,-3.6405,-3.6405,-3.6405,-3.573,-3.4806,-3.4806,-3.3803,-3.234,-3.1436,-3.0959,-3.0633,-3.0005,-2.9804,-2.9804,-2.9804,-2.9804,-2.9804,-2.9804,-2.9804,-2.9905,-3.0482,-3.1009,-3.1537,-3.2089,-3.2641,-3.3111,-3.3111,-3.3111,-3.3111,-3.3111,-3.2896,-3.2742,-3.2642,-3.2544,-3.2481,-3.2364,-3.2457,-3.2531,-3.2531,-3.1937,-3.1383,-3.1024,-3.0396,-2.992,-2.9623,-2.9141,-2.8751,-2.8549,-2.8916,-2.919,-2.9236,-2.9073,-2.9255,-2.9966,-3.0238,-3.0824,-3.1737,-3.268,-3.3111,-3.3111,-3.3111,-3.3111,-4.4586,-4.4766,-4.4899,-4.5638,-4.508,-4.4228,-4.3784,-4.215,-4.0475,-3.9447,-3.8814,-3.8319,-3.8077,-3.8184,-3.8894,-4.0754,-4.1204,-4.1501,-4.2133,-4.2183,-4.2414,-4.2911,0.0,-4.2986,-4.2986,-4.1982,-4.1275,-4.1275,-4.0325,-3.9697,-3.9697,-3.9697,-3.9697,-3.9697,-3.9396,-3.8969,-3.8417,-3.7839,-3.7437,-3.7186,-3.6681,-3.6405,-3.6405,-3.6405,-3.6405,-3.6405,0.0,-3.6405,-3.6405,-3.6405,-3.6405,-3.6405,-3.6405,-3.5881,-3.5006,-3.4173,-3.3345,-3.2491,-3.111,-3.0608,-3.0532,-2.998,-2.9804,-2.9804,-2.9804,-2.9804,-2.9804,-2.9804,-3.0005,-3.0306,-3.0557,-3.121,-3.1888,-3.2164,-3.2641,-3.3111,-3.3111,-3.3111,-3.3111,-3.3111,-3.2896,-3.2568,-3.2176,-3.1957,-3.1693,-3.127,-3.1226,-3.1226,-3.1226,-3.0779,-3.0168,-2.9443,-2.8924,-2.838,-2.7618,-2.7558,-2.7721,-2.8186,-2.8535,-2.8721,-2.8721,-2.8839,-2.9209,-2.9897,-3.0329,-3.1003,-3.1869,-3.2723,-3.3111,-3.3111,-3.3111,-3.3111,-4.4137,-4.4317,-4.4452,-4.5067,-4.4989,-4.4685,-4.4367,-4.2968,-4.144,-4.0411,-3.9445,-3.8765,-3.8715,-3.902,-3.9798,-4.1559,-4.163,-4.1831,-4.266,-4.259,-4.2564,-4.2936,-4.2861,-4.2785,-4.2785,-4.1781,-4.11,-4.11,-4.0249,-3.9697,-3.9697,-3.9697,-3.9697,-3.9697,-3.917,-3.8592,-3.8015,-3.7462,-3.7111,-3.6985,-3.6606,-3.6405,-3.6405,-3.6405,-3.6405,-3.6405,-3.6405,-3.6405,-3.6405,-3.6405,-3.6405,-3.6405,-3.6405,-3.5956,-3.5082,-3.3345,-3.2692,-3.2466,-3.0959,-3.0432,-3.0357,-2.993,-2.9804,-2.9804,-2.9804,-2.9804,-2.9804,-2.9804,-3.0181,-3.0633,-3.0758,-3.1411,-3.2089,-3.2365,-3.2742,-3.3111,-3.3111,-3.3111,-3.3111,-3.3111,-3.2853,-3.2419,-3.1669,-3.1315,-3.0913,-3.0125,-3.0034,-3.0034,-3.0034,-2.9761,-2.9124,-2.8047,-2.7707,-2.708,-2.6007,-2.6438,-2.7014,-2.7619,-2.7955,-2.8207,-2.8301,-2.8746,-2.9301,-2.9966,-3.0689,-3.1403,-3.2089,-3.2766,-3.3111,-3.3111,-3.3111,-3.3111,-4.4137,-4.4317,-4.4452,-4.511,-4.4359,-4.351,-4.3612,-4.2666,-4.157,-4.0949,-4.0388,-3.9905,-3.9674,-4.0023,-4.045,-4.0601,-4.1455,-4.2187,-4.2263,-4.2665,-4.2936,-4.2961,-4.259,-4.2263,-4.2263,-4.1229,-4.0576,-4.0576,-4.0023,-3.9697,-3.9697,-3.9697,-3.9697,-3.9697,-3.917,-3.8592,-3.8015,-3.7462,-3.6935,-3.6455,-3.643,-3.6405,-3.6405,-3.6405,-3.6405,-3.6405,-3.6405,-3.6405,-3.6405,-3.6405,-3.6405,-3.6405,-3.6405,-3.5705,-3.448,-3.2315,-3.1512,-3.1361,-3.0231,-2.9854,-2.9854,-2.9804,-2.9804,-2.9804,-2.9804,-2.9804,-2.9804,-2.9804,-3.0181,-3.0733,-3.121,-3.1386,-3.1712,-3.2767,-3.3086,-3.3111,-3.3111,-3.3111,-3.3111,-3.3111,-3.2723,-3.2201,-3.1448,-3.0958,-3.0397,-2.9669,-2.9531,-2.9531,-2.9531,-2.9095,-2.8503,-2.7817,-2.7317,-2.6714,-2.5962,-2.675,-2.7081,-2.6734,-2.7108,-2.7573,-2.7998,-2.8491,-2.9187,-3.017,-3.1092,-3.1825,-3.2376,-3.2853,-3.3111,-3.3111,-3.3111,-3.3111,-4.3589,-4.3419,-4.326,-4.3738,-4.2836,-4.2104,-4.34,-4.3204,-4.256,-4.1658,-4.1448,-4.1162,-4.0325,-4.0375,-4.0626,-4.0924,-4.1656,-4.2213,-4.2213,-4.269,-4.2986,-4.2986,-4.2539,-4.2213,-4.2213,-4.1153,-4.0526,-4.0526,-3.9998,-3.9697,-3.9697,-3.9697,-3.9546,-3.9195,-3.8642,-3.8065,-3.7487,-3.6983,-3.6606,-3.6405,-3.6405,-3.6405,-3.6405,-3.6405,-3.6405,-3.6405,-3.6405,-3.6405,-3.6405,-3.6405,-3.6405,-3.638,-3.5981,-3.5558,-3.4931,-3.2717,-3.1913,-3.1712,-3.0281,-2.9804,-2.9804,-2.9804,-2.9804,-2.9804,-2.9804,-2.9804,-2.9804,-2.9804,-2.9955,-3.0231,-3.0758,-3.116,-3.1587,-3.2365,-3.2541,-3.2641,-3.2993,-3.3111,-3.3111,-3.3111,-3.2723,-3.2025,-3.08,-3.0238,-2.9531,-2.8326,-2.8139,-2.8139,-2.8139,-2.7951,-2.7514,-2.6683,-2.6166,-2.5986,-2.6314,-2.6418,-2.6501,-2.6604,-2.704,-2.7594,-2.8233,-2.8885,-2.9669,-3.0623,-3.1917,-3.2779,-3.3113,-3.3745,-3.4098,-3.4098,-3.4098,-3.4098,-4.329,-4.2851,-4.2455,-4.266,-4.1596,-4.0866,-4.2268,-4.2788,-4.2721,-4.2055,-4.1919,-4.1605,-4.0676,-4.0375,-4.0501,-4.1175,-4.1505,-4.181,-4.2162,-4.2333,-4.2459,-4.2459,-4.1982,-4.163,-4.163,-4.0802,-4.0249,-4.0249,-3.9898,-3.9622,-3.9446,-3.9421,-3.917,-3.8617,-3.804,-3.7563,-3.7186,-3.6681,-3.6405,-3.6405,-3.6405,-3.6405,-3.6405,-3.6405,-3.6405,-3.6405,-3.6405,-3.6405,-3.6405,-3.6405,-3.6304,-3.6006,-3.5102,-3.4731,-3.448,-3.2466,-3.1712,-3.1512,-3.0231,-2.9804,-2.9804,-2.9804,-2.9804,-2.9804,-2.9804,-2.9804,-2.9804,-2.9804,-2.9804,-2.988,-3.0256,-3.0758,-3.1286,-3.1813,-3.2047,-3.2214,-3.2632,-3.2771,-3.2853,-3.2853,-3.2419,-3.1605,-3.0306,-2.96,-2.8792,-2.7499,-2.7309,-2.7309,-2.7309,-2.7309,-2.6998,-2.6231,-2.5834,-2.5834,-2.6356,-2.6231,-2.621,-2.6397,-2.6687,-2.731,-2.825,-2.9056,-3.0124,-3.1352,-3.2743,-3.3573,-3.3881,-3.4435,-3.468,-3.468,-3.468,-3.468,-4.329,-4.2851,-4.2365,-4.2076,-4.0831,-3.9792,-4.0108,-4.0972,-4.1802,-4.2167,-4.1731,-4.1125,-4.0626,-4.0074,-4.0074,-4.11,-4.0824,-4.0902,-4.2037,-4.1681,-4.1275,-4.1275,-4.0852,-4.0526,-4.0526,-4.0023,-3.9697,-3.9697,-3.9697,-3.9446,-3.8944,-3.8919,-3.8592,-3.8015,-3.7462,-3.7186,-3.7186,-3.6681,-3.6405,-3.6405,-3.6405,-3.6405,-3.6405,-3.6405,-3.6405,-3.6405,-3.6405,-3.6405,-3.6405,-3.6405,-3.6031,-3.5332,-3.3721,-3.3111,-3.291,-3.1235,-3.0608,-3.0532,-2.998,-2.9804,-2.9804,-2.9804,-2.9804,-2.9804,-2.9804,-2.9804,-2.9804,-2.9804,-2.9804,-2.9804,-2.9804,-3.0206,-3.0733,-3.126,-3.1647,-3.1903,-3.1903,-3.2179,-3.2376,-3.24,-3.1805,-3.0982,-2.9943,-2.9165,-2.8351,-2.7452,-2.7309,-2.7309,-2.7309,-2.7309,-2.7123,-2.6667,-2.6625,-2.6438,-2.5937,-2.6356,-2.6418,-2.5962,-2.5875,-2.6581,-2.8049,-2.8969,-3.043,-3.2488,-3.341,-3.4173,-3.468,-3.468,-3.4751,-3.4751,-3.4751,-3.4751,-4.3636,-4.2998,-4.2455,-4.266,-4.1466,-4.0377,-4.0769,-4.1105,-4.176,-4.3037,-4.2559,-4.1731,-4.115,-4.0899,-4.0827,-4.0777,-4.0899,-4.115,-4.153,-4.1376,-4.1275,-4.1275,-4.0852,-4.0526,-4.0526,-4.0023,-3.9697,-3.9697,-3.932,-3.9095,-3.8919,-3.8492,-3.8015,-3.7437,-3.7262,-3.6985,-3.6656,-3.648,-3.6405,-3.6405,-3.6405,-3.6405,-3.6405,-3.6405,-3.6405,-3.6405,-3.6405,-3.6405,-3.638,-3.5956,-3.5633,-3.5332,-3.3721,-3.3111,-3.291,-3.1235,-3.0608,-3.0532,-2.998,-2.9804,-2.9804,-2.9804,-2.9804,-2.9804,-2.9804,-2.9804,-2.9804,-2.9804,-2.9804,-2.9804,-2.9804,-2.9788,-2.9934,-3.0668,-3.0798,-3.0836,-3.1071,-3.1105,-3.1017,-3.0888,-3.0509,-3.0011,-2.9187,-2.8746,-2.8233,-2.7404,-2.7309,-2.7309,-2.7309,-2.7019,-2.6895,-2.7081,-2.6812,-2.6687,-2.6874,-2.6418,-2.621,-2.6397,-2.5771,-2.6277,-2.8228,-2.9284,-3.0605,-3.2393,-3.3983,-3.4877,-3.5052,-3.5612,-3.5881,-3.5881,-3.5881,-3.5881,-4.4174,-4.3608,-4.3129,-4.3513,-4.2547,-4.1443,-4.1529,-4.1436,-4.1702,-4.3187,-4.2816,-4.2112,-4.1731,-4.1304,-4.0924,-4.0852,-4.0752,-4.0752,-4.0924,-4.0827,-4.0676,-4.0676,-4.04,-4.0199,-4.0199,-3.9898,-3.9697,-3.9697,-3.917,-3.8818,-3.8542,-3.799,-3.7437,-3.6933,-3.6908,-3.6757,-3.6405,-3.6405,-3.6405,-3.6405,-3.6405,-3.6405,-3.6405,-3.6405,-3.6405,-3.6405,-3.6132,-3.6031,-3.5956,-3.4977,-3.4575,-3.4399,-3.2742,-3.2089,-3.1938,-3.0733,-3.0281,-3.0231,-2.9905,-2.9804,-2.9804,-2.9804,-2.9804,-2.9804,-2.9804,-2.9804,-2.9804,-2.9804,-2.9804,-2.9804,-2.9804,-2.9599,-2.9493,-3.0024,-2.9955,-2.9829,-2.9893,-2.9796,-2.9669,-2.9645,-2.9353,-2.9011,-2.8656,-2.8279,-2.7925,-2.7404,-2.7309,-2.7309,-2.7309,-2.7061,-2.6998,-2.7268,-2.7061,-2.6998,-2.7289,-2.6625,-2.6314,-2.6743,-2.61,-2.6692,-2.8773,-2.9252,-3.0373,-3.2414,-3.3956,-3.4955,-3.539,-3.6066,-3.6405,-3.6405,-3.6405,-3.6405,-4.4834,-4.4509,-4.4157,-4.4544,-4.3808,-4.2838,-4.2274,-4.171,-4.158,-4.2735,-4.264,-4.2288,-4.2288,-4.1379,-4.0827,-4.1275,-4.0501,-3.9948,-4.045,-4.0049,-3.9697,-3.9697,-3.9697,-3.9697,-3.9697,-3.9697,-3.9697,-3.9697,-3.912,-3.8567,-3.804,-3.7437,-3.6885,-3.643,-3.6405,-3.6405,-3.6405,-3.6405,-3.6405,-3.6405,-3.6405,-3.6405,-3.6405,-3.6405,-3.6405,-3.638,-3.578,-3.5483,-3.5307,-3.3746,-3.3086,-3.2842,-3.1235,-3.0608,-3.0557,-3.0005,-2.9804,-2.9804,-2.9804,-2.9804,-2.9804,-2.9804,-2.9804,-2.9804,-2.9804,-2.9804,-2.9804,-2.9804,-2.9804,-2.9804,-2.9804,-2.9599,-2.9341,-2.9302,-2.9076,-2.881,-2.848,-2.8287,-2.8248,-2.8478,-2.8185,-2.7976,-2.8197,-2.7814,-2.7437,-2.7309,-2.7309,-2.7309,-2.7309,-2.7309,-2.7309,-2.7309,-2.7309,-2.733,-2.7372,-2.6936,-2.6801,-2.7121,-2.6931,-2.7659,-2.9653,-2.9168,-3.0036,-3.2561,-3.36,-3.4605,-3.562,-3.6121,-3.6405,-3.6405,-3.6405,-3.6405,-4.5017,-4.4991,-4.4807,-4.5359,-4.4405,-4.3095,-4.2368,-4.1557,-4.137,-4.2715,-4.2886,-4.2866,-4.2866,-4.2313,-4.1886,-4.2011,-4.1053,-4.0375,-4.0501,-4.0049,-3.9697,-3.9697,-3.9697,-3.9697,-3.9697,-3.9697,-3.9697,-3.9697,-3.8768,-3.814,-3.8015,-3.7086,-3.6531,-3.6405,-3.6405,-3.6405,-3.6405,-3.6405,-3.6405,-3.6405,-3.6405,-3.6405,-3.6405,-3.6405,-3.6405,-3.638,-3.578,-3.5257,-3.4756,-3.3571,-3.2817,-3.2265,-3.1085,-3.0608,-3.0557,-3.0005,-2.9804,-2.9804,-2.9804,-2.9804,-2.9804,-2.9804,-2.9804,-2.9804,-2.9804,-2.9804,-2.9804,-2.9804,-2.9804,-2.9804,-2.9804,-2.9507,-2.9052,-2.849,-2.8226,-2.7848,-2.7113,-2.6778,-2.6628,-2.6547,-2.6427,-2.6484,-2.6919,-2.691,-2.6941,-2.7247,-2.7309,-2.7309,-2.7309,-2.7309,-2.7309,-2.7309,-2.7309,-2.7455,-2.7738,-2.7365,-2.7499,-2.8285,-2.8262,-2.8992,-3.0644,-3.0409,-3.124,-3.3287,-3.4412,-3.5162,-3.562,-3.6121,-3.6405,-3.6405,-3.6405,-3.6405,-4.5187,-4.5615,-4.6063,-4.6818,-4.5644,-4.3983,-4.3127,-4.2006,-4.1303,-4.2011,-4.2183,-4.2183,-4.2183,-4.1731,-4.1379,-4.1379,-4.0676,-4.0124,-4.0124,-3.9873,-3.9697,-3.9697,-3.9697,-3.9697,-3.9697,-3.9446,-3.9295,-3.9295,-3.8241,-3.7613,-3.7613,-3.6857,-3.6405,-3.6405,-3.6405,-3.6405,-3.6405,-3.6405,-3.6405,-3.6405,-3.6405,-3.6405,-3.6405,-3.6405,-3.6405,-3.6355,-3.5228,-3.46,-3.4198,-3.2566,-3.1712,-3.1361,-3.0557,-3.0231,-3.0181,-2.9905,-2.9804,-2.9804,-2.9804,-2.9804,-2.9804,-2.9804,-2.9804,-2.9804,-2.9804,-2.9804,-2.9804,-2.9804,-2.9804,-2.9804,-2.9804,-2.9468,-2.8831,-2.7851,-2.7487,-2.7131,-2.6211,-2.5765,-2.557,-2.5571,-2.5564,-2.5792,-2.6501,-2.6791,-2.7102,-2.751,-2.7572,-2.7655,-2.7883,-2.7903,-2.7903,-2.7903,-2.7903,-2.8007,-2.8235,-2.8048,-2.83,-2.9165,-2.9288,-3.0106,-3.1837,-3.1901,-3.2487,-3.3796,-3.4605,-3.5211,-3.562,-3.6121,-3.6405,-3.6405,-3.6405,-3.6405,-4.5279,-4.632,-4.7419,-4.8322,-4.7001,-4.5235,-4.4308,-4.2866,-4.1619,-4.1521,-4.1383,-4.1275,-4.1275,-4.0824,-4.0526,-4.0526,-4.0049,-3.9697,-3.9697,-3.9697,-3.9697,-3.9697,-3.9697,-3.9697,-3.9697,-3.9195,-3.8919,-3.8919,-3.7814,-3.7186,-3.7186,-3.6707,-3.6405,-3.6405,-3.6405,-3.6405,-3.6405,-3.6405,-3.6405,-3.6405,-3.6304,-3.6254,-3.6254,-3.6078,-3.6128,-3.6329,-3.4726,-3.3922,-3.3596,-3.1587,-3.0633,-3.0432,-2.998,-2.9804,-2.9804,-2.9804,-2.9804,-2.9804,-2.9804,-2.9804,-2.9804,-2.9804,-2.9804,-2.9804,-2.9804,-2.9804,-2.9804,-2.9804,-2.9804,-2.9804,-2.9804,-2.9468,-2.8791,-2.7528,-2.7062,-2.6592,-2.5591,-2.5084,-2.489,-2.5047,-2.5189,-2.5585,-2.6376,-2.6957,-2.7455,-2.7862,-2.7924,-2.809,-2.8566,-2.8545,-2.8504,-2.8504,-2.8421,-2.84,-2.8483,-2.8504,-2.883,-2.9667,-3.0046,-3.1033,-3.2884,-3.3265,-3.374,-3.441,-3.4775,-3.5187,-3.5668,-3.6168,-3.6405,-3.6405,-3.6405,-3.6405,-4.5032,-4.6858,-4.8429,-4.9048,-4.8063,-4.6662,-4.5608,-4.4222,-4.3022,-4.2263,-4.1651,-4.1275,-4.1275,-4.0824,-4.0526,-4.0526,-4.0049,-3.9697,-3.9697,-3.9697,-3.9697,-3.9697,-3.9697,-3.9697,-3.9697,-3.9195,-3.8919,-3.8919,-3.7814,-3.7186,-3.7186,-3.6707,-3.6405,-3.6405,-3.6405,-3.6405,-3.6405,-3.6405,-3.6405,-3.6405,-3.5881,-3.5608,-3.5583,-3.4675,-3.5002,-3.6329,-3.5127,-3.4073,-3.3093,-3.1813,-3.0733,-2.9905,-2.9829,-2.9804,-2.9804,-2.9804,-2.9804,-2.9804,-2.9804,-2.9804,-2.9804,-2.9804,-2.9804,-2.9804,-2.9804,-2.9804,-2.9804,-2.9804,-2.9804,-2.9804,-2.9804,-2.9468,-2.887,-2.7931,-2.7307,-2.6467,-2.4956,-2.4572,-2.455,-2.4569,-2.5254,-2.5834,-2.5982,-2.6729,-2.7455,-2.7862,-2.7924,-2.809,-2.8566,-2.8255,-2.7958,-2.7958,-2.7676,-2.7593,-2.7986,-2.7958,-2.8397,-2.9411,-3.0249,-3.146,-3.3168,-3.4068,-3.4998,-3.6048,-3.5692,-3.5668,-3.5955,-3.6263,-3.6405,-3.6405,-3.6405,-3.6405,-4.5431,-4.6899,-4.803,-4.8869,-4.8101,-4.69,-4.5811,-4.4409,-4.3011,-4.1851,-4.1209,-4.0868,-4.088,-4.0676,-4.0425,-4.0099,-4.0124,-4.0149,-4.0149,-4.0425,-4.0501,-4.0199,-3.9873,-3.9572,-3.927,-3.8342,-3.7717,-3.7717,-3.6847,-3.6351,-3.6495,-3.6318,-3.6241,-3.6405,-3.6405,-3.6405,-3.6405,-3.6405,-3.6405,-3.6405,-3.5805,-3.5508,-3.5458,-3.4399,-3.4474,-3.5353,-3.3922,-3.3043,-3.2516,-3.1411,-3.0507,-2.9829,-3.0131,-3.0055,-2.9829,-3.0131,-3.0055,-2.9804,-2.9804,-2.9804,-2.9804,-2.9804,-2.9804,-2.9804,-2.9804,-2.9804,-2.9804,-2.9804,-2.9804,-2.9804,-2.9804,-2.9546,-2.9067,-2.8371,-2.777,-2.7021,-2.5547,-2.4935,-2.4658,-2.455,-2.5275,-2.5875,-2.5875,-2.6687,-2.7537,-2.8193,-2.8317,-2.8566,-2.929,-2.898,-2.869,-2.869,-2.8297,-2.8139,-2.8494,-2.8663,-2.918,-3.0175,-3.0854,-3.2042,-3.3832,-3.4421,-3.5253,-3.638,-3.6168,-3.6121,-3.6241,-3.631,-3.6405,-3.6405,-3.6405,-3.6405,-4.5193,-4.6292,-4.7252,-4.8164,-4.7834,-4.7024,-4.5995,-4.4797,-4.3594,-4.2316,-4.1589,-4.1158,-4.0942,-4.0654,-4.0425,-4.0149,-4.045,-4.0727,-4.0727,-4.1025,-4.1075,-4.0576,-4.0023,-3.9471,-3.8919,-3.7642,-3.6725,-3.6529,-3.5867,-3.5572,-3.5716,-3.5812,-3.6051,-3.6405,-3.6405,-3.6405,-3.6405,-3.6405,-3.6405,-3.6405,-3.5529,-3.5082,-3.5031,-3.3696,-3.3445,-3.4022,-3.2918,-3.2441,-3.234,-3.126,-3.0482,-3.003,-3.0306,-3.0156,-2.9854,-3.0256,-3.0156,-2.9804,-2.9804,-2.9804,-2.9804,-2.9804,-2.9804,-2.9804,-2.9804,-2.9804,-2.9804,-2.9804,-2.9804,-2.9804,-2.9804,-2.956,-2.9184,-2.8712,-2.821,-2.7446,-2.603,-2.5232,-2.4743,-2.4529,-2.5275,-2.5875,-2.5875,-2.6687,-2.7579,-2.8317,-2.8442,-2.8731,-2.9539,-2.9249,-2.8959,-2.8959,-2.8545,-2.8424,-2.8719,-2.9062,-2.9671,-3.0656,-3.1275,-3.2361,-3.4017,-3.4487,-3.5177,-3.6132,-3.6329,-3.6405,-3.6405,-3.6405,-3.6405,-3.6405,-3.6405,-3.6405,-4.3467,-4.4844,-4.6446,-4.6886,-4.7244,-4.7252,-4.6443,-4.612,-4.5671,-4.4656,-4.3795,-4.3022,-4.2185,-4.117,-4.0676,-4.1125,-4.1225,-4.125,-4.125,-4.1275,-4.1075,-4.0576,-4.0023,-3.9471,-3.8919,-3.7642,-3.648,-3.5718,-3.5405,-3.5114,-3.4872,-3.5356,-3.586,-3.6358,-3.6405,-3.6405,-3.6405,-3.6405,-3.6405,-3.638,-3.4751,-3.3972,-3.3922,-3.1763,-3.1361,-3.2365,-3.2842,-3.3043,-3.2986,-3.1813,-3.1035,-3.0532,-3.003,-2.9804,-2.9804,-2.9829,-2.9804,-2.9804,-2.9804,-2.9804,-2.9804,-2.9804,-2.9804,-2.9804,-2.9804,-2.9804,-2.9804,-2.9804,-2.9804,-2.9804,-2.9804,-2.9468,-2.9052,-2.8831,-2.8332,-2.7489,-2.5888,-2.4999,-2.4507,-2.4507,-2.5275,-2.5875,-2.5875,-2.6687,-2.7407,-2.7883,-2.7966,-2.8131,-2.8628,-2.8276,-2.7986,-2.7986,-2.7593,-2.7562,-2.8014,-2.8484,-2.9183,-3.0148,-3.1095,-3.2091,-3.3211,-3.418,-3.4956,-3.5533,-3.6107,-3.6405,-3.6405,-3.6405,-3.6405,-3.6405,-3.6405,-3.6405,-4.2122,-4.291,-4.3838,-4.3997,-4.4709,-4.5463,-4.5461,-4.552,-4.5344,-4.476,-4.3931,-4.3141,-4.2684,-4.1872,-4.1263,-4.1304,-4.163,-4.1856,-4.1856,-4.2158,-4.2183,-4.163,-4.045,-3.9471,-3.8919,-3.7146,-3.5673,-3.4917,-3.4724,-3.4628,-3.4532,-3.5066,-3.5644,-3.6358,-3.6405,-3.6405,-3.6405,-3.6405,-3.6405,-3.638,-3.5052,-3.4424,-3.4349,-3.2114,-3.1512,-3.2215,-3.2064,-3.219,-3.2466,-3.1712,-3.1085,-3.0608,-3.0407,-3.0105,-2.9829,-3.0181,-3.0105,-2.9804,-2.9804,-2.9804,-2.9804,-2.9804,-2.9804,-2.9804,-2.9804,-2.9804,-2.9804,-2.9804,-2.9804,-2.9804,-2.9804,-2.9521,-2.9204,-2.8722,-2.7782,-2.6906,-2.652,-2.5885,-2.5399,-2.5399,-2.5896,-2.6459,-2.677,-2.7282,-2.7841,-2.8297,-2.8359,-2.8421,-2.8587,-2.8214,-2.7924,-2.7924,-2.7531,-2.7547,-2.8207,-2.8839,-2.96,-3.0578,-3.156,-3.2489,-3.336,-3.4245,-3.4931,-3.5483,-3.6081,-3.6405,-3.6405,-3.6405,-3.6405,-3.6405,-3.6405,-3.6405,-4.1122,-4.1572,-4.2081,-4.2081,-4.2851,-4.3798,-4.421,-4.4676,-4.4924,-4.4669,-4.4079,-4.3512,-4.3199,-4.2553,-4.2072,-4.1886,-4.2183,-4.2489,-4.2489,-4.2816,-4.2816,-4.2263,-4.1028,-3.9948,-3.922,-3.7345,-3.5624,-3.4374,-3.4282,0.0,-3.3993,-3.4677,-3.5452,-3.6358,-3.6405,-3.6405,-3.6405,-3.6405,-3.6405,-3.638,-3.5052,-3.4449,-3.4374,-3.2139,-3.1411,-3.1913,-3.1361,-3.1537,-3.2164,-3.1612,-3.1145,-3.0738,-3.0338,-2.9949,-2.9635,-3.0024,-2.9963,-2.9702,-2.974,-2.9804,-2.9804,-2.9804,-2.974,-2.9663,-2.9663,-2.9624,-2.9585,-2.9585,-2.9671,-2.982,-2.982,-2.9603,-2.9205,-2.8564,-2.7608,-2.6931,-2.7112,-2.6466,-2.5875,-2.5875,-2.6293,-2.677,-2.7226,-2.7634,-2.809,-2.8545,-2.8607,-2.8566,-2.84,-2.811,-2.7862,-2.7717,-2.7475,-2.7641,-2.842,-2.9255,-3.0147,-3.1116,-3.2284,-3.3126,-3.3607,-3.451,-3.5132,-3.5483,-3.6081,-3.6405,-3.6405,-3.6405,-3.6405,-3.6405,-3.6405,-3.6405,0.0,0.0,0.0,-4.1265,-4.1841,-4.2423,-4.2842,-4.3755,-4.4582,-4.4529,-4.4442,-4.4252,-4.3785,-4.3256,-4.2915,-4.2982,-4.2961,-4.2986,-4.2986,-4.2986,-4.2841,-4.2313,-4.1681,-4.0874,-3.9848,-3.8238,-3.6372,-3.4208,-3.4097,-3.3843,-3.325,-3.4213,-3.5307,-3.6358,-3.6405,-3.6405,-3.6405,-3.6405,-3.6405,-3.638,-3.47,-3.3922,-3.3847,-3.1596,-3.0909,-3.1361,-3.0794,-3.117,-3.2098,-3.1587,-3.1263,-3.0984,-2.9826,-2.9312,-2.918,-2.9326,-2.9404,-2.9443,-2.9702,-2.9804,-2.9804,-2.9804,-2.9599,-2.9419,-2.938,-2.9223,-2.9052,-2.9052,-2.9444,-2.9861,-2.9845,-2.9552,-2.9051,-2.841,-2.7934,-2.7561,-2.7584,-2.6743,-2.5962,-2.5962,-2.6335,-2.6791,-2.7268,-2.7655,-2.809,-2.8566,-2.8628,-2.8462,-2.7937,-2.7924,-2.7759,-2.7351,-2.7309,-2.7715,-2.8631,-2.9624,-3.0644,-3.1649,-3.3088,-3.3897,-3.3897,-3.4906,-3.5508,-3.5508,-3.6081,-3.6405,-3.6405,-3.6405,-3.6405,-3.6405,-3.6405,-3.6405,-3.8467,0.0,0.0,0.0,0.0,0.0,0.0,-4.2455,-4.3913,-4.4706,-4.4632,-4.4355,-4.3983,-4.3208,-4.2554,-4.2402,-4.2766,-4.2986,-4.2986,-4.2986,-4.2911,-4.2816,-4.1907,-4.1175,-4.0902,-3.8685,-3.6743,0.0,-3.4507,-3.3892,-3.3499,-3.4848,-3.5812,-3.6098,-3.631,-3.6405,-3.6405,-3.6405,-3.6405,-3.638,-3.5102,-3.441,-3.418,-3.1963,-3.0959,-3.096,-3.0415,-3.0564,-3.1158,-3.0938,-3.0938,-3.0968,-2.9699,-2.9512,-2.9975,-2.9375,-2.9431,-2.9766,-2.9813,-2.9804,-2.9804,-2.9804,-2.9599,-2.9341,-2.891,-2.8593,-2.8275,-2.781,-2.8023,-2.843,-2.8634,-2.8218,-2.7789,-2.7804,-2.7342,-2.6961,-2.73,-2.7149,-2.6915,-2.6915,-2.704,-2.7372,-2.811,-2.8338,-2.8587,-2.9042,-2.9125,-2.8835,-2.8028,-2.7924,-2.7807,-2.7541,-2.7668,-2.8233,-2.9209,-3.0147,-3.1024,-3.1869,-3.3176,-3.3897,-3.3897,-3.4906,-3.5508,-3.5508,-3.6081,-3.6405,-3.6405,-3.6405,-3.6405,-3.6405,-3.6405,-3.6405,-3.7922,-3.8182,-3.8452,-3.7943,0.0,0.0,-3.9858,-4.1085,-4.2473,-4.3883,-4.4086,-4.3916,-4.3618,-4.2906,-4.214,-4.1491,-4.1966,-4.2565,-4.2942,-4.2986,-4.2986,-4.2986,-4.2409,-4.1932,-4.1706,-3.9932,-3.8218,-3.6824,-3.5744,-3.4736,-3.3991,-3.4896,-3.5596,-3.5812,-3.6168,-3.6405,-3.6405,-3.6132,-3.6006,-3.6006,-3.4675,-3.3915,-3.3643,-3.1378,-3.0245,-2.9973,-2.9131,-2.908,-2.9535,-2.947,-3.0014,-3.073,-2.9606,-2.9355,-2.9593,-2.9024,-2.9121,-2.9505,-2.9485,-2.9507,-2.9507,-2.9507,-2.9248,-2.8791,-2.8331,-2.7914,-2.751,-2.6999,-2.7356,-2.7974,-2.8321,-2.8074,-2.7688,-2.7601,-2.7222,-2.6978,-2.7247,-2.7309,-2.7309,-2.7309,-2.7309,-2.76,-2.8462,-2.8607,-2.8835,-2.9497,-2.9601,-2.9332,-2.8587,-2.8504,-2.8466,-2.8347,-2.8716,-2.9314,-3.0371,-3.1365,-3.2184,-3.2792,-3.3891,-3.4575,-3.4575,-3.5429,-3.5881,-3.5881,-3.6207,-3.6405,-3.6405,-3.6405,-3.6405,-3.6405,-3.6405,-3.6405,-3.8102,-3.7793,0.0,-3.8063,-3.7793,0.0,-3.8841,-3.9709,-4.0741,-4.2367,-4.2913,-4.3052,-4.2761,-4.2371,-4.1652,-4.0491,-4.1043,-4.1852,-4.2705,-4.2866,-4.2967,-4.2961,-4.2986,-4.2785,-4.2363,-4.1489,-4.0285,-3.848,-3.7163,-3.5829,-3.4481,-3.4702,-3.5042,-3.5524,-3.6098,-3.631,-3.631,-3.5737,-3.5415,-3.539,-3.3828,-3.2964,-3.2655,-3.0323,-2.9145,-2.8834,-2.7643,-2.7364,-2.7843,-2.7889,-2.8846,-3.0245,-2.9449,-2.8922,-2.8642,-2.8499,-2.8561,-2.8799,-2.8923,-2.8943,-2.8895,-2.8895,-2.8474,-2.7995,-2.7689,-2.7185,-2.6697,-2.6496,-2.7056,-2.7878,-2.8392,-2.842,-2.816,-2.7689,-2.7452,-2.7309,-2.7309,-2.7309,-2.7309,-2.7372,-2.7372,-2.7662,-2.8545,-2.869,-2.898,-2.987,-2.9994,-2.9829,-2.9352,-2.9311,-2.9328,-2.9416,-2.99,-3.0678,-3.1708,-3.2746,-3.3511,-3.3949,-3.4952,-3.5508,-3.5508,-3.6081,-3.6405,-3.6405,-3.6405,-3.6405,-3.6405,-3.6405,-3.6405,-3.6405,-3.6405,-3.6405,-3.687,-3.7135,-3.7315,-3.6956,-3.7135,0.0,-3.7105,-3.8392,-3.9822,-4.0711,-4.1468,-4.1872,-4.1724,-4.131,-4.0868,-4.0468,-4.1059,-4.1588,-4.154,-4.2189,-4.276,-4.2992,-4.2986,-4.2936,-4.2836,-4.1713,-4.074,-4.0168,-3.7702,-3.5678,-3.4432,-3.4872,-3.5163,-3.5259,-3.5812,-3.5955,-3.5764,-3.5221,-3.495,-3.4925,-3.3474,-3.2593,-3.2152,-3.0055,-2.8816,-2.8402,-2.7535,-2.7487,-2.7981,-2.8386,-2.8833,-2.9191,-2.8478,-2.852,-2.8922,-2.8276,-2.8054,-2.8105,-2.8068,-2.7836,-2.7487,-2.7487,-2.7302,-2.6935,-2.6359,-2.6008,-2.5826,-2.5973,-2.6178,-2.649,-2.7343,-2.7547,-2.7499,-2.7404,-2.7309,-2.7309,-2.7309,-2.7309,-2.7413,-2.7717,-2.78,-2.809,-2.9001,-2.9166,-2.9352,-2.9911,-2.9994,-2.9829,-2.9352,-2.9311,-2.9328,-2.9416,-3.009,-3.0868,-3.1636,-3.284,-3.3674,-3.3998,-3.4952,-3.5508,-3.5508,-3.6081,-3.6405,-3.6405,-3.6405,-3.6405,-3.6405,-3.6405,-3.6405,-3.6405,-3.6405,-3.6405,-3.6387,-3.6477,-3.6477,-3.6477,0.0,0.0,0.0,-3.7255,-3.8332,-3.9649,-4.0137,-4.0459,-4.0844,-4.0613,-4.0161,-3.9536,-4.0255,-4.0819,-4.057,-4.1931,-4.2936,-4.3022,-4.2986,-4.2986,-4.2986,-4.2374,-4.1559,-4.0442,-3.8319,-3.6672,-3.5715,-3.5742,-3.572,-3.5575,-3.5698,-3.5576,-3.4993,-3.3815,-3.3386,-3.3597,-3.2054,-3.1241,-3.1046,-2.8964,-2.7939,-2.769,-2.6626,-2.6604,-2.7317,-2.7575,-2.7837,-2.8145,-2.8145,-2.8296,-2.8473,-2.7711,-2.7501,-2.759,-2.7259,-2.702,-2.6794,-2.6794,-2.6588,-2.6257,-2.5799,-2.553,-2.5504,-2.6069,-2.6273,-2.6418,-2.7123,-2.7309,-2.7309,-2.7309,-2.7309,-2.7372,-2.7552,-2.7593,-2.78,-2.8483,-2.8607,-2.8752,-2.9228,-2.9311,-2.9456,-2.9932,-2.9994,-2.9911,-2.9684,-2.9642,-2.9766,-3.0075,-3.0687,-3.1483,-3.2368,-3.3505,-3.4384,-3.4762,-3.5525,-3.5956,-3.5956,-3.6254,-3.6405,-3.6405,-3.6405,-3.6405,-3.6405,-3.6405,-3.6405,-3.6405,-3.6405,-3.6405,-3.6537,-3.6267,-3.5968,-3.6387,0.0,-3.5789,0.0,0.0,0.0,-3.8542,-3.8788,-3.8994,0.0,0.0,0.0,-3.8601,0.0,0.0,0.0,-4.1527,0.0,-4.2755,-4.2715,-4.266,-4.266,-4.266,-4.1898,-4.0081,-3.8904,-3.783,-3.6915,-3.664,-3.6247,-3.579,-3.5543,-3.5008,-3.4164,-3.2644,-3.2085,-3.2535,-3.1168,-3.047,-3.035,-2.842,-2.7565,-2.7424,-2.6128,-2.6038,-2.681,-2.6847,-2.7113,-2.7529,-2.8014,-2.8002,-2.767,-2.7065,-2.686,-2.6845,-2.6405,-2.6201,-2.6113,-2.6113,-2.5904,-2.5633,-2.5466,-2.5313,-2.542,-2.6356,-2.6625,-2.6729,-2.7185,-2.7309,-2.7309,-2.7309,-2.7309,-2.7434,-2.7821,-2.7924,-2.8193,-2.9125,-2.9311,-2.9332,-2.9415,-2.9435,-2.9559,-2.9932,-2.9994,-2.9994,-2.9994,-2.9994,-3.0203,-3.0681,-3.1176,-3.1942,-3.2951,-3.4091,-3.4945,-3.5476,-3.6073,-3.6405,-3.6405,-3.6405,-3.6405,-3.6405,-3.6405,-3.6405,-3.6405,-3.6505,-3.6556,-3.6556,-3.6556,-3.6631,0.0,0.0,0.0,0.0,-3.6417,0.0,0.0,0.0,-3.6537,-3.6776,0.0,0.0,0.0,0.0,0.0,0.0,0.0,0.0,-3.9944,-4.0178,-4.0759,-4.1711,-4.1613,-4.1476,-4.1476,-4.1476,-4.0921,-3.9484,-3.9022,-3.8194,-3.6864,-3.6765,-3.6221,-3.4967,-3.492,-3.4384,-3.3346,-3.265,-3.2568,-3.3122,-3.2663,-3.2115,-3.1456,-2.9948,-2.899,-2.848,-2.748,-2.7277,-2.7567,-2.7789,-2.7973,-2.8111,-2.7619,-2.7155,-2.678,-2.6676,-2.6114,-2.5428,-2.5347,-2.5098,-2.4743,-2.4743,-2.47,-2.4741,-2.5114,-2.5236,-2.542,-2.6356,-2.6625,-2.6729,-2.7185,-2.7309,-2.7309,-2.7309,-2.7309,-2.7434,-2.7821,-2.7924,-2.8193,-2.9125,-2.9311,-2.9435,-2.9849,-2.9911,-2.9932,-2.9994,-2.9994,-2.9994,-2.9994,-2.9994,-3.0099,-3.0391,-3.094,-3.1586,-3.242,-3.3697,-3.4702,-3.5211,-3.5978,-3.6405,-3.6405,-3.6405,-3.6405,-3.6405,-3.6405,-3.6405,-3.6405,-3.6908,-3.7086,-3.7086,-3.7086,-3.7337,0.0,0.0,0.0,0.0,0.0,0.0,-3.6148,0.0,-3.6118,0.0,0.0,0.0,0.0,0.0,0.0,0.0,-3.9453,0.0,0.0,0.0,-3.944,0.0,0.0,0.0,-4.0802,-4.0852,-4.0473,-3.9592,-3.9139,-3.8536,-3.7736,-3.7254,-3.6449,-3.529,-3.432,-3.3389,-3.2493,-3.1855,-3.1954,-3.2806,-3.2647,-3.2502,-3.235,-3.0956,-3.0276,-3.0168,-2.9053,-2.8701,-2.8898,-2.8544,-2.8537,-2.8588,-2.7666,-2.7303,-2.7282,-2.6812,-2.633,-2.5978,-2.5709,-2.5482,-2.5357,-2.5627,-2.5896,-2.6144,-2.6351,-2.6413,-2.6537,-2.7179,-2.7345,-2.7469,-2.7924,-2.8048,-2.8048,-2.8048,-2.8048,-2.8173,-2.8628,-2.8731,-2.8918,-2.958,-2.9704,-2.9766,-2.9973,-2.9994,-2.9994,-2.9994,-2.9994,-2.9994,-2.9994,-2.9994,-3.0047,-3.0151,-3.0391,-3.0909,-3.1863,-3.3001,-3.4066,-3.492,-3.5883,-3.6405,-3.6405,-3.6405,-3.6556,-3.6883,-3.6835,-3.6985,-3.7312,-3.7538,-3.7839,-3.8215,-3.7814,-3.7789,-3.7973,0.0,0.0,0.0,0.0,0.0,0.0,0.0,0.0,0.0,0.0,0.0,0.0,0.0,0.0,0.0,0.0,-3.9294,0.0,-3.8695,0.0,0.0,0.0,0.0,0.0,-3.9973,-3.9823,-3.927,-3.8718,-3.8317,-3.8088,-3.7426,-3.6442,-3.5203,-3.3892,-3.2779,-3.1885,-3.1438,-3.1711,-3.2695,-3.3007,-3.3225,-3.3287,-3.2224,-3.1785,-3.1809,-3.0683,-3.0214,-3.0168,-2.936,-2.9063,-2.9,-2.7756,-2.7662,-2.8084,-2.6998,-2.6542,-2.6376,-2.6044,-2.5958,-2.619,-2.6646,-2.704,-2.7309,-2.7309,-2.7309,-2.7392,-2.78,-2.7924,-2.8028,-2.8504,-2.8607,-2.8607,-2.8607,-2.8607,-2.8731,-2.9208,-2.9311,-2.9435,-2.9911,-2.9994,-2.9994,-2.9994,-2.9994,-2.9994,-2.9994,-2.9994,-2.9953,-2.9829,-2.9911,-3.0005,-2.9912,-3.012,-3.0651,-3.171,-3.2801,-3.3944,-3.5163,-3.5978,-3.6405,-3.6405,-3.6556,-3.6832,-3.7186,-3.7337,-3.7613,-3.8015,-3.8165,-3.8467,-3.8919,-3.8442,-3.8316,0.0,0.0,0.0,-3.8512,0.0,0.0,0.0,0.0,-3.7195,0.0,0.0,0.0,0.0,0.0,0.0,0.0,0.0,0.0,0.0,0.0,0.0,0.0,0.0,0.0,0.0,-3.8592,-3.8693,0.0,-3.7538,-3.7243,-3.7218,-3.6941,-3.5992,-3.4101,-3.3758,-3.2958,-3.1629,-3.1863,-3.2348,-3.3174,-3.4483,-3.4823,-3.436,-3.4124,-3.3741,-3.321,-3.243,-3.1832,-3.1258,-3.0262,-2.9681,-2.9246,-2.7854,-2.7994,-2.8747,-2.7149,-2.6335,-2.5941,-2.5941,-2.621,-2.6667,-2.7123,-2.7289,-2.7309,-2.7309,-2.7309,-2.7392,-2.78,-2.7924,-2.8028,-2.8504,-2.8607,-2.8607,-2.8607,-2.8607,-2.8731,-2.9208,-2.9311,-2.9435,-2.9911,-2.9994,-2.9994,-2.9994,-2.9994,-2.9994,-2.9994,-2.9994,-2.9829,-2.9394,-2.9725,-2.9933,-2.971,-3.0375,-3.1197,-3.2269,-3.335,-3.4629,-3.6263,-3.6358,-3.6405,-3.6405,-3.6933,-3.7161,-3.7186,-3.7713,-3.799,-3.8015,-3.8567,-3.8894,-3.8919,-3.8894,-3.912,0.0,0.0,-3.8957,-3.872,0.0,0.0,0.0,0.0,0.0,0.0,0.0,0.0,0.0,0.0,0.0,0.0,0.0,0.0,0.0,0.0,0.0,0.0,0.0,0.0,0.0,0.0,0.0,-3.696,-3.6408,0.0,-3.5835,-3.5527,-3.4936,-3.4,-3.3189,-3.2449,-3.1885,-3.1812,-3.2246,-3.3224,-3.4409,-3.5017,-3.5182,-3.5065,-3.4863,-3.4514,-3.3327,-3.2534,-3.1947,-3.0262,-2.9585,-2.9443,-2.7902,-2.8091,-2.9169,-2.8338,-2.8243,-2.8561,-2.8561,-2.8715,-2.8923,-2.8893,-2.8965,-2.9021,-2.8711,-2.8607,-2.8649,-2.8794,-2.8835,-2.8938,-2.9415,-2.9539,-2.9539,-2.9539,-2.9539,-2.9559,-2.9725,-2.9766,-2.9808,-2.9973,-2.9994,-2.9994,-2.9994,-2.9746,-2.9642,-2.9953,-2.9994,-2.9932,-2.9787,-2.9891,-3.0089,-3.0418,-3.0987,-3.1922,-3.3328,-3.5067,-3.648,-3.7389,-3.7437,-3.7437,-3.7437,-3.7638,-3.7914,-3.8341,-3.8492,-3.8768,-3.912,-3.932,-3.9421,-3.9421,-3.9421,-3.9521,-3.8107,-3.8107,0.0,-3.8107,-3.7928,0.0,-3.8069,0.0,-3.7369,0.0,0.0,0.0,0.0,0.0,0.0,0.0,0.0,0.0,0.0,-3.6872,0.0,0.0,0.0,0.0,0.0,0.0,-3.6477,-3.583,-3.5278,-3.499,0.0,-3.4795,-3.4486,-3.4139,-3.3147,-3.245,-3.2167,-3.1891,-3.2196,-3.3074,-3.4262,-3.4993,-3.5307,-3.5489,-3.5434,-3.5127,-3.417,-3.3387,-3.2672,-3.0836,-3.0136,-2.9996,-2.8422,-2.8585,-2.9721,-2.9225,-2.9676,-3.0599,-3.0678,-3.0525,-3.0356,-3.0274,-3.0139,-2.9911,-2.9435,-2.9311,-2.9311,-2.9311,-2.9311,-2.9415,-2.987,-2.9994,-2.9994,-2.9994,-2.9994,-2.9994,-2.9994,-2.9994,-2.9994,-2.9994,-2.9994,-2.9994,-2.9994,-2.9746,-2.9642,-2.9953,-2.9849,-2.9798,-2.9901,-3.0151,-3.0484,-3.0909,-3.168,-3.2881,-3.4722,-3.6351,-3.7543,-3.7965,-3.8015,-3.8015,-3.8015,-3.8216,-3.8492,-3.8919,-3.912,-3.9346,-3.9697,-3.9697,-3.9697,-3.9697,-3.9697,-3.9697]},{"header":{"parameterUnit":"m.s-1","parameterCategory":1,"la1":30.6,"la2":29.2853,"lo1":-89.7004,"lo2":-87.6739,"dy":0.0162,"dx":0.0183,"nx":112,"ny":82,"refTime":"2026-04-10T00:00:00:Z","depth":0,"parameterNumber":3,"parameterNumberName":"V-component_of_WINDS"},"data":[0.0,0.0,0.0,0.0,0.0,0.0,0.0,0.0,0.0,0.0,0.0,0.0,0.0,0.0,0.0,0.0,0.0,0.0,0.0,0.0,0.0,0.0,0.0,0.0,0.0,0.0,0.0,0.0,0.0,0.0,0.0,0.0,0.0,0.0,0.0,0.0,0.0,0.0,0.0,0.0,0.0,0.0,0.0,0.0,0.0,0.0,0.0,0.0,0.0,0.0,0.0,0.0,0.0,0.0,0.0,0.0,0.0,0.0,0.0,0.0,0.0,0.0,0.0,0.0,0.0,0.0,0.0,0.0,0.0,0.0,0.0,0.0,0.0,0.0,0.0,0.0,0.0,0.0,0.0,0.0,0.0,0.0,0.0,0.0,0.0,0.0,0.0,0.0,0.0,0.0,0.9978,1.0558,1.0631,1.0132,0.8826,0.7731,0.6461,0.4971,0.0,0.0,0.0,0.0,0.0,0.0,0.0,0.0,0.0,0.0,0.0,0.0,0.0,0.0,0.0,0.0,0.0,0.0,0.0,0.0,0.0,0.0,0.0,0.0,0.0,0.0,0.0,0.0,0.0,0.0,0.0,0.0,0.0,0.0,0.0,0.0,0.0,0.0,0.0,0.0,0.0,0.0,0.0,0.0,0.0,0.0,0.0,0.0,0.0,0.0,0.0,0.0,0.0,0.0,0.0,0.0,0.0,0.0,0.0,0.0,0.0,0.0,0.0,0.0,0.0,0.0,0.0,0.0,0.0,0.0,0.0,0.0,0.0,0.0,0.0,0.0,0.0,0.0,0.0,0.0,0.0,0.0,0.0,0.0,0.0,0.0,0.0,0.0,0.0,0.0,0.0,0.0,0.0,0.0,0.0,0.0,0.0,0.0,0.0,0.0,0.0,0.0,0.0,0.0,1.0667,1.1259,1.1391,1.0999,0.9944,0.9108,0.7882,0.6047,0.0,0.0,0.0,0.0,0.0,0.0,0.0,0.0,0.0,0.0,0.0,0.0,0.0,0.0,0.0,0.0,0.0,0.0,0.0,0.0,0.0,0.0,0.0,0.0,0.0,0.0,0.0,0.0,0.0,0.0,0.0,0.0,0.0,0.0,0.0,0.0,0.0,0.0,0.0,0.0,0.0,0.0,0.0,0.0,0.0,0.0,0.0,0.0,0.0,0.0,0.0,0.0,0.0,0.0,0.0,0.0,0.0,0.0,0.0,0.0,0.0,0.0,0.0,0.0,0.0,0.0,0.0,0.0,0.0,0.0,0.0,0.0,0.0,0.0,0.0,0.0,0.0,0.0,0.0,0.0,0.0,0.0,0.0,0.0,0.0,0.0,0.0,0.0,0.0,0.0,0.0,0.0,0.0,0.0,0.0,0.0,0.0,0.0,0.0,0.0,0.0,0.0,0.0,1.0856,1.1236,1.1553,1.1531,1.1191,1.0423,0.9795,0.8656,0.6984,0.5322,0.0,0.0,0.0,0.0,0.0,0.0,0.0,0.0,0.0,0.0,0.0,0.0,0.0,0.0,0.0,0.0,0.0,0.0,0.0,0.0,0.0,0.0,0.0,0.0,0.0,0.0,0.0,0.0,0.0,0.0,0.0,0.0,0.0,0.0,0.0,0.0,0.0,0.0,0.0,0.0,0.0,0.0,0.0,0.0,0.0,0.0,0.0,0.0,0.0,0.0,0.0,0.0,0.0,0.0,0.0,0.0,0.0,0.0,0.0,0.0,0.0,0.0,0.0,0.0,0.0,0.0,0.0,0.0,0.0,0.0,0.0,0.0,0.0,0.0,0.0,0.0,0.0,0.0,0.0,0.0,0.0,0.0,0.0,0.0,0.0,0.0,0.0,0.0,0.0,0.0,0.0,0.0,0.0,0.0,0.0,0.0,0.0,0.0,0.0,0.0,0.0,0.0,1.151,1.1847,1.1859,1.1768,1.144,1.094,1.0311,0.9337,0.7972,0.6705,0.0,0.0,0.0,0.0,0.0,0.0,0.0,0.0,0.0,0.0,0.0,0.0,0.0,0.0,0.0,0.0,0.0,0.0,0.0,0.0,0.0,0.0,0.0,0.0,0.0,0.0,0.0,0.0,0.0,0.0,0.0,0.0,0.0,0.0,0.0,0.0,0.0,0.0,0.0,0.0,0.0,0.0,0.0,0.0,0.0,0.0,0.0,0.0,0.0,0.0,0.0,0.0,0.0,0.0,0.0,0.0,0.0,0.0,0.0,0.0,0.0,0.0,0.0,0.0,0.0,0.0,0.0,0.0,0.0,0.0,0.0,0.0,0.0,0.0,0.0,0.0,0.0,0.0,0.0,0.0,0.0,0.0,0.0,0.0,0.0,0.0,0.0,0.0,0.0,0.0,0.0,0.0,0.0,0.0,0.0,0.0,0.0,0.0,0.0,0.0,0.0,0.0,1.2397,1.2604,1.2465,1.2397,1.219,1.1651,1.1063,1.0232,0.9042,0.7764,0.0,0.0,0.0,0.0,0.0,0.0,0.0,0.0,0.0,0.0,0.0,0.0,0.0,0.0,0.0,0.0,0.0,0.0,0.0,0.0,0.0,0.0,0.0,0.0,0.0,0.0,0.0,0.0,0.0,0.0,0.0,0.0,0.0,0.0,0.0,0.0,0.0,0.0,0.0,0.0,0.0,0.0,0.0,0.0,0.0,0.0,0.0,0.0,0.0,0.0,0.0,0.0,0.0,0.0,0.0,0.0,0.0,0.0,0.0,0.0,0.0,0.0,0.0,0.0,0.0,0.0,0.0,0.0,0.0,0.0,0.0,0.0,0.0,0.0,0.0,0.0,0.0,0.0,0.0,0.0,0.0,0.0,0.0,0.0,0.0,0.0,0.0,0.0,0.0,0.0,0.0,0.0,0.0,0.0,0.0,0.0,0.0,0.0,0.0,0.0,0.0,0.0,1.3544,1.3907,0.0,1.3444,1.311,1.2708,1.2036,1.1157,1.008,0.0,0.0,0.0,0.0,0.0,0.0,0.0,0.0,0.0,0.0,0.0,0.0,0.0,0.0,0.0,0.0,0.0,0.0,0.0,0.0,0.0,0.0,0.0,0.0,0.0,0.0,0.0,0.0,0.0,0.0,0.0,0.0,0.0,0.0,0.0,0.0,0.0,0.0,0.0,0.0,0.0,0.0,0.0,0.0,0.0,0.0,0.0,0.0,0.0,0.0,0.0,0.0,0.0,0.0,0.0,0.0,0.0,0.0,0.0,0.0,0.0,0.0,0.0,0.0,0.0,0.0,0.0,0.0,0.0,0.0,0.0,0.0,0.0,0.0,0.0,0.0,0.0,0.0,0.0,0.0,0.0,0.0,0.0,0.0,0.0,0.0,0.0,0.0,0.0,0.0,0.0,0.0,0.0,0.0,0.0,0.0,0.0,0.0,0.0,0.0,0.0,0.0,1.4311,1.5003,1.5366,0.0,1.4941,1.4633,1.4116,1.3471,1.2625,1.1554,0.0,0.0,0.0,0.0,0.0,0.0,0.0,0.0,0.0,0.0,0.0,0.0,0.0,0.0,0.0,0.0,0.0,0.0,0.0,0.0,0.0,0.0,0.0,0.0,0.0,0.0,0.0,0.0,0.0,0.0,0.0,0.0,0.0,0.0,0.0,0.0,0.0,0.0,0.0,0.0,0.0,0.0,0.0,0.0,0.0,0.0,0.0,0.0,0.0,0.0,0.0,0.0,0.0,0.0,0.0,0.0,0.0,0.0,0.0,0.0,0.0,0.0,0.0,0.0,0.0,0.0,0.0,0.0,0.0,0.0,0.0,0.0,0.0,0.0,0.0,0.0,0.0,0.0,0.0,0.0,0.0,0.0,0.0,0.0,0.0,0.0,0.0,0.0,0.0,0.0,0.0,0.0,0.0,0.0,0.0,0.0,0.0,0.0,0.0,0.0,0.0,0.0,1.5746,1.6605,1.7011,1.6615,1.6915,1.6808,1.5928,1.5508,1.4734,0.0,0.0,0.0,0.0,0.0,0.0,0.0,0.0,0.0,0.0,0.0,0.0,0.0,0.0,0.0,0.0,0.0,0.0,0.0,0.0,0.0,0.0,0.0,0.0,0.0,0.0,0.0,0.0,0.0,0.0,0.0,0.0,0.0,0.0,0.0,0.0,0.0,0.0,0.0,0.0,0.0,0.0,0.0,0.0,0.0,0.0,0.0,0.0,0.0,0.0,0.0,0.0,0.0,0.0,0.0,0.0,0.0,0.0,0.0,0.0,0.0,0.0,0.0,0.0,0.0,0.0,0.0,0.0,0.0,0.0,0.0,0.0,0.0,0.0,0.0,0.0,0.0,0.0,0.0,0.0,0.0,0.0,0.0,0.0,0.0,0.0,0.0,0.0,0.0,0.0,0.0,0.0,0.0,0.0,0.0,0.0,0.0,0.0,0.0,0.0,0.0,0.0,0.0,1.6891,1.7518,1.8006,1.8279,1.8116,1.7797,1.725,1.6825,1.5984,1.4502,0.0,0.0,0.0,0.0,0.0,0.0,0.0,0.0,0.0,0.0,0.0,0.0,0.0,0.0,0.0,0.0,0.0,0.0,0.0,0.0,0.0,0.0,0.0,0.0,0.0,0.0,0.0,0.0,0.0,0.0,0.0,0.0,0.0,0.0,0.0,0.0,0.0,0.0,0.0,0.0,0.0,0.0,0.0,0.0,0.0,0.0,0.0,0.0,0.0,0.0,0.0,0.0,0.0,0.0,0.0,0.0,0.0,0.0,0.0,0.0,0.0,0.0,0.0,0.0,0.0,0.0,0.0,0.0,0.0,0.0,0.0,0.0,0.0,0.0,0.0,0.0,0.0,0.0,0.0,0.0,0.0,0.0,0.0,0.0,0.0,0.0,0.0,0.0,0.0,0.0,0.0,0.0,0.0,0.0,0.0,0.0,0.0,0.0,0.0,0.0,0.0,0.0,1.8307,1.9103,1.9632,1.9912,1.9835,1.9555,1.9054,1.8592,1.7716,1.6104,0.0,0.0,0.0,0.0,0.0,0.0,0.0,0.0,0.0,0.0,0.0,0.0,0.0,0.0,0.0,0.0,0.0,0.0,0.0,0.0,0.0,0.0,0.0,0.0,0.0,0.0,0.0,0.0,0.0,0.0,0.0,0.0,0.0,0.0,0.0,0.0,0.0,0.0,0.0,0.0,0.0,0.0,0.0,0.0,0.0,0.0,0.0,0.0,0.0,0.0,0.0,0.0,0.0,0.0,0.0,0.0,0.0,0.0,0.0,0.0,0.0,0.0,0.0,0.0,0.0,0.0,0.0,0.0,0.0,0.0,0.0,0.0,0.0,0.0,0.0,0.0,0.0,0.0,0.0,0.0,0.0,0.0,0.0,0.0,0.0,0.0,0.0,0.0,0.0,0.0,0.0,0.0,0.0,0.0,0.0,0.0,0.0,0.0,0.0,0.0,0.0,0.0,1.985,2.092,2.1554,2.1389,2.1855,2.1826,2.0979,2.0614,1.9696,1.7925,0.0,0.0,0.0,0.0,0.0,0.0,0.0,0.0,0.0,0.0,0.0,0.0,0.0,0.0,0.0,0.0,0.0,0.0,0.0,0.0,0.0,0.0,0.0,0.0,0.0,0.0,0.0,0.0,0.0,0.0,0.0,0.0,0.0,0.0,0.0,0.0,0.0,0.0,0.0,0.0,0.0,0.0,0.0,0.0,0.0,0.0,0.0,0.0,0.0,0.0,0.0,0.0,0.0,0.0,0.0,0.0,0.0,0.0,0.0,0.0,2.2402,0.0,0.0,0.0,0.0,0.0,0.0,0.0,0.0,0.0,0.0,0.0,0.0,0.0,0.0,0.0,0.0,0.0,0.0,0.0,0.0,0.0,0.0,0.0,0.0,0.0,0.0,0.0,0.0,0.0,0.0,0.0,0.0,0.0,0.0,0.0,0.0,0.0,0.0,0.0,0.0,0.0,2.1018,2.1672,2.2167,2.2557,2.2498,2.2215,2.1847,2.1774,2.1046,1.9414,1.8379,0.0,0.0,0.0,0.0,0.0,0.0,0.0,0.0,0.0,0.0,0.0,0.0,0.0,0.0,0.0,0.0,0.0,0.0,0.0,0.0,0.0,0.0,0.0,0.0,0.0,0.0,0.0,0.0,0.0,0.0,0.0,0.0,0.0,0.0,0.0,0.0,0.0,0.0,0.0,0.0,0.0,0.0,0.0,0.0,0.0,0.0,0.0,0.0,0.0,0.0,0.0,0.0,0.0,0.0,0.0,0.0,0.0,0.0,0.0,0.0,2.3283,0.0,0.0,0.0,0.0,0.0,0.0,0.0,0.0,0.0,0.0,0.0,0.0,0.0,0.0,0.0,0.0,0.0,0.0,0.0,0.0,0.0,0.0,0.0,0.0,0.0,0.0,0.0,0.0,0.0,0.0,0.0,0.0,0.0,0.0,0.0,0.0,0.0,0.0,0.0,0.0,2.2376,2.3118,2.3682,2.3995,2.4027,2.3947,2.3614,2.3324,2.2616,2.1308,2.0369,0.0,0.0,0.0,0.0,0.0,0.0,0.0,0.0,0.0,0.0,0.0,0.0,0.0,0.0,0.0,0.0,0.0,0.0,0.0,0.0,0.0,0.0,0.0,0.0,0.0,0.0,0.0,0.0,0.0,0.0,0.0,0.0,0.0,0.0,0.0,0.0,0.0,0.0,0.0,0.0,0.0,0.0,0.0,0.0,0.0,0.0,0.0,0.0,0.0,0.0,0.0,0.0,0.0,3.1172,3.121,3.0835,3.1229,3.0953,3.0181,2.7767,2.6173,2.5123,2.4542,0.0,0.0,0.0,0.0,0.0,0.0,0.0,0.0,0.0,0.0,0.0,0.0,0.0,0.0,0.0,0.0,0.0,0.0,0.0,0.0,0.0,0.0,0.0,0.0,2.6533,2.6228,0.0,0.0,0.0,0.0,0.0,0.0,0.0,0.0,0.0,0.0,0.0,0.0,2.3635,2.4671,2.5328,2.5328,2.5617,2.572,2.5393,2.4915,2.4173,2.3185,2.2282,2.1109,0.0,0.0,0.0,0.0,0.0,0.0,0.0,0.0,0.0,0.0,0.0,0.0,0.0,0.0,0.0,0.0,0.0,0.0,0.0,0.0,0.0,0.0,0.0,0.0,0.0,0.0,0.0,0.0,0.0,0.0,0.0,0.0,3.1211,3.0883,0.0,0.0,0.0,0.0,0.0,0.0,0.0,0.0,0.0,0.0,0.0,0.0,0.0,3.1752,3.2131,3.2573,3.2794,3.2814,3.3256,3.3337,3.3151,3.3252,3.3184,3.2963,3.2605,0.0,2.8164,2.7602,0.0,0.0,0.0,0.0,0.0,0.0,0.0,0.0,0.0,0.0,0.0,0.0,0.0,0.0,0.0,0.0,0.0,0.0,0.0,0.0,0.0,0.0,2.8967,2.9664,2.9605,2.9206,0.0,2.656,2.4783,2.4058,2.3876,0.0,0.0,0.0,0.0,0.0,0.0,0.0,2.4467,2.5302,2.5828,2.5828,2.6227,2.6336,2.6007,2.5898,2.5397,2.4316,2.3891,2.2933,2.1302,2.0054,0.0,0.0,0.0,0.0,0.0,0.0,0.0,0.0,0.0,0.0,0.0,0.0,0.0,0.0,0.0,0.0,0.0,0.0,0.0,0.0,0.0,0.0,0.0,0.0,0.0,0.0,0.0,0.0,0.0,3.2614,3.3111,3.2258,3.2194,3.1848,0.0,0.0,0.0,0.0,0.0,0.0,0.0,0.0,0.0,3.404,3.4684,3.5299,3.5707,3.6173,3.6279,3.5964,3.6347,3.626,3.5682,3.6118,3.617,3.5935,3.6053,3.5183,3.3466,3.1419,2.9621,2.8138,0.0,0.0,0.0,0.0,2.6379,2.7298,2.7439,2.7454,0.0,2.7663,0.0,0.0,0.0,0.0,0.0,0.0,0.0,0.0,0.0,0.0,3.0921,3.1046,3.115,3.0867,2.9683,2.8582,2.7456,0.0,2.5833,2.5429,2.4621,0.0,0.0,0.0,0.0,2.4735,2.5585,2.6698,2.7375,2.7375,2.7743,2.7941,2.778,2.7672,2.715,2.621,2.5848,2.4939,2.3261,2.2171,2.1077,0.0,0.0,0.0,0.0,0.0,0.0,0.0,0.0,0.0,0.0,0.0,0.0,0.0,0.0,0.0,0.0,0.0,0.0,0.0,0.0,0.0,0.0,0.0,0.0,0.0,0.0,0.0,0.0,3.436,3.5173,3.4285,3.4253,3.3912,0.0,0.0,0.0,0.0,0.0,0.0,3.5835,3.6445,3.6889,3.7022,3.765,3.821,3.8613,3.8989,3.8927,3.8574,3.8997,3.8773,3.8049,3.8659,3.8768,3.8424,3.8662,3.8426,3.773,3.4837,3.2747,3.1291,3.0588,3.0309,3.0099,2.9411,2.9741,3.0558,3.0544,3.0266,3.0013,3.0218,2.9515,2.8652,2.8806,0.0,0.0,0.0,0.0,3.0027,3.134,3.2252,3.278,3.2541,3.2671,3.2348,3.0737,3.0313,2.9732,0.0,2.7542,2.7149,2.6436,0.0,0.0,0.0,0.0,2.5752,2.6594,2.7778,2.8533,2.8533,2.889,2.9103,2.9051,2.8862,2.8416,2.7583,2.7341,2.6546,2.5082,2.424,2.3233,2.2052,0.0,0.0,0.0,0.0,0.0,0.0,0.0,0.0,0.0,0.0,0.0,0.0,0.0,0.0,0.0,0.0,0.0,0.0,0.0,0.0,0.0,0.0,0.0,0.0,0.0,0.0,0.0,0.0,0.0,3.7265,3.6432,0.0,0.0,0.0,0.0,3.6299,3.7135,3.7781,3.8253,3.8342,3.8567,3.9017,3.9084,3.9354,3.9786,3.9809,3.9809,3.9809,4.0303,4.0259,3.9891,4.0334,4.0398,4.0059,4.0118,3.9836,3.9205,3.7291,3.5892,3.4967,3.407,3.3742,3.3675,3.3211,3.3346,3.381,3.4173,3.3757,3.2974,3.3025,3.1753,3.039,3.0864,3.0392,0.0,0.0,3.1935,3.1945,3.4275,3.4728,3.468,3.5085,3.4751,3.397,3.2567,3.198,3.1086,0.0,2.8736,2.8446,2.7108,0.0,2.6801,2.5909,2.6207,2.6698,2.7095,2.8005,2.8597,2.8597,2.9021,2.9218,2.8919,2.889,2.8611,2.7937,2.7868,2.7544,2.6791,2.6108,2.5411,2.4657,2.3951,0.0,0.0,0.0,0.0,0.0,0.0,0.0,0.0,0.0,0.0,0.0,0.0,0.0,0.0,0.0,0.0,0.0,0.0,0.0,0.0,0.0,0.0,0.0,0.0,0.0,0.0,0.0,0.0,3.9658,4.0166,0.0,3.9521,3.922,3.9465,4.0472,4.2158,4.3214,4.3429,4.3764,4.386,4.3631,4.3607,4.3559,4.3354,4.3354,4.3187,4.289,4.302,4.2688,4.1883,4.2252,4.2171,4.1696,4.1923,4.1685,4.117,4.0505,3.8737,3.6534,3.6541,3.6124,3.5497,3.5015,3.5155,3.5544,3.5381,3.4819,3.4124,3.3499,3.3012,3.2715,3.2599,3.2762,3.3112,3.3459,3.37,3.4179,3.5395,3.5737,3.5778,3.5561,3.5345,3.4634,3.2582,3.1763,3.1252,3.064,3.0481,3.0263,2.9755,2.9483,2.9195,2.8791,2.8611,2.8566,2.8656,2.946,3.0016,3.0016,3.0125,3.0322,3.0537,3.0101,2.9741,2.9566,2.9354,2.9041,2.8516,2.8296,2.7729,2.6797,2.6581,2.5424,0.0,0.0,0.0,0.0,0.0,0.0,0.0,0.0,0.0,0.0,0.0,0.0,0.0,0.0,0.0,0.0,0.0,0.0,0.0,0.0,0.0,0.0,0.0,0.0,0.0,4.0974,4.2408,4.2271,4.3028,4.331,4.2716,4.2365,4.264,4.3654,4.5267,4.6179,4.6179,4.6352,4.6142,4.5576,4.5552,4.5404,4.4999,4.5232,4.5036,4.4495,4.4495,4.3989,4.3012,4.3243,4.3116,4.2706,4.293,4.2715,4.2213,4.2213,4.0661,3.834,3.887,3.8532,3.7738,3.7429,3.7404,3.7425,3.6946,3.6512,3.6004,3.4944,3.4824,3.504,3.4703,3.4944,3.5354,3.5354,3.5452,3.5769,3.6521,3.667,3.6552,3.6015,3.5698,3.4967,3.2859,3.1898,3.154,3.1533,3.1526,3.1412,3.1251,3.1204,3.0939,3.0311,3.0144,3.0027,3.0007,3.0643,3.1088,3.1088,3.088,3.088,3.1113,3.0652,3.0377,3.0354,3.0308,3.017,2.992,2.992,2.9442,2.8439,2.7745,2.6524,2.4613,0.0,0.0,0.0,0.0,0.0,0.0,0.0,0.0,0.0,0.0,0.0,0.0,0.0,0.0,0.0,0.0,0.0,0.0,0.0,0.0,0.0,0.0,0.0,4.1564,4.282,4.4061,4.5059,4.4674,4.4611,4.5203,4.4222,4.4213,4.573,4.6129,4.6229,4.6179,4.5626,4.5109,4.4544,4.4519,4.4519,4.4495,4.5036,4.5036,4.4495,4.4495,4.4107,4.3333,4.3333,4.3205,4.2986,4.2986,4.2715,4.2213,4.2213,4.153,4.0601,4.105,4.0924,4.0501,4.0501,4.0149,3.9622,3.9044,3.8894,3.8668,3.7513,3.7161,3.7161,3.7136,3.6832,3.6631,3.7613,3.7136,3.6631,3.7638,3.7538,3.6985,3.648,3.5906,3.5031,3.342,3.2616,3.2039,3.1512,3.1747,3.1841,3.1342,3.1971,3.2051,3.0435,3.0652,0.0,3.0989,3.1424,3.1761,3.1761,3.1187,3.0745,3.0577,3.0553,3.0399,3.0181,3.0629,3.0979,3.0979,3.0979,3.044,2.9494,2.7574,2.6096,2.5166,0.0,0.0,0.0,0.0,0.0,0.0,0.0,0.0,0.0,0.0,0.0,0.0,0.0,0.0,0.0,0.0,0.0,0.0,0.0,0.0,0.0,4.2134,4.3044,4.3389,4.4981,4.6291,4.6759,4.7307,4.7734,4.7629,4.7611,4.7691,4.812,4.8465,4.8308,4.7483,4.6872,4.6149,4.5285,4.526,4.4976,4.4577,4.5126,4.5126,4.4552,4.4552,4.4261,4.3676,4.3676,4.3432,4.2986,4.2986,4.2715,4.2213,4.2213,4.1756,4.105,4.0774,4.04,3.9923,3.9923,3.9823,3.9546,3.8592,3.8241,3.8065,3.6983,3.6631,3.6556,3.6107,3.6157,3.6304,3.5755,3.5658,3.583,3.6085,3.606,3.5809,3.5303,3.5052,3.46,3.3345,3.2315,3.1687,3.1938,3.2045,3.2228,3.2544,3.3727,3.4243,3.3046,3.2996,0.0,3.2549,3.2624,3.2723,3.2723,3.1811,3.1348,3.1702,3.138,3.1289,3.1575,3.1748,3.2062,3.2457,3.2087,3.1544,3.0852,2.8895,2.7609,0.0,0.0,0.0,0.0,0.0,0.0,0.0,0.0,0.0,0.0,0.0,0.0,0.0,0.0,0.0,0.0,0.0,0.0,0.0,0.0,0.0,0.0,4.3961,4.516,4.565,4.6731,4.7595,4.792,4.8679,4.9072,4.9032,4.9072,4.9137,4.9332,4.9461,4.9088,4.7958,4.7205,4.6276,4.5171,4.4895,4.4618,4.4292,4.4844,4.4844,4.4267,4.4267,4.3991,4.3463,4.3463,4.3288,4.2986,4.2986,4.2534,4.1806,4.1806,4.1354,0.0,0.0,0.0,0.0,0.0,3.9697,3.9572,3.8668,3.8366,3.8191,3.7109,3.6757,3.6558,3.5734,3.5755,3.583,3.4977,3.4906,3.5157,3.5157,3.5157,3.5006,3.45,3.4374,3.4073,3.2943,3.2273,3.1928,3.2028,3.2272,0.0,3.2659,3.3903,3.455,3.3696,3.3545,3.3445,3.3162,3.3111,3.2993,3.2742,3.1913,3.1436,3.1537,3.1461,0.0,0.0,0.0,3.2717,3.3111,3.229,0.0,0.0,0.0,0.0,0.0,0.0,0.0,0.0,2.5775,2.6462,0.0,0.0,0.0,0.0,0.0,0.0,0.0,0.0,0.0,0.0,0.0,0.0,0.0,0.0,0.0,0.0,4.5867,4.7367,4.7957,4.8133,4.8347,4.8875,4.9032,4.9267,4.959,4.9332,4.9267,4.959,4.959,4.9088,4.7883,0.0,0.0,0.0,0.0,4.379,4.379,4.4292,4.4242,4.3714,4.3714,4.3463,4.2986,4.2986,4.2986,4.2986,4.2986,4.2359,4.1275,4.1275,4.0701,3.9798,4.0777,4.0852,4.0375,3.9873,3.9697,3.9597,3.8994,0.0,0.0,3.7462,3.7086,3.6885,3.5734,3.5408,3.5282,3.47,3.4525,3.4525,3.455,3.457,3.4444,3.4054,3.3928,3.3651,3.2685,3.2599,3.2628,3.2118,3.2521,3.2772,3.2323,3.3073,3.3607,3.3054,3.2978,3.2978,3.2978,3.2978,3.2777,3.2206,0.0,0.0,3.0698,3.1165,3.1468,3.1468,3.2525,3.3129,3.3054,3.2097,3.1568,3.1568,3.0338,2.9408,2.8782,2.9509,2.9553,2.9043,2.853,2.8745,0.0,0.0,0.0,0.0,0.0,0.0,0.0,0.0,0.0,0.0,0.0,0.0,0.0,0.0,0.0,4.5725,4.7027,4.81,4.8661,4.9504,4.9926,4.9478,4.9475,4.9525,4.959,4.9525,4.9525,4.959,4.959,4.8912,4.7355,4.6677,4.5799,4.4669,4.4091,4.379,4.379,4.3915,4.3689,4.3137,0.0,0.0,4.2986,4.2986,4.2986,4.2986,4.2986,4.2359,4.1275,4.1275,4.0701,3.9722,3.9923,3.9948,3.9848,3.9747,3.9697,3.9546,3.8517,3.8165,3.799,3.6933,3.6556,3.6355,3.5203,3.4831,0.0,3.3671,3.3395,3.3438,3.3586,3.3758,3.3947,3.4016,3.4202,3.425,3.4017,3.3807,3.363,3.3499,3.337,3.3198,3.3093,3.3068,3.2893,3.2306,3.2204,3.2204,3.2204,3.2204,3.2179,3.2051,3.1541,3.1198,3.1096,3.1632,3.1964,3.1964,3.2986,3.3394,3.2935,3.2705,3.2618,3.2618,3.1939,3.1411,3.1135,3.1297,3.1533,3.182,3.0589,3.0194,0.0,0.0,0.0,0.0,0.0,0.0,0.0,0.0,0.0,0.0,0.0,4.5686,4.6798,0.0,4.7638,4.8452,4.9265,5.0029,5.0582,5.1487,5.157,5.027,5.0104,5.0104,5.0104,5.0104,4.9977,4.9723,4.9698,4.9089,4.7694,4.706,4.6375,4.5537,4.4675,4.4244,4.4244,4.3796,4.3518,4.3432,4.3295,4.3321,4.3432,4.3295,4.3144,4.3,4.2835,4.2229,4.1273,4.089,4.0278,3.9697,3.9826,3.9826,3.9697,3.9697,3.9697,3.9546,3.8391,3.8015,3.7814,3.6782,3.6452,3.637,3.5562,3.54,3.5263,3.4147,3.3842,3.3852,3.3887,3.4121,3.4428,3.4759,3.5061,3.5305,3.5305,3.5291,3.5234,3.5234,3.4683,3.4197,3.4197,3.3571,3.2928,3.266,3.2593,3.2593,3.2593,3.2593,3.2489,3.2241,3.1954,3.1705,3.1392,3.2176,3.2934,3.3509,3.3755,3.3781,3.3494,3.292,3.2672,3.2672,3.2306,3.2032,3.1954,3.247,3.2909,3.325,3.2516,3.2187,0.0,0.0,0.0,0.0,0.0,0.0,0.0,4.7172,4.7581,4.7718,4.846,4.9283,4.9774,5.0072,5.0451,5.0993,5.1537,5.2054,5.2625,5.3283,5.3032,5.1351,5.1116,5.1131,5.1131,5.1131,5.0924,5.0354,5.0328,4.9809,4.8669,4.8125,4.7633,4.7088,4.5922,4.5326,4.524,4.4156,4.3738,4.401,4.3738,4.3738,4.3955,4.3738,4.3431,4.3056,4.2636,4.2076,4.1389,4.0517,4.0032,3.98,4.0083,4.0134,4.0058,3.9828,3.9778,3.9626,3.8538,3.8133,3.7956,3.7017,3.6803,3.6887,3.6371,3.6399,3.6347,3.521,3.4857,3.4856,3.4721,3.4924,3.5346,3.5749,3.616,3.6448,3.6448,3.6671,3.6855,3.6855,3.6024,3.5317,3.5317,3.4271,3.3401,3.3214,3.3196,3.3196,3.3196,3.3196,3.3035,3.2589,3.2535,3.2465,3.2196,3.3084,3.4134,3.5319,3.4794,3.4471,3.4471,3.345,3.2885,3.2885,3.2745,3.2684,3.2791,3.3595,3.4126,3.4433,3.4246,3.4015,4.1974,4.4103,4.6822,4.7699,4.9247,5.0547,0.0,5.0436,5.0657,5.1238,5.1404,5.168,5.2259,5.1927,5.1789,5.248,5.2589,5.2779,5.3416,5.3964,5.4098,5.3253,5.3185,5.3207,5.3207,5.3207,5.2877,5.2257,5.223,5.1632,5.0474,5.034,5.0044,4.9508,4.8378,4.7484,4.7014,4.5383,4.4424,4.4258,4.4424,4.4424,4.4258,4.4479,4.4113,4.3327,4.2267,4.1905,4.1929,4.0875,4.0287,4.0083,4.0338,4.082,4.1267,4.0301,3.9997,3.9842,3.8921,3.8626,3.8496,3.7846,3.7821,3.7899,3.7366,3.736,3.7316,3.613,3.5812,3.5805,3.5575,3.5856,3.6255,3.6649,3.7116,3.7424,3.7424,3.7606,3.7758,3.7758,3.6901,3.6143,3.6143,3.5102,3.402,3.3304,3.3226,3.3226,3.3226,3.3226,3.3198,3.3114,3.3114,3.3533,3.4603,3.4827,3.5414,3.6615,3.6074,3.5701,3.5701,3.5022,3.4622,3.4622,3.4622,3.4798,3.5239,3.5311,3.5709,3.6286,3.5681,3.4905,4.448,4.7185,4.9956,5.0634,5.2744,5.4597,5.4255,5.474,5.531,5.5595,5.5937,5.6165,5.6022,5.5453,5.5082,5.5367,5.5424,5.5453,5.568,5.6306,5.6335,5.5339,5.4828,5.4172,5.3069,5.3253,5.312,5.2103,5.2435,5.2106,5.0843,5.0845,5.0543,4.994,4.9063,4.8299,4.7568,4.5955,4.5262,4.5529,4.5262,4.5103,4.497,4.4785,4.4124,4.3073,4.2611,4.2339,4.2236,4.1676,4.1298,4.1045,4.108,4.1364,4.1673,4.0927,4.087,4.1069,4.0079,3.9787,3.9771,3.9222,3.9166,3.9332,3.9131,3.9223,3.9149,3.7965,3.7635,3.751,3.6939,3.7106,3.7529,3.791,3.8323,3.8649,3.8649,3.8723,3.876,3.876,3.7771,3.6921,3.6921,3.5857,3.4931,3.4572,3.4167,3.3894,3.3894,3.3894,3.3894,3.3894,3.3894,3.4266,3.5153,3.5203,3.5611,3.6442,3.589,3.5575,3.5575,3.4939,3.4596,3.4596,3.4832,3.5273,3.5833,3.5684,3.5996,3.6741,3.5739,3.5102,4.6805,4.9572,5.2078,5.2891,5.5358,5.7477,5.7042,5.7797,5.8523,5.8348,5.8552,5.861,5.8116,5.7332,5.6955,5.7507,5.7419,5.7448,5.7797,5.8116,5.7884,5.6781,5.591,5.4783,5.3276,5.3667,5.3555,5.2575,5.3079,5.2911,5.1679,5.1623,5.1315,5.067,5.0026,4.9253,4.8301,4.6883,4.6374,4.6742,4.6211,4.5912,4.584,4.5078,4.4276,4.3539,4.3312,4.3136,4.3033,4.2722,4.2479,4.2279,4.2072,4.2254,4.2554,4.1871,4.1734,4.1819,4.0952,4.0769,4.0789,4.0414,4.0447,4.059,4.0378,4.0492,4.0434,3.9228,3.8887,3.8712,3.8045,3.8127,3.8464,3.8797,3.9156,3.9373,3.9373,3.9373,3.9373,3.9373,3.8332,3.7404,3.7404,3.6357,3.5519,3.5519,3.5063,3.4698,3.4698,3.4698,3.4698,3.4698,3.4698,3.4961,3.5575,3.5634,3.5897,3.6512,3.5985,3.5634,3.5634,3.5019,3.4698,3.4698,3.5001,3.5543,3.6393,3.6041,3.636,3.7259,3.6008,3.5496,4.8554,5.0832,5.2862,5.4139,5.6374,5.8261,5.8261,5.8784,5.9103,5.8435,5.7797,5.7361,5.7332,5.6316,5.6084,5.7971,5.771,5.7768,5.9074,5.8697,5.8058,5.7361,5.6171,5.513,0.0,5.4989,5.5076,5.4438,5.496,5.4757,5.3482,5.3395,5.3106,5.252,5.186,5.094,4.9722,4.8562,4.7847,4.7671,4.7231,4.6951,4.6623,4.5449,4.4961,4.5096,4.4291,4.42,4.4591,4.4078,4.3862,4.3779,4.3398,4.3749,4.4263,4.3228,4.2295,4.1487,4.1327,4.1268,4.1268,4.1268,4.1436,4.1517,4.0871,4.0833,4.0735,3.946,3.9083,3.8977,3.8564,3.8612,3.8833,3.9017,3.9265,3.9373,3.9373,3.9373,3.9373,3.9373,3.8332,3.7404,3.7404,3.6357,3.5519,3.5519,3.5457,3.5487,3.5487,3.5487,3.5487,3.5487,3.5487,3.5726,3.6384,3.6443,3.6712,3.734,3.6802,3.6443,3.6443,3.5816,3.5487,3.5487,3.5487,3.6115,3.737,3.6772,3.7131,3.8327,3.7041,3.6443,4.9783,5.1998,5.4168,5.5445,5.739,5.9074,5.948,6.009,6.0264,5.919,5.8435,5.7826,5.739,5.6955,5.7013,5.8116,5.8813,5.9248,5.9306,5.9451,5.8987,5.7477,5.6578,0.0,0.0,0.0,0.0,5.3268,5.3791,5.3791,5.292,5.3297,5.3036,5.1962,5.173,5.089,4.9473,4.8745,4.8154,4.7829,4.6906,4.6328,4.6031,4.5327,4.4959,4.4837,4.4965,4.5064,4.5173,4.4533,4.4317,4.4203,4.3398,4.3301,4.3642,4.3143,4.2779,4.2473,4.2433,4.2537,4.2618,4.2618,4.2404,4.2129,4.1893,4.1577,4.1083,4.0224,3.9958,3.9809,3.9261,3.9156,3.9228,3.9265,3.9337,3.9373,3.9373,3.9373,3.9373,3.9373,3.8332,3.7404,3.7404,3.6357,3.5519,3.5519,3.5519,3.5519,3.5519,3.5519,3.5519,3.5519,3.5519,3.5579,3.5818,3.5848,3.5938,3.6148,3.5938,3.5848,3.5848,3.5639,3.5519,3.5519,3.5519,3.5938,3.6806,3.6148,3.6297,3.7105,3.6237,3.5848,5.0752,5.2819,5.4771,5.5921,5.7567,5.9045,5.9422,6.0032,6.0148,5.8842,5.771,5.6897,5.6665,5.6258,5.6374,5.771,5.9016,5.9829,5.9655,5.9771,5.9422,5.8174,5.7071,5.5823,0.0,0.0,0.0,5.2281,5.2804,5.3007,5.2652,5.3181,5.2949,5.1672,5.1614,5.0904,4.9453,4.9079,4.8551,4.7884,4.6831,4.6153,4.5756,4.5493,4.5321,4.5247,4.5566,4.575,4.5651,4.5186,4.4938,4.4675,4.3751,4.3495,4.3614,4.3248,4.313,4.313,4.313,4.321,4.329,4.329,4.288,4.2351,4.2111,4.1384,4.0546,3.9858,3.9679,3.9589,3.917,3.923,3.9373,3.9373,3.9373,3.9373,3.9373,3.9373,3.9373,3.9373,3.8332,3.7404,3.7404,3.6357,3.5519,3.5519,3.5519,3.5519,3.5519,3.5519,3.5519,3.5519,3.5519,3.5519,3.5519,3.5519,3.5519,3.5519,3.5519,3.5519,3.5519,3.5519,3.5519,3.5519,3.5519,3.5818,3.6477,3.5818,3.5848,3.6477,3.5818,3.5519,5.1384,5.3323,5.4794,5.5704,5.7108,5.8319,5.8348,5.8842,5.89,5.7536,5.5765,5.4633,5.5155,5.4284,5.4284,5.6752,5.8377,5.948,6.0032,5.9684,5.9335,5.9248,5.7623,5.62,5.5445,5.3704,0.0,5.1672,0.0,5.2565,5.2507,5.3094,5.2891,5.1614,5.1556,5.0946,4.964,4.9553,4.8914,4.7724,4.7085,4.6475,4.5895,4.5895,4.6001,4.6225,4.6195,4.6109,4.601,4.5921,4.5632,4.5185,4.4526,4.4257,4.4197,4.3529,4.329,4.329,4.329,4.329,4.329,4.329,4.288,4.2231,4.1602,4.0427,3.923,3.8571,3.8362,3.8362,3.8392,3.8871,3.9379,3.9373,3.9373,3.9373,3.9373,3.9373,3.9373,3.9373,3.8332,3.7375,3.7315,3.6297,3.5519,3.5519,3.5519,3.5519,3.5519,3.5519,3.5519,3.5519,3.5519,3.5519,3.5519,3.5519,3.5519,3.5519,3.5519,3.5519,3.5519,3.5519,3.5519,3.5519,3.5519,3.5818,3.6447,3.5818,3.5818,3.6417,3.5789,3.5519,5.0904,5.3301,5.5392,5.6391,5.7456,5.8435,5.8929,5.919,5.8784,5.7013,5.5097,5.3675,5.3355,5.3036,5.3326,5.4952,5.7507,5.919,5.8842,5.948,5.9626,5.8668,5.8116,5.7013,5.4952,5.3849,0.0,0.0,5.1759,5.1672,5.1178,5.2194,5.2223,5.0946,5.0917,5.0278,4.8972,4.8014,4.7404,4.7056,4.6446,4.604,4.5895,4.5895,4.6001,4.6195,4.5903,4.5827,4.5921,4.5078,4.4654,4.4496,4.3838,4.3529,4.3529,4.3349,4.329,4.329,4.329,4.329,4.329,4.329,4.2551,4.1632,4.1482,4.0098,3.8631,3.8452,3.8033,3.7764,3.8272,3.8512,3.8781,3.929,3.9373,3.9373,3.9373,3.9373,3.9373,3.9373,3.8332,3.7105,3.6148,3.5729,3.5519,3.5519,3.5519,3.5519,3.5519,3.5519,3.5519,3.5519,3.5519,3.5519,3.5519,3.5519,3.5519,3.5519,3.5519,3.5519,3.5519,3.5519,3.5519,3.5519,3.5519,3.5579,3.5759,3.5579,3.5579,3.5759,3.5579,3.5519,5.0883,5.3182,5.5147,5.5727,5.6623,5.7507,5.7565,5.739,5.681,5.5416,5.3384,5.1904,5.2107,5.1933,5.2339,5.4197,5.6723,5.8406,5.8319,5.8668,5.8668,5.7942,5.7623,5.6694,5.4691,5.4168,5.3297,0.0,5.1614,5.1468,5.1091,5.202,5.2042,5.0714,5.0734,5.0046,4.8692,4.7416,4.6778,4.6778,4.6185,4.5895,4.5866,4.5576,4.5638,4.5889,0.0,4.5187,4.5186,4.4534,4.4137,4.3798,4.3439,4.329,4.329,4.329,4.329,4.329,4.329,4.315,4.291,4.291,4.2222,4.1324,4.1025,3.9559,3.7973,3.7973,3.7494,3.7135,3.7793,3.8182,3.8571,3.926,3.9373,3.9373,3.9373,3.9373,3.926,3.8661,3.7913,3.7015,3.5729,3.5519,3.5519,3.5519,3.5519,3.5519,3.5519,3.5519,3.5519,3.5519,3.5519,3.5519,3.5519,3.5519,3.5519,3.5519,3.5519,3.5519,3.5519,3.5519,3.5519,3.5519,3.5519,3.5519,3.5519,3.5519,3.5519,3.5519,3.5519,3.5519,5.0827,5.2863,5.4359,5.4392,5.5395,5.62,5.5474,5.4807,5.4168,5.3413,5.1265,4.993,5.1149,5.0975,5.1468,5.3878,5.5968,5.7448,5.7855,5.7507,5.7158,5.7071,5.6607,5.5823,5.4633,5.4575,5.382,5.1904,5.1759,5.1643,5.1381,5.1962,5.181,5.0618,5.0415,4.9756,4.8624,4.7346,4.6662,4.6662,4.6156,4.5837,4.5721,4.514,4.5113,4.5416,4.4781,4.4413,4.4317,4.4227,4.3798,4.329,4.329,4.329,4.329,4.329,4.329,4.329,4.329,4.297,4.253,4.244,4.1901,4.1145,4.0576,3.899,3.7404,3.7404,3.6896,3.6507,3.7225,3.7823,3.8452,3.923,3.9373,3.9373,3.9373,3.9373,3.902,3.7674,3.7404,3.7015,3.5729,3.5519,3.5519,3.5519,3.5519,3.5519,3.5519,3.5519,3.5519,3.5519,3.5519,3.5519,3.5519,3.5519,3.5519,3.5519,3.5519,3.5519,3.5519,3.5519,3.5519,3.5519,3.5519,3.5519,3.5519,3.5519,3.5519,3.5519,3.5519,3.5519,4.9852,5.1865,5.3648,5.3665,5.5055,5.6113,5.4923,5.4168,5.3355,5.2194,5.0307,4.9117,4.9872,5.0415,5.1228,5.271,5.5387,5.6984,5.6026,5.6287,5.6345,5.5794,5.5649,5.53,5.4575,5.4952,0.0,0.0,5.2397,5.1701,5.0104,5.0705,5.0656,4.9921,4.8827,4.8188,4.7956,4.6679,4.604,4.604,4.5924,4.5605,4.5053,4.4937,4.485,4.4752,4.4133,0.0,4.4287,4.3678,4.3379,4.329,4.329,4.329,4.329,4.329,4.329,4.329,4.329,4.323,4.306,4.256,4.1602,4.0546,4.0427,3.899,3.7404,3.7404,3.6567,3.5938,3.7105,3.7494,3.7883,3.914,3.9373,3.9373,3.9373,3.9373,3.902,3.7674,3.7404,3.7015,3.5729,3.5519,3.5519,3.5519,3.5519,3.5519,3.5519,3.5519,3.5519,3.5519,3.5519,3.5519,3.5519,3.5519,3.5519,3.5519,3.5519,3.5519,3.5519,3.5519,3.5519,3.5519,3.5519,3.5519,3.5519,3.5519,3.5519,3.5519,3.5519,3.5519,4.9938,5.1583,5.2964,5.2869,5.3867,5.4518,5.3093,5.2121,5.1236,5.0307,4.8808,4.7927,4.8566,4.9233,5.0075,5.1432,5.3704,5.5126,5.4517,5.4691,5.4778,5.4458,5.4429,5.4313,5.4023,5.4575,5.4139,5.2223,5.2078,5.1527,5.0328,5.0162,4.9843,4.9204,4.8275,4.7608,4.7288,4.6359,4.5895,4.5895,4.5547,4.5198,4.4879,4.4211,4.4004,4.4103,4.3455,4.3404,4.3738,4.3409,4.329,4.329,4.329,4.329,4.329,4.329,4.329,4.329,4.329,4.312,4.2761,4.25,4.1752,4.0786,4.0098,3.8721,3.7404,3.7404,3.6477,3.5789,3.7075,3.7404,3.7764,3.9074,3.9373,3.9373,3.9373,3.9373,3.914,3.8123,3.7913,3.7524,3.6237,3.6028,3.5908,3.5549,3.5519,3.5519,3.5519,3.5519,3.5519,3.5519,3.5519,3.5519,3.5519,3.5519,3.5519,3.5519,3.5519,3.5519,3.5519,3.5519,3.5519,3.5519,3.5519,3.5519,3.5519,3.5519,3.5519,3.5519,3.5519,3.5699,5.0232,5.1356,5.2189,5.1765,5.2434,5.2662,5.0978,4.9944,4.9088,4.8449,4.7358,4.6824,4.7462,4.8101,4.8943,5.0249,5.2049,5.3268,5.3123,5.3239,5.3268,5.3123,5.3239,5.3326,5.3326,5.4052,0.0,5.1759,5.1352,5.0975,5.0481,4.9843,4.9233,4.874,4.7985,4.7346,4.6778,4.6214,4.5895,4.5866,4.5198,4.4821,4.4647,4.3557,4.3228,4.3455,4.2965,4.297,0.0,4.329,4.329,4.329,4.329,4.329,4.329,4.329,4.329,4.329,4.329,4.3,4.256,4.2291,4.1752,4.0965,3.9948,3.8601,3.7404,3.7404,3.6477,3.5789,3.7075,3.7404,3.7764,3.9074,3.9373,3.9373,3.9373,3.9373,3.92,3.8512,3.8392,3.7973,3.6716,3.6477,3.6267,3.5609,3.5519,3.5519,3.5519,3.5519,3.5519,3.5519,3.5519,3.5519,3.5519,3.5519,3.5519,3.5519,3.5519,3.5519,3.5519,3.5519,3.5519,3.5519,3.5519,3.5519,3.5519,3.5519,3.5519,3.5519,3.5639,3.5998,5.004,5.0879,5.1347,5.0371,5.0925,5.1251,4.9218,4.8325,4.7782,4.7097,4.6446,4.6156,4.6795,4.7433,4.8275,4.9553,5.1381,5.2455,5.1875,5.2281,5.2455,5.1875,5.231,5.271,5.271,5.3791,5.3704,5.1759,5.0511,4.9814,4.9756,4.9175,4.8769,4.8663,4.7503,4.6836,4.6778,4.6214,4.5895,4.5866,4.5198,4.4589,4.4037,4.351,4.3089,4.2777,4.289,4.309,0.0,4.329,4.329,4.329,4.329,4.329,4.329,4.329,4.329,4.329,4.329,4.326,4.3021,4.1863,4.1025,4.0457,4.0337,3.896,3.7404,3.7404,3.6477,3.5789,3.7075,3.7404,3.7764,3.9074,3.9373,3.9373,3.9373,3.9373,3.92,3.8512,3.8392,3.7973,3.6716,3.6477,3.6267,3.5609,3.5519,3.5519,3.5519,3.5519,3.5519,3.5519,3.5519,3.5519,3.5519,3.5519,3.5519,3.5519,3.5519,3.5519,3.5519,3.5519,3.5519,3.5519,3.5519,3.5519,3.5519,3.5519,3.5519,3.5519,3.6118,3.6417,4.9457,5.0269,5.0779,4.9818,5.0005,4.9933,4.8078,4.7386,4.7027,4.6388,4.6069,4.5953,4.6214,4.6766,4.7375,4.7869,4.9582,5.0598,4.9959,5.0772,5.1323,5.1091,5.1265,5.1585,0.0,0.0,5.2281,5.1149,5.0191,4.9717,4.9717,4.9059,4.8537,4.8159,4.7288,4.6695,4.6424,4.6207,4.6135,4.6314,4.5258,4.4571,4.435,4.3365,4.2924,4.289,4.2941,4.313,0.0,4.329,4.329,4.329,4.329,4.329,4.329,4.329,4.329,4.329,4.329,4.306,4.2671,4.2171,4.0995,3.9798,3.9798,3.8691,3.7404,3.7404,3.6477,3.5699,3.6626,3.7434,3.8242,3.92,3.9373,3.9373,3.9373,3.9373,3.9313,3.905,3.902,3.8601,3.7255,3.7045,3.6686,3.5669,3.5519,3.5519,3.5519,3.5519,3.5519,3.5519,3.5519,3.5519,3.5519,3.5519,3.5519,3.5519,3.5519,3.5519,3.5519,3.5519,3.5519,3.5519,3.5519,3.5519,3.5519,3.5519,3.5699,3.6118,3.6357,3.6896,4.8673,4.9609,5.0115,4.9187,4.9057,4.8707,4.7151,4.6681,4.6417,4.5982,4.5895,4.5895,4.5895,4.6243,4.6621,4.6749,4.813,4.903,4.8769,4.9698,5.0307,5.0133,5.0104,5.0278,5.0714,5.0996,5.1096,5.0933,5.0242,4.9815,4.9815,4.8933,4.8246,4.7782,4.6998,4.6421,4.6225,4.6225,4.6226,4.6197,4.5122,4.4474,4.4183,4.323,4.289,4.2981,4.3061,4.317,0.0,4.329,4.329,4.329,4.329,4.329,4.329,4.329,4.329,4.329,4.329,4.291,4.2381,4.2171,4.0876,3.9343,3.917,3.8182,3.7135,3.7135,3.6477,3.5908,3.6357,3.7434,3.8512,3.899,3.926,3.9373,3.9373,3.9373,3.9313,3.914,3.911,3.8691,3.7375,3.7135,3.6776,3.5669,3.5519,3.5519,3.5519,3.5519,3.5519,3.5519,3.5519,3.5519,3.5519,3.5519,3.5519,3.5519,3.5519,3.5519,3.5519,3.5519,3.5519,3.5519,3.5519,3.5519,3.5519,3.5699,3.6028,3.6507,3.6866,3.7644,4.7782,4.8736,4.9316,4.8268,4.7848,4.7433,4.6456,4.6053,4.5895,4.5895,4.5895,4.5895,4.5895,4.5895,4.6098,4.6691,4.7375,4.8014,4.8653,4.9291,4.9446,4.8779,4.8692,4.8692,4.8721,4.9591,5.0447,5.1307,5.0583,0.0,5.0086,4.8621,4.7782,4.7782,4.6563,4.603,4.6225,4.6225,4.5903,4.5303,4.4801,4.4154,4.3286,4.3105,4.2981,4.3021,4.321,4.329,0.0,4.329,4.329,4.329,4.329,4.329,4.329,4.329,4.329,4.329,4.329,4.291,4.2291,4.1632,4.0487,3.929,3.8601,3.7494,3.6507,3.6507,3.6477,3.6477,3.6477,3.7434,3.8392,3.8392,3.8931,3.9373,3.9373,3.9373,3.92,3.8542,3.8392,3.8003,3.6716,3.6507,3.6267,3.5609,3.5519,3.5519,3.5519,3.5519,3.5519,3.5519,3.5519,3.5519,3.5519,3.5519,3.5519,3.5519,3.5519,3.5519,3.5519,3.5519,3.5519,3.5519,3.5519,3.5519,3.5519,3.6148,3.6477,3.6507,3.7793,3.8751,4.5522,4.6753,4.7629,4.6535,4.6724,4.6892,4.5797,4.5742,4.575,4.5285,4.5198,4.5082,4.4676,4.4589,4.4647,4.485,4.5401,4.604,4.6708,4.7724,4.8478,4.8711,4.9262,4.9668,0.0,0.0,5.0464,5.0766,5.0129,4.9604,4.9461,4.8121,4.7532,4.78,4.6534,4.609,4.6447,4.5874,4.5639,4.5779,4.4571,4.3909,4.3785,4.3267,4.309,4.321,4.325,4.329,0.0,4.329,4.329,4.329,4.329,4.329,4.329,4.329,4.306,4.2671,4.2671,4.1654,4.0307,4.0098,3.8841,3.7375,3.7165,3.6806,3.6387,3.5938,3.5818,3.5908,3.6357,3.7105,3.7823,3.8272,3.8901,3.9373,3.9373,3.9373,3.9349,3.914,3.908,3.8661,3.7345,3.7494,3.7434,3.6327,3.6537,3.6806,3.6806,3.6806,3.6806,3.6806,3.6806,3.6447,3.5579,3.5519,3.5519,3.5519,3.5519,3.5699,3.6148,3.6178,3.6387,3.6806,3.6806,3.6806,3.6806,3.7015,3.7345,3.7793,3.8691,3.92,4.3689,4.507,4.5993,4.5368,4.5755,4.6106,4.5463,4.5619,4.5692,4.5024,4.4879,4.4705,4.4095,4.4065,4.4108,4.4108,4.4486,4.5113,4.6018,4.704,4.8033,4.8909,4.952,4.9897,0.0,5.0165,5.0425,5.0757,5.007,4.9592,4.9422,4.8077,4.744,4.7683,4.6599,4.618,4.6609,4.5917,4.5532,4.5509,4.4413,4.379,4.3482,4.3229,4.317,4.329,4.329,4.329,0.0,4.329,4.329,4.329,4.329,4.329,4.329,4.329,4.291,4.241,4.241,4.1055,3.9373,3.9373,3.8093,3.6447,3.6178,3.6118,3.6028,3.5609,3.5519,3.5639,3.6327,3.6956,3.7584,3.8242,3.8901,3.9373,3.9373,3.9373,3.9349,3.908,3.902,3.8601,3.7285,3.7584,3.7674,3.6626,3.7015,3.7404,3.7404,3.7404,3.7404,3.7404,3.7404,3.7075,3.6297,3.6031,3.5857,3.5587,3.5892,3.6192,3.6547,3.6884,3.7218,3.7507,3.7575,3.7575,3.7507,3.7708,3.8123,3.8781,3.923,3.9373,0.0,4.3514,4.4382,4.4525,4.4862,4.5156,4.5161,4.5506,0.0,4.4879,4.4763,4.456,4.3993,4.4048,4.4177,4.4278,4.4418,4.5017,4.6344,4.7124,4.8067,4.941,4.9604,4.9698,4.9948,4.9948,5.0279,5.1063,5.0279,4.9799,4.9753,4.8308,4.7448,4.7448,4.6651,4.6358,4.6624,4.6148,4.5496,4.4706,4.434,4.3686,4.2729,4.309,4.329,0.0,4.329,4.329,0.0,4.329,4.329,4.329,4.329,4.326,4.323,4.323,4.2821,4.2261,4.2261,4.0935,3.9224,3.9134,3.7913,3.6297,3.5699,3.5519,3.5519,3.5519,3.5519,3.5639,3.6267,3.6896,3.7554,3.8182,3.8871,3.9373,3.9373,3.9373,3.923,3.8571,3.8452,3.8063,3.6836,3.7135,3.7345,3.6716,3.7135,3.7554,3.7554,3.7554,3.7554,3.7554,3.7588,3.7558,3.7528,3.7064,3.6532,3.5933,3.6639,3.7033,3.6896,3.767,3.8034,3.7926,3.8065,3.8065,3.7858,3.8287,3.8781,3.9373,3.9373,3.9373,3.9749,0.0,4.2192,4.2662,4.3361,4.3909,0.0,4.4202,4.424,4.3573,4.3427,4.3296,4.2852,4.2789,4.3089,4.3725,4.3897,4.4381,4.5636,4.7258,4.8791,5.0117,5.0425,5.0538,5.0585,5.0279,5.0209,5.0405,4.9359,4.8611,4.8357,4.7496,4.6993,4.6815,4.6756,4.6756,4.6844,4.5559,4.4908,4.4929,4.369,4.3038,4.29,4.3021,4.317,4.329,4.329,4.329,4.329,4.329,4.329,4.329,4.329,4.303,4.262,4.262,4.1863,4.0876,4.0876,3.9559,3.7704,3.6746,3.6118,3.5699,3.5549,3.5519,3.5519,3.5519,3.5519,3.5549,3.5699,3.6567,3.7434,3.7614,3.8542,3.9373,3.9373,3.9373,3.9343,3.92,3.917,3.8901,3.8093,3.8512,3.8721,3.8033,3.8512,3.896,3.896,3.9073,3.9143,3.9143,3.9315,3.9173,3.8663,3.7926,3.7573,3.7822,3.794,3.8244,3.8834,3.8916,3.9253,3.9845,3.9879,3.9742,3.9455,3.9253,3.926,3.9373,3.9373,3.9373,3.8417,3.932,4.0431,4.1258,4.2095,4.2765,4.3038,4.3579,4.3805,4.3137,4.3076,4.2986,4.2509,4.2555,4.2935,4.3737,4.4146,4.509,4.702,4.8431,4.9766,5.1101,5.1393,5.1458,0.0,5.0687,5.0196,5.0196,4.9015,4.8222,4.8089,4.7463,4.7019,4.6917,4.7019,4.7019,4.6931,4.5582,4.4971,4.4971,4.3593,4.297,4.2981,4.313,4.321,4.329,4.329,4.329,4.329,4.329,4.329,4.329,4.329,4.294,4.241,4.241,4.1572,4.0397,4.0397,3.908,3.7195,3.5908,3.5519,3.5519,3.5519,3.5519,3.5519,3.5519,3.5519,3.5579,3.5878,3.6686,3.7494,3.7793,3.8661,3.9373,3.9373,3.9373,3.9373,3.9373,3.9373,3.92,3.8512,3.896,3.92,3.8482,3.896,3.9373,3.9373,3.9589,3.9773,4.0056,4.0231,4.0286,4.0158,3.9787,3.9356,3.877,3.9146,3.9487,3.9699,4.0137,4.0513,4.0854,4.0684,4.0409,4.0086,3.9625,3.9373,3.9373,3.9373,3.9373,3.7864,3.8366,3.9045,4.0185,4.1146,4.1964,4.2461,4.3324,4.3805,4.3179,4.316,4.3182,4.2708,4.2917,4.3426,4.4359,4.5299,4.6681,4.9,4.9823,5.0644,5.1917,5.2067,0.0,5.2067,5.087,5.0046,5.0046,4.8865,4.8147,4.8147,4.7608,4.7309,4.7309,4.7309,4.7163,4.6826,4.5819,4.5161,4.4906,4.3807,4.321,4.3021,4.321,4.329,4.329,0.0,0.0,4.329,4.329,4.329,4.329,4.329,4.288,4.2261,4.2261,4.1362,4.0068,3.9858,3.8691,3.7075,3.5878,3.5519,3.5519,3.5519,3.5519,3.5519,3.5519,3.5519,3.5639,3.6327,3.6956,3.7584,3.8242,3.8901,3.9373,3.9373,3.9373,3.9373,3.9373,3.9409,3.9266,3.8702,3.9092,3.9301,3.8737,3.9122,3.9481,3.9481,3.9696,4.0056,4.0512,4.0721,4.106,4.1558,4.1787,4.1246,3.9692,4.0388,4.0736,4.038,4.1241,4.1654,4.139,4.1024,4.065,4.0266,3.9696,3.9373,3.9373,3.9373,3.9373,3.7864,3.8065,3.8541,4.0083,4.1146,4.1964,4.2461,4.3324,4.3848,4.3348,4.3274,4.3382,4.3708,4.3801,4.4477,4.6476,4.7878,4.885,4.9239,4.9823,5.0465,5.1289,0.0,5.1379,5.1379,5.0182,4.9404,4.9404,4.8207,4.7459,4.7459,4.7369,4.7309,4.7309,4.7309,4.6997,4.6386,4.5693,4.5005,4.4385,4.3648,4.329,4.325,4.329,4.329,4.329,0.0,4.329,4.329,4.329,4.329,4.329,4.329,4.2581,4.1572,4.1572,4.0374,3.8542,3.7464,3.6896,3.6507,3.5759,3.5519,3.5519,3.5519,3.5519,3.5519,3.5519,3.5519,3.5639,3.6327,3.6956,3.7584,3.8242,3.8901,3.9373,3.9373,3.9373,3.9373,3.9373,3.9553,3.9631,3.951,3.9743,3.9844,3.9788,3.9814,3.9905,3.9905,4.0331,4.0715,4.0891,4.136,4.1754,4.2013,4.2301,4.2425,4.2326,4.2171,4.2077,4.2045,4.2301,4.227,4.1817,4.1524,4.1091,4.0439,3.9732,3.9373,3.9373,3.9373,3.9373,3.7412,3.7563,3.801,3.9848,4.158,4.2991,4.3499,4.4709,4.5449,4.4586,4.4259,4.4275,4.4484,4.4906,4.6045,4.8462,4.9105,4.9569,5.0212,5.0272,5.0435,5.1139,0.0,5.1229,5.1229,5.0032,4.9299,4.9299,4.8057,4.7309,4.7309,4.7309,4.7309,4.7309,4.695,4.6441,4.5783,4.5095,4.4616,4.4317,4.3618,4.329,4.329,4.329,4.329,4.329,0.0,4.329,4.329,4.329,4.329,4.329,4.329,4.2761,4.1811,4.0726,3.9738,3.8721,3.7075,3.6477,3.6387,3.5729,3.5519,3.5519,3.5519,3.5519,3.5519,3.5519,3.5759,3.6118,3.6417,3.7195,3.8003,3.8332,3.8901,3.9373,3.9373,3.9373,3.9373,3.9373,3.9553,3.9773,4.0091,4.0266,4.0474,4.0752,4.0786,4.0786,4.0786,4.1125,4.1333,4.1278,4.1596,4.178,4.1727,4.2234,4.2687,4.299,4.2806,4.2681,4.2681,4.2555,4.2302,4.1914,4.1458,4.0956,4.0335,3.9696,3.9373,3.9373,3.9373,3.9373,3.7036,3.7186,3.7632,3.961,4.1679,4.353,4.4463,4.5977,4.6943,4.6079,4.5677,4.5488,4.5531,4.6194,4.7429,4.9418,4.9613,4.9853,5.084,5.0644,5.0614,5.1169,5.1079,5.099,5.099,4.9793,4.909,4.909,4.7967,4.7309,4.7309,4.7309,4.7309,4.7309,4.6681,4.5992,4.5304,4.4646,4.4227,4.4077,4.3529,4.329,4.329,4.329,4.329,4.329,4.329,4.329,4.329,4.329,4.329,4.329,4.329,4.2851,4.1901,3.9738,3.896,3.8691,3.6896,3.6267,3.6178,3.5669,3.5519,3.5519,3.5519,3.5519,3.5519,3.5519,3.5968,3.6507,3.6656,3.7434,3.8242,3.8571,3.902,3.9373,3.9373,3.9373,3.9373,3.9373,3.9589,3.9945,4.0443,4.0718,4.1024,4.1558,4.1624,4.1624,4.1624,4.1819,4.1885,4.1581,4.1762,4.1799,4.1418,4.2208,4.2815,4.2939,4.3047,4.3023,4.2961,4.2618,4.2238,4.1817,4.1192,4.065,4.0161,3.9661,3.9373,3.9373,3.9373,3.9373,3.7036,3.7186,3.7632,3.9561,4.1095,4.2664,4.4769,4.6257,4.7297,4.7629,4.7184,4.6826,4.7073,4.7698,4.8207,4.8386,4.9404,5.0166,5.0255,5.0734,5.1169,5.1199,5.0644,5.0255,5.0255,4.9134,4.8356,4.8356,4.7698,4.7309,4.7309,4.7309,4.7309,4.7309,4.6681,4.5992,4.5304,4.4646,4.4018,4.3349,4.3319,4.329,4.329,4.329,4.329,4.329,4.329,4.329,4.329,4.329,4.329,4.329,4.329,4.2551,4.1183,3.8512,3.7554,3.7375,3.6028,3.5579,3.5579,3.5519,3.5519,3.5519,3.5519,3.5519,3.5519,3.5519,3.5968,3.6626,3.7195,3.7404,3.7793,3.905,3.9343,3.9373,3.9373,3.9373,3.9373,3.9373,3.9696,4.0121,4.0615,4.099,4.1456,4.198,4.2077,4.2077,4.2077,4.2333,4.2357,4.1829,4.2064,4.2034,4.1446,4.2704,4.3234,4.2576,4.3171,4.3386,4.3113,4.2741,4.2269,4.1621,4.0888,4.037,3.998,3.9589,3.9373,3.9373,3.9373,3.9373,3.6656,3.6433,3.6622,3.8696,4.0208,4.192,4.4648,4.746,4.9284,4.8668,4.8745,4.8731,4.8057,4.8117,4.8416,4.888,4.9643,5.0196,5.0196,5.0764,5.1229,5.1229,5.0584,5.0196,5.0196,4.9045,4.8297,4.8297,4.7668,4.7309,4.7309,4.7309,4.713,4.6711,4.6052,4.5364,4.4676,4.3977,4.3529,4.329,4.329,4.329,4.329,4.329,4.329,4.329,4.329,4.329,4.329,4.329,4.329,4.326,4.288,4.247,4.1722,3.899,3.8033,3.7793,3.6088,3.5519,3.5519,3.5519,3.5519,3.5519,3.5519,3.5519,3.5519,3.5519,3.5699,3.6028,3.6656,3.7135,3.7644,3.8571,3.8781,3.8901,3.932,3.9373,3.9373,3.9373,3.9696,4.0261,4.106,4.1524,4.2077,4.2898,4.3021,4.3021,4.3021,4.3143,4.2775,4.1683,4.1271,4.1385,4.2009,4.2175,4.2307,4.2473,4.3168,4.3419,4.2959,4.2523,4.198,4.129,4.0944,4.0659,4.0438,4.0574,4.0636,4.0636,4.0636,4.0636,3.6405,3.5956,3.5941,3.7909,3.9473,4.1224,4.4058,4.7521,5.002,4.9459,4.9626,4.9583,4.8476,4.8117,4.8267,4.9179,4.9464,4.9717,5.0136,5.0451,5.0601,5.0601,5.0032,4.9613,4.9613,4.8626,4.7967,4.7967,4.7549,4.7219,4.701,4.698,4.6681,4.6022,4.5334,4.4766,4.4317,4.3618,4.329,4.329,4.329,4.329,4.329,4.329,4.329,4.329,4.329,4.329,4.329,4.329,4.317,4.291,4.1833,4.1482,4.1183,3.8691,3.7793,3.7554,3.6028,3.5519,3.5519,3.5519,3.5519,3.5519,3.5519,3.5519,3.5519,3.5519,3.5519,3.5609,3.6058,3.6656,3.7285,3.7913,3.8277,3.8647,3.9062,3.9403,3.9589,3.9589,3.9945,4.0543,4.1426,4.1981,4.2586,4.3479,4.3598,4.3598,4.3598,4.3598,4.3102,4.1877,4.1342,4.1342,4.2075,4.1877,4.1844,4.2142,4.2605,4.2766,4.248,4.1885,4.1462,4.123,4.0888,4.0818,4.0919,4.122,4.1422,4.1422,4.1422,4.1422,3.6405,3.5956,3.5865,3.739,3.8917,4.0582,4.2822,4.6209,4.9161,5.003,4.9733,4.912,4.8416,4.7758,4.7758,4.909,4.876,4.8745,4.9986,4.9673,4.9299,4.9299,4.8686,4.8297,4.8297,4.7698,4.7309,4.7309,4.7309,4.701,4.6309,4.6279,4.5992,4.5304,4.4646,4.4317,4.4317,4.3618,4.329,4.329,4.329,4.329,4.329,4.329,4.329,4.329,4.329,4.329,4.329,4.329,4.294,4.2201,4.0187,3.9373,3.9134,3.7225,3.6477,3.6387,3.5729,3.5519,3.5519,3.5519,3.5519,3.5519,3.5519,3.5519,3.5519,3.5519,3.5519,3.5519,3.5519,3.5998,3.6626,3.7255,3.8052,3.8702,3.8702,3.9385,3.998,4.0011,4.0436,4.1021,4.1689,4.2237,4.2834,4.3509,4.3598,4.3598,4.3598,4.3598,4.33,4.2572,4.2506,4.2208,4.1508,4.2075,4.2175,4.1446,4.1409,4.1424,4.1486,4.0801,4.0751,4.1489,4.0801,4.0726,4.1422,4.1422,4.1414,4.1414,4.1414,4.1414,3.6051,3.584,3.5941,3.7909,3.9609,4.1267,4.3434,4.6665,4.9657,5.1289,5.072,4.9733,4.9149,4.885,4.8656,4.8596,4.885,4.9149,4.9494,4.9419,4.9299,4.9299,4.8686,4.8297,4.8297,4.7698,4.7309,4.7309,4.686,4.6488,4.6279,4.5873,4.5304,4.4616,4.4407,4.4077,4.3589,4.3379,4.329,4.329,4.329,4.329,4.329,4.329,4.329,4.329,4.329,4.329,4.326,4.2851,4.256,4.2201,4.0187,3.9373,3.9134,3.7225,3.6477,3.6387,3.5729,3.5519,3.5519,3.5519,3.5519,3.5519,3.5519,3.5519,3.5519,3.5519,3.5519,3.5519,3.5519,3.5737,3.6072,3.663,3.703,3.7657,3.8974,3.9545,4.0059,4.0896,4.1325,4.1688,4.2269,4.2618,4.2959,4.3539,4.3598,4.3598,4.3598,4.3135,4.2936,4.3234,4.2804,4.2605,4.2903,4.2175,4.1844,4.2142,4.1243,4.1247,4.2447,4.1726,4.174,4.2598,4.2247,4.2122,4.2333,4.2629,4.2761,4.2761,4.2761,4.2761,3.6011,3.6268,3.6836,3.9007,4.0908,4.3009,4.5921,4.7983,4.9808,5.1468,5.0913,5.0076,4.9733,4.9224,4.888,4.8686,4.8566,4.8566,4.888,4.8656,4.8476,4.8476,4.8147,4.7908,4.7908,4.7549,4.7309,4.7309,4.6681,4.616,4.5933,4.5274,4.4616,4.3917,4.3888,4.3708,4.329,4.329,4.329,4.329,4.329,4.329,4.329,4.329,4.329,4.329,4.306,4.294,4.2851,4.1683,4.1205,4.0995,3.902,3.8242,3.8063,3.6626,3.6088,3.6028,3.5639,3.5519,3.5519,3.5519,3.5519,3.5519,3.5519,3.5519,3.5519,3.5519,3.5519,3.5519,3.5519,3.5589,3.5778,3.6099,3.6663,3.7416,3.8608,3.9273,4.0003,4.1085,4.1534,4.1916,4.2584,4.2929,4.3207,4.3539,4.3598,4.3598,4.3598,4.3201,4.3102,4.3532,4.3201,4.3102,4.3565,4.2506,4.2009,4.2385,4.1267,4.1399,4.3164,4.2462,4.2582,4.3706,4.3267,4.3069,4.3218,4.3268,4.329,4.329,4.329,4.329,3.6064,3.7017,3.8216,4.0372,4.2583,4.5241,4.9169,4.9598,4.9553,5.093,5.0704,5.0285,5.0285,4.9314,4.8656,4.9299,4.8267,4.7608,4.8207,4.7728,4.7309,4.7309,4.7309,4.7309,4.7309,4.7309,4.7309,4.7309,4.6621,4.5963,4.5334,4.4616,4.3958,4.3319,4.329,4.329,4.329,4.329,4.329,4.329,4.329,4.329,4.329,4.329,4.329,4.326,4.2641,4.2381,4.2171,4.0217,3.9343,3.914,3.7225,3.6477,3.6417,3.5759,3.5519,3.5519,3.5519,3.5519,3.5519,3.5519,3.5519,3.5519,3.5519,3.5519,3.5519,3.5519,3.5519,3.5519,3.5519,3.5589,3.5752,3.5784,3.6718,3.7716,3.7966,3.8934,3.9971,4.086,4.1299,4.177,4.2702,4.3139,4.338,4.3598,4.3598,4.3598,4.3598,4.3598,4.3598,4.3598,4.3598,4.3631,4.3698,4.3002,4.258,4.2469,4.157,4.1887,4.3654,4.304,4.3297,4.4713,4.3987,4.37,4.3988,4.3527,4.329,4.329,4.329,4.329,3.5648,3.717,3.8779,4.0752,4.3257,4.5912,4.8311,4.8549,4.876,5.0794,5.1109,5.0973,5.0973,5.0315,4.9807,4.9956,4.8925,4.8117,4.8267,4.7728,4.7309,4.7309,4.7309,4.7309,4.7309,4.7309,4.7309,4.7309,4.6202,4.5454,4.5304,4.4197,4.3439,4.329,4.329,4.329,4.329,4.329,4.329,4.329,4.329,4.329,4.329,4.329,4.329,4.326,4.2641,4.2111,4.1512,4.0008,3.911,3.8452,3.7045,3.6477,3.6417,3.5759,3.5519,3.5519,3.5519,3.5519,3.5519,3.5519,3.5519,3.5519,3.5519,3.5519,3.5519,3.5519,3.5519,3.5519,3.5519,3.5716,3.6037,3.6384,3.6785,3.7463,3.8811,3.9421,4.004,4.1074,4.1383,4.1671,4.2459,4.265,4.2907,4.3499,4.3598,4.3598,4.3598,4.3598,4.3598,4.3598,4.3598,4.383,4.439,4.3794,4.3479,4.3764,4.28,4.2781,4.3968,4.3227,4.3595,4.5295,4.4545,4.4106,4.3988,4.3527,4.329,4.329,4.329,4.329,3.5304,3.7519,3.9954,4.2807,4.4561,4.6147,4.8108,4.811,4.8253,4.9956,5.0272,5.0272,5.0272,4.9733,4.9314,4.9314,4.8476,4.7818,4.7818,4.7519,4.7309,4.7309,4.7309,4.7309,4.7309,4.701,4.683,4.683,4.5574,4.4825,4.4825,4.3828,4.329,4.329,4.329,4.329,4.329,4.329,4.329,4.329,4.329,4.329,4.329,4.329,4.329,4.323,4.1983,4.1235,4.0756,3.8811,3.7793,3.7375,3.6417,3.6028,3.5968,3.5639,3.5519,3.5519,3.5519,3.5519,3.5519,3.5519,3.5519,3.5519,3.5519,3.5519,3.5519,3.5519,3.5519,3.5519,3.5519,3.5748,3.6164,3.6875,3.7147,3.7601,3.8768,3.9205,3.9659,4.0723,4.0912,4.1276,4.2307,4.2771,4.3267,4.4026,4.4125,4.4257,4.4622,4.4655,4.4655,4.4655,4.4655,4.4821,4.5185,4.4887,4.4636,4.459,4.3524,4.3296,4.4224,4.3211,4.3505,4.5258,4.4692,4.4266,4.3988,4.3527,4.329,4.329,4.329,4.329,3.5059,3.8014,4.1312,4.4864,4.5687,4.6132,4.7932,4.7922,4.7877,4.8939,4.9209,4.9299,4.9299,4.876,4.8297,4.8297,4.7728,4.7309,4.7309,4.7309,4.7309,4.7309,4.7309,4.7309,4.7309,4.6711,4.6279,4.6279,4.5065,4.4317,4.4317,4.3648,4.329,4.329,4.329,4.329,4.329,4.329,4.329,4.329,4.317,4.311,4.311,4.2901,4.2961,4.32,4.1384,4.0427,4.0038,3.7644,3.6507,3.6267,3.5729,3.5519,3.5519,3.5519,3.5519,3.5519,3.5519,3.5519,3.5519,3.5519,3.5519,3.5519,3.5519,3.5519,3.5519,3.5519,3.5519,3.5519,3.5519,3.5748,3.6196,3.7117,3.7506,3.7889,3.8572,3.8903,3.9259,4.0083,4.0409,4.0945,4.2109,4.3035,4.383,4.4589,4.4688,4.4953,4.5715,4.5682,4.5616,4.5616,4.5483,4.545,4.5582,4.5616,4.5364,4.4821,4.3717,4.3407,4.4038,4.2963,4.3088,4.4743,4.451,4.4236,4.3949,4.3488,4.329,4.329,4.329,4.329,3.4868,3.8713,4.2471,4.465,4.5312,4.5755,4.7023,4.7318,4.7572,4.8404,4.8983,4.9299,4.9299,4.876,4.8297,4.8297,4.7728,4.7309,4.7309,4.7309,4.7309,4.7309,4.7309,4.7309,4.7309,4.6711,4.6279,4.6279,4.5065,4.4317,4.4317,4.3648,4.329,4.329,4.329,4.329,4.329,4.329,4.329,4.329,4.2761,4.253,4.25,4.1324,4.1713,4.32,4.1863,4.0606,3.9439,3.7913,3.6626,3.5639,3.5549,3.5519,3.5519,3.5519,3.5519,3.5519,3.5519,3.5519,3.5519,3.5519,3.5519,3.5519,3.5519,3.5519,3.5519,3.5519,3.5519,3.5519,3.5519,3.5748,3.6133,3.6814,3.7328,3.7976,3.8985,3.9228,3.9288,3.9415,4.0415,4.1342,4.148,4.2671,4.383,4.4589,4.4688,4.4953,4.5715,4.5218,4.4851,4.4851,4.4291,4.4158,4.4787,4.4851,4.4574,4.3912,4.31,4.2711,4.2741,4.1977,4.2174,4.3536,4.3879,4.3949,4.3714,4.3409,4.329,4.329,4.329,4.329,3.6381,3.9092,4.1203,4.2857,4.331,4.3639,4.4725,4.5191,4.5722,4.6787,4.7405,4.7956,4.8611,4.8476,4.8177,4.7788,4.7818,4.7848,4.7848,4.8177,4.8267,4.7908,4.7519,4.716,4.68,4.5897,4.535,4.535,4.4599,4.4097,4.3978,4.3668,4.3478,4.329,4.329,4.329,4.329,4.329,4.329,4.329,4.2671,4.241,4.2351,4.0995,4.1085,4.2132,4.0427,3.9379,3.8751,3.7434,3.6357,3.5549,3.5908,3.5818,3.5549,3.5908,3.5818,3.5519,3.5519,3.5519,3.5519,3.5519,3.5519,3.5519,3.5519,3.5519,3.5519,3.5519,3.5519,3.5519,3.5519,3.5683,3.5975,3.6477,3.6936,3.7535,3.8507,3.8952,3.9175,3.9288,4.0448,4.1409,4.1409,4.2605,4.3962,4.5119,4.5317,4.5715,4.6874,4.6378,4.5914,4.5914,4.5284,4.4922,4.516,4.51,4.472,4.4008,4.2958,4.2521,4.2916,4.1942,4.2013,4.326,4.3488,4.3527,4.3478,4.3369,4.329,4.329,4.329,4.329,3.7171,3.8843,3.9825,4.1045,4.149,4.1878,4.2891,4.3639,4.4458,4.5677,4.6392,4.7139,4.8149,4.8342,4.8177,4.7848,4.8207,4.8536,4.8536,4.9,4.906,4.8356,4.7698,4.704,4.6381,4.5259,4.465,4.4809,4.4391,4.4026,4.391,4.3832,4.3636,4.329,4.329,4.329,4.329,4.329,4.329,4.329,4.2342,4.1901,4.1841,4.0157,3.9858,4.0546,3.923,3.8661,3.8542,3.7255,3.6327,3.5789,3.6118,3.5938,3.5579,3.6058,3.5938,3.5519,3.5519,3.5519,3.5519,3.5519,3.5519,3.5519,3.5519,3.5519,3.5519,3.5519,3.5519,3.5519,3.5519,3.5621,3.5879,3.6258,3.6847,3.7517,3.823,3.8761,3.9121,3.9255,4.0448,4.1409,4.1409,4.2605,4.4029,4.5317,4.5516,4.598,4.7272,4.6808,4.6344,4.6344,4.5682,4.5158,4.4971,4.4751,4.4302,4.3579,4.2362,4.1983,4.267,4.1836,4.1923,4.306,4.32,4.329,4.329,4.329,4.329,4.329,4.329,4.329,3.6071,3.7712,3.9146,3.9956,4.0798,4.1621,4.2464,4.3671,4.4979,4.6041,4.6862,4.7572,4.8316,4.8417,4.8476,4.912,4.9239,4.9269,4.9269,4.9299,4.906,4.8356,4.7698,4.704,4.6381,4.5259,4.4849,4.5409,4.471,4.4343,4.4434,4.4151,4.3793,4.3329,4.329,4.329,4.329,4.329,4.329,4.326,4.1414,4.0487,4.0427,3.7853,3.7375,3.8571,3.914,3.9379,3.9224,3.7913,3.6985,3.6387,3.5789,3.5519,3.5519,3.5549,3.5519,3.5519,3.5519,3.5519,3.5519,3.5519,3.5519,3.5519,3.5519,3.5519,3.5519,3.5519,3.5519,3.5519,3.5519,3.5748,3.6037,3.6164,3.7343,3.845,3.8561,3.8958,3.9315,3.9315,4.0448,4.1409,4.1409,4.2605,4.386,4.4622,4.4754,4.5019,4.5814,4.5251,4.4787,4.4787,4.4158,4.3578,4.3242,4.2934,4.2462,4.1782,4.0984,4.0708,4.1013,4.128,4.1752,4.244,4.303,4.329,4.329,4.329,4.329,4.329,4.329,4.329,3.4877,3.6006,3.6784,3.7081,3.7933,3.8915,3.9693,4.0807,4.21,4.3508,4.451,4.5761,4.7719,4.8381,4.885,4.9224,4.9613,4.9883,4.9883,5.0242,5.0272,4.9613,4.8207,4.704,4.6381,4.5062,4.4447,4.4994,4.4847,4.4723,4.4699,4.4381,4.3918,4.3329,4.329,4.329,4.329,4.329,4.329,4.326,4.1773,4.1025,4.0935,3.8272,3.7554,3.8392,3.8212,3.8362,3.8691,3.7793,3.7045,3.6477,3.6237,3.5878,3.5549,3.5968,3.5878,3.5519,3.5519,3.5519,3.5519,3.5519,3.5519,3.5519,3.5519,3.5519,3.5519,3.5519,3.5519,3.5519,3.5519,3.5653,3.6064,3.7094,3.8239,3.924,3.9877,4.0339,4.0647,4.0647,4.1442,4.2241,4.2738,4.3661,4.4556,4.5284,4.5384,4.5483,4.5748,4.5152,4.4688,4.4688,4.4059,4.3449,4.3023,4.2555,4.1981,4.1323,4.0578,4.0391,4.074,4.1175,4.1722,4.2381,4.3,4.329,4.329,4.329,4.329,4.329,4.329,4.329,3.4125,3.4806,3.5232,3.5232,3.5956,3.6832,3.7676,3.8751,4.0008,4.1564,4.2753,4.4375,4.7041,4.8097,4.8827,4.9807,5.0272,5.0524,5.0524,5.0913,5.0913,5.0255,4.8895,4.7608,4.6741,4.5404,4.4886,4.541,4.5186,0.0,4.511,4.4685,4.4073,4.3329,4.329,4.329,4.329,4.329,4.329,4.326,4.1773,4.1055,4.0965,3.8302,3.7434,3.8033,3.7375,3.7584,3.8332,3.7674,3.7199,3.6877,3.6397,3.6009,3.5711,3.6099,3.5947,3.5554,3.5522,3.5519,3.5519,3.5519,3.5522,3.5587,3.5587,3.5619,3.5651,3.5651,3.5834,3.6014,3.6014,3.6394,3.7213,3.8779,3.9704,4.0495,4.1452,4.1544,4.1409,4.1409,4.1976,4.2738,4.3466,4.4224,4.4953,4.5682,4.5781,4.5715,4.545,4.4986,4.4589,4.4357,4.3863,4.3388,4.2836,4.227,4.159,4.0919,4.0405,4.0275,4.0588,4.131,4.1961,4.2381,4.3,4.329,4.329,4.329,4.329,4.329,4.329,4.329,0.0,0.0,0.0,3.4625,3.5031,3.5676,3.651,3.7785,3.9097,4.0447,4.1807,4.3581,4.6443,4.7413,4.8506,5.0773,5.1199,5.1229,5.1229,5.1229,5.0943,5.0315,4.9673,4.882,4.7489,4.649,4.6137,4.6654,4.5765,4.5321,4.566,4.4993,4.4189,4.3329,4.329,4.329,4.329,4.329,4.329,4.326,4.1354,4.0427,4.0337,3.7738,3.6836,3.7375,3.678,3.7229,3.8337,3.7644,3.7507,3.7586,3.6263,3.5876,3.6034,3.5814,3.575,3.5718,3.5554,3.5519,3.5519,3.5519,3.5589,3.5688,3.572,3.5847,3.6037,3.6037,3.6523,3.704,3.7103,3.8081,3.944,4.1049,4.161,4.2138,4.3194,4.2385,4.1446,4.1446,4.2042,4.2771,4.3532,4.4257,4.4953,4.5715,4.5814,4.5549,4.4818,4.4688,4.4423,4.3664,4.3598,4.3295,4.2648,4.1917,4.1225,4.0509,4.0408,4.0397,4.0397,4.1692,4.241,4.241,4.3,4.329,4.329,4.329,4.329,4.329,4.329,4.329,3.2064,0.0,0.0,0.0,0.0,0.0,0.0,3.5941,3.7422,3.8777,4.0275,4.2183,4.4953,4.6234,4.7678,5.0087,5.0853,5.1229,5.1229,5.1229,5.1139,5.0913,4.9942,4.9179,4.8745,4.7033,4.6192,0.0,4.5897,4.5284,4.5478,4.4503,4.3832,4.3596,4.3369,4.329,4.329,4.329,4.329,4.326,4.1833,4.119,4.128,3.8602,3.7556,3.7809,3.7144,3.7325,3.805,3.7117,3.7117,3.765,3.717,3.7269,3.76,3.7178,3.6835,3.6514,3.5767,3.5519,3.5519,3.5519,3.5589,3.5752,3.6101,3.6352,3.66,3.6906,3.7527,3.8247,3.8874,3.9561,4.0339,4.1415,4.2002,4.2525,4.3373,4.3238,4.2969,4.2969,4.3168,4.3698,4.4986,4.5351,4.5748,4.6477,4.6609,4.6146,4.4854,4.4688,4.4393,4.3545,4.3325,4.2959,4.2302,4.159,4.0891,4.0335,4.0335,4.0397,4.0397,4.1692,4.241,4.241,4.3,4.329,4.329,4.329,4.329,4.329,4.329,4.329,3.168,3.2039,3.2265,3.1838,0.0,0.0,3.3445,3.4474,3.5798,3.7397,3.8833,4.0595,4.3333,4.4528,4.5786,4.7729,4.8919,4.9948,5.1063,5.1229,5.1229,5.1229,5.0541,4.9972,4.9703,4.8334,4.7513,4.7667,4.6477,4.5577,4.521,4.4465,4.3957,4.3832,4.3488,4.329,4.329,4.306,4.291,4.291,4.1324,4.0688,4.0812,3.8576,3.7684,3.7851,3.737,3.7558,3.8145,3.7551,3.7818,3.8547,3.8237,3.843,3.8741,3.7996,3.7526,3.7175,3.6088,3.5716,3.5716,3.5716,3.5878,3.6196,3.6508,3.6876,3.7178,3.7504,3.8352,3.9399,4.0635,4.1233,4.1634,4.2299,4.273,4.3069,4.3499,4.3598,4.3598,4.3598,4.3598,4.4062,4.5549,4.5781,4.6146,4.7206,4.7371,4.6941,4.5748,4.5616,4.5225,4.4282,4.3904,4.346,4.2776,4.2003,4.1379,4.0949,4.1113,4.1205,4.1205,4.2222,4.2761,4.2761,4.315,4.329,4.329,4.329,4.329,4.329,4.329,4.329,3.183,3.1712,0.0,3.1938,3.1712,0.0,3.2591,3.3319,3.4337,3.6105,3.7386,3.8935,4.1474,4.2371,4.3132,4.4383,4.5884,4.7829,5.0445,5.0973,5.1092,5.1199,5.1229,5.099,5.0375,4.9885,4.9307,4.8703,4.7353,4.6066,4.4936,4.4617,4.4351,4.4065,4.3596,4.3369,4.3369,4.2779,4.2488,4.2458,4.0404,3.9547,3.9702,3.8121,3.7557,3.7747,3.7614,3.8011,3.8676,3.874,3.9251,3.9864,3.9437,3.9535,3.9786,3.8779,3.8247,3.7872,3.6689,3.6224,3.6163,3.6163,3.6445,3.6815,3.6996,3.7417,3.7863,3.8194,3.9184,4.0562,4.2291,4.2836,4.3054,4.3358,4.3509,4.3598,4.3598,4.3598,4.3598,4.3698,4.3698,4.4161,4.5682,4.5914,4.6378,4.7802,4.8001,4.7736,4.6974,4.6908,4.6482,4.5405,4.4854,4.4325,4.3643,4.2869,4.2224,4.1923,4.2212,4.241,4.241,4.3,4.329,4.329,4.329,4.329,4.329,4.329,4.329,4.329,4.329,4.329,3.0869,3.116,3.1311,3.1009,3.116,0.0,3.1135,3.2215,3.3488,3.4312,3.5653,3.7208,3.8823,3.9546,4.0337,4.1723,4.3267,4.5286,4.7997,4.9397,5.0398,5.1122,5.1229,5.1169,5.105,5.0155,4.9642,4.9604,4.7824,4.6183,4.4974,4.4534,4.4305,4.4228,4.3832,4.3714,4.3871,4.3205,4.2872,4.2841,4.0697,3.9803,4.006,3.8383,3.781,3.8122,3.8513,3.9074,3.9777,4.0352,4.061,4.0642,4.0955,4.14,4.1788,4.1142,4.0346,3.9402,3.8368,3.7618,3.7147,3.7147,3.7235,3.7501,3.7908,3.8197,3.8743,4.0282,4.0893,4.1482,4.3023,4.3449,4.3479,4.3539,4.3598,4.3598,4.3598,4.3598,4.3764,4.4357,4.4489,4.4953,4.6411,4.6676,4.6974,4.7868,4.8001,4.7736,4.6974,4.6908,4.6482,4.5405,4.4821,4.4289,4.3743,4.2798,4.2145,4.1984,4.2212,4.241,4.241,4.3,4.329,4.329,4.329,4.329,4.329,4.329,4.329,4.329,4.329,4.329,3.0532,3.0608,3.0608,3.0608,0.0,0.0,0.0,3.126,3.2164,3.3269,3.4204,3.5326,3.6776,3.7378,3.7863,3.8515,4.0343,4.2362,4.4469,4.7499,4.994,5.1046,5.1229,5.1229,5.1229,5.0723,5.008,4.9279,4.8282,4.7044,4.561,4.544,4.5209,4.4825,4.4678,4.4525,4.4389,4.3673,4.3215,4.3002,4.0388,3.9188,3.9293,3.809,3.793,3.8642,3.9383,4.029,4.1271,4.1662,4.1957,4.2221,4.2221,4.2449,4.2613,4.1571,4.0772,4.0049,3.8661,3.7968,3.765,3.765,3.7796,3.8026,3.8339,3.8939,3.9841,4.1517,4.1943,4.2175,4.33,4.3598,4.3598,4.3598,4.3598,4.3698,4.4092,4.4158,4.4489,4.5582,4.5781,4.6013,4.6775,4.6908,4.7139,4.7901,4.8001,4.7868,4.7504,4.7438,4.7176,4.6422,4.5926,4.5383,4.4756,4.3862,4.3227,4.3024,4.2904,4.2851,4.2851,4.311,4.329,4.329,4.329,4.329,4.329,4.329,4.329,4.329,4.329,4.329,3.0658,3.0432,3.0181,3.0532,0.0,3.003,0.0,0.0,0.0,3.234,3.2836,3.3377,0.0,0.0,0.0,3.5294,0.0,0.0,0.0,4.5022,0.0,5.0504,5.0794,5.084,5.084,5.084,5.0154,4.8514,4.8365,4.7773,4.6305,4.6373,4.6186,4.5501,4.5596,4.5417,4.503,4.4216,4.3658,4.3274,4.0436,3.9,3.8846,3.8059,3.8203,3.9166,4.0042,4.1168,4.2389,4.2551,4.3076,4.3737,4.3242,4.3017,4.2813,4.1576,4.087,4.0271,3.8872,3.8302,3.8173,3.8173,3.8315,3.8544,3.8841,3.9638,4.068,4.2075,4.2506,4.2671,4.34,4.3598,4.3598,4.3598,4.3598,4.3797,4.4522,4.4688,4.5119,4.6609,4.6908,4.6941,4.7073,4.7106,4.7305,4.7901,4.8001,4.8001,4.8001,4.8001,4.7869,4.7471,4.7101,4.6585,4.5877,4.5036,4.4427,4.4104,4.3566,4.329,4.329,4.329,4.329,4.329,4.329,4.329,4.329,4.3409,4.3469,4.3469,4.3469,4.3559,0.0,0.0,0.0,0.0,3.0557,0.0,0.0,0.0,3.0658,3.0859,0.0,0.0,0.0,0.0,0.0,0.0,0.0,0.0,3.977,4.1515,4.419,4.8623,4.9373,4.9539,4.9539,4.9539,4.8984,4.7792,4.7867,4.7482,4.6345,4.6324,4.6256,4.6088,4.6026,4.5941,4.5687,4.4938,4.4417,4.4055,4.1996,4.0738,4.0262,3.9206,3.8999,3.947,4.0172,4.1016,4.1948,4.2689,4.3594,4.4339,4.3773,4.3142,4.2547,4.2381,4.1489,4.0398,4.0172,3.9682,3.9121,3.9121,3.9148,3.9307,3.9996,4.0288,4.068,4.2075,4.2506,4.2671,4.34,4.3598,4.3598,4.3598,4.3598,4.3797,4.4522,4.4688,4.5119,4.6609,4.6908,4.7106,4.7769,4.7868,4.7901,4.8001,4.8001,4.8001,4.8001,4.8001,4.7935,4.7704,4.7303,4.6828,4.6301,4.5332,4.4617,4.4266,4.3645,4.329,4.329,4.329,4.329,4.329,4.329,4.329,4.329,4.3888,4.4197,4.4197,4.4197,4.4496,0.0,0.0,0.0,0.0,0.0,0.0,3.0331,0.0,3.0306,0.0,0.0,0.0,0.0,0.0,0.0,0.0,3.4221,0.0,0.0,0.0,4.211,0.0,0.0,0.0,4.8626,4.8686,4.8341,4.7499,4.7164,4.6852,4.6496,4.6834,4.6969,4.6725,4.7346,4.7244,4.6298,4.56,4.5005,4.4436,4.2355,4.1229,4.0852,3.9711,3.9546,4.0216,4.0357,4.099,4.1851,4.2518,4.332,4.4127,4.3743,4.3694,4.3661,4.2804,4.2137,4.1574,4.1143,4.0779,4.058,4.1011,4.1442,4.1839,4.217,4.227,4.2469,4.3495,4.3761,4.3959,4.4688,4.4887,4.4887,4.4887,4.4887,4.5086,4.5814,4.598,4.6278,4.7338,4.7537,4.7636,4.7968,4.8001,4.8001,4.8001,4.8001,4.8001,4.8001,4.8001,4.7968,4.7902,4.7704,4.737,4.6687,4.5841,4.5104,4.4496,4.3723,4.329,4.329,4.329,4.3469,4.3858,4.3898,4.4077,4.4466,4.4736,4.5095,4.5442,4.5065,4.5035,3.1863,0.0,0.0,0.0,0.0,0.0,0.0,0.0,0.0,0.0,0.0,0.0,0.0,0.0,0.0,0.0,0.0,3.4994,0.0,3.7531,0.0,0.0,0.0,0.0,0.0,4.7638,4.7459,4.68,4.6142,4.5969,4.6411,4.6946,4.7172,4.7035,4.8179,4.8142,4.6719,4.6173,4.5605,4.5001,4.3113,4.2052,4.1754,4.0602,4.0501,4.1175,4.0903,4.1396,4.2392,4.2719,4.3393,4.4232,4.3779,4.4161,4.4726,4.3102,4.2373,4.2109,4.1579,4.1541,4.1811,4.2539,4.3168,4.3598,4.3598,4.3598,4.3731,4.4489,4.4688,4.4854,4.5616,4.5781,4.5781,4.5781,4.5781,4.598,4.6742,4.6908,4.7106,4.7868,4.8001,4.8001,4.8001,4.8001,4.8001,4.8001,4.8001,4.7934,4.7736,4.7868,4.7902,4.7637,4.7737,4.7538,4.6791,4.5985,4.5147,4.4305,4.3645,4.329,4.329,4.3469,4.3798,4.4317,4.4496,4.4825,4.5304,4.5484,4.5843,4.6279,4.5813,4.5663,0.0,0.0,0.0,3.2315,0.0,0.0,0.0,0.0,3.121,0.0,0.0,0.0,0.0,0.0,0.0,0.0,0.0,0.0,0.0,0.0,0.0,0.0,0.0,0.0,0.0,4.5992,4.6112,0.0,4.4736,4.488,4.5961,4.6234,4.6484,4.6829,4.7988,4.8067,4.6892,4.6687,4.6304,4.5765,4.4737,4.3876,4.3196,4.2234,4.2041,4.2412,4.1979,4.2532,4.3822,4.3521,4.4107,4.5143,4.404,4.4368,4.5232,4.3238,4.2042,4.1413,4.1413,4.1844,4.2572,4.33,4.3565,4.3598,4.3598,4.3598,4.3731,4.4489,4.4688,4.4854,4.5616,4.5781,4.5781,4.5781,4.5781,4.598,4.6742,4.6908,4.7106,4.7868,4.8001,4.8001,4.8001,4.8001,4.8001,4.8001,4.8001,4.7736,4.704,4.757,4.7671,4.6748,4.7111,4.7134,4.6407,4.5588,4.4624,4.3409,4.3329,4.329,4.329,4.3917,4.4287,4.4317,4.4945,4.5274,4.5304,4.5963,4.6249,4.6279,4.6249,4.6621,0.0,0.0,3.342,3.3216,0.0,0.0,0.0,0.0,0.0,0.0,0.0,0.0,0.0,0.0,0.0,0.0,0.0,0.0,0.0,0.0,0.0,0.0,0.0,0.0,0.0,0.0,0.0,4.4047,4.3389,0.0,4.3762,4.4664,4.5325,4.5739,4.7289,4.7658,4.6719,4.6722,4.6375,4.5728,4.4843,4.422,4.3739,4.2727,4.2387,4.2622,4.237,4.2687,4.3371,4.3521,4.4172,4.5015,4.4009,4.4306,4.524,4.4056,4.3699,4.3771,4.3771,4.4324,4.5073,4.5463,4.6018,4.6444,4.5947,4.5781,4.5847,4.6079,4.6146,4.6311,4.7073,4.7272,4.7272,4.7272,4.7272,4.7305,4.757,4.7636,4.7703,4.7968,4.8001,4.8001,4.8001,4.7603,4.7438,4.7934,4.8001,4.7901,4.7669,4.7835,4.7803,4.7177,4.7039,4.6883,4.6616,4.6012,4.5352,4.4657,4.4616,4.4616,4.4616,4.4855,4.5185,4.5592,4.5873,4.6202,4.6621,4.686,4.698,4.698,4.698,4.71,3.4387,3.4387,0.0,3.4387,3.4001,0.0,3.3312,0.0,3.2628,0.0,0.0,0.0,0.0,0.0,0.0,0.0,0.0,0.0,0.0,3.5763,0.0,0.0,0.0,0.0,0.0,0.0,4.328,4.2701,4.2043,4.1978,0.0,4.3548,4.4339,4.5098,4.6793,4.7326,4.6477,4.662,4.641,4.5837,4.4955,4.4389,4.4189,4.3339,4.3081,4.3281,4.3247,4.351,4.3952,4.3834,4.4365,4.5212,4.4187,4.4547,4.544,4.4364,4.4205,4.4522,4.4847,4.5469,4.6191,4.6618,4.7309,4.7868,4.7106,4.6908,4.6908,4.6908,4.6908,4.7073,4.7802,4.8001,4.8001,4.8001,4.8001,4.8001,4.8001,4.8001,4.8001,4.8001,4.8001,4.8001,4.8001,4.7603,4.7438,4.7934,4.7769,4.7571,4.7506,4.7671,4.7506,4.6809,4.6528,4.6311,4.6077,4.5905,4.5645,4.5346,4.5304,4.5304,4.5304,4.5544,4.5873,4.6279,4.6518,4.689,4.7309,4.7309,4.7309,4.7309,4.7309,4.7309]}]]